<?xml version="1.0" encoding="UTF-8"?>
<gpx version="1.1" creator="2bulu-scraper" xmlns="http://www.topografix.com/GPX/1/1">
  <metadata><name>宜宾高县来复小峨山</name><desc>source: 2bulu.com trackId=76611236; exported 2026-08-30T14:29:24.988Z</desc></metadata>
  <wpt lat="28.6219513" lon="104.568087"><ele>375</ele><name>
        </name></wpt>
  <wpt lat="28.6340884" lon="104.5755105"><ele>509</ele><name>
        </name></wpt>
  <wpt lat="28.6344131" lon="104.575719"><ele>516</ele><name>
        </name></wpt>
  <wpt lat="28.6344509" lon="104.5758057"><ele>580</ele><name>
        </name></wpt>
  <wpt lat="28.6357828" lon="104.5772816"><ele>544</ele><name>
        </name></wpt>
  <wpt lat="28.637151" lon="104.5799188"><ele>558</ele><name>
        </name></wpt>
  <wpt lat="28.6380516" lon="104.580902"><ele>555</ele><name>
        </name></wpt>
  <wpt lat="28.6383305" lon="104.5813675"><ele>660</ele><name>
        </name></wpt>
  <wpt lat="28.6398351" lon="104.5816155"><ele>573</ele><name>
        </name></wpt>
  <wpt lat="28.6398351" lon="104.5816155"><ele>573</ele><name>
        </name></wpt>
  <wpt lat="28.6399049" lon="104.5817104"><ele>581</ele><name>
        </name></wpt>
  <wpt lat="28.6406078" lon="104.5827332"><ele>681</ele><name>
        </name></wpt>
  <wpt lat="28.6403813" lon="104.5832485"><ele>626</ele><name>
        </name></wpt>
  <wpt lat="28.6391192" lon="104.5837013"><ele>649</ele><name>
        </name></wpt>
  <wpt lat="28.6377434" lon="104.5843643"><ele>670</ele><name>
        </name></wpt>
  <wpt lat="28.6373124" lon="104.5841931"><ele>680</ele><name>
        </name></wpt>
  <wpt lat="28.6373124" lon="104.5841931"><ele>681</ele><name>
        </name></wpt>
  <wpt lat="28.6373124" lon="104.5841931"><ele>680</ele><name>
        </name></wpt>
  <wpt lat="28.6374389" lon="104.5832041"><ele>686</ele><name>
        </name></wpt>
  <wpt lat="28.6372924" lon="104.5826758"><ele>687</ele><name>
        </name></wpt>
  <wpt lat="28.6368465" lon="104.5828629"><ele>742</ele><name>
        </name></wpt>
  <wpt lat="28.6357215" lon="104.5823482"><ele>683</ele><name>
        </name></wpt>
  <wpt lat="28.6345978" lon="104.5802466"><ele>694</ele><name>
        </name></wpt>
  <wpt lat="28.6343082" lon="104.5799619"><ele>703</ele><name>
        </name></wpt>
  <wpt lat="28.6342237" lon="104.5799737"><ele>703</ele><name>
        </name></wpt>
  <wpt lat="28.6342237" lon="104.5799737"><ele>703</ele><name>
        </name></wpt>
  <wpt lat="28.6317887" lon="104.579692"><ele>585</ele><name>
        </name></wpt>
  <wpt lat="28.6294195" lon="104.5810308"><ele>602</ele><name>
        </name></wpt>
  <wpt lat="28.6283459" lon="104.5817581"><ele>615</ele><name>
        </name></wpt>
  <wpt lat="28.6282964" lon="104.5823571"><ele>596</ele><name>
        </name></wpt>
  <wpt lat="28.6264492" lon="104.5820345"><ele>566</ele><name>
        </name></wpt>
  <wpt lat="28.6236299" lon="104.5849934"><ele>585</ele><name>
        </name></wpt>
  <wpt lat="28.6232151" lon="104.5845493"><ele>596</ele><name>
        </name></wpt>
  <wpt lat="28.6227482" lon="104.5840626"><ele>614</ele><name>
        </name></wpt>
  <wpt lat="28.6153111" lon="104.579732"><ele>447</ele><name>
        </name></wpt>
  <wpt lat="28.6141593" lon="104.5788221"><ele>447</ele><name>
        </name></wpt>
  <wpt lat="28.611212" lon="104.5744766"><ele>526</ele><name>
        </name></wpt>
  <wpt lat="28.6096214" lon="104.5702009"><ele>562</ele><name>
        </name></wpt>
  <wpt lat="28.6088658" lon="104.5689207"><ele>552</ele><name>
        </name></wpt>
  <wpt lat="28.6087772" lon="104.5688949"><ele>553</ele><name>
        </name></wpt>
  <wpt lat="28.6079425" lon="104.5681601"><ele>569</ele><name>
        </name></wpt>
  <wpt lat="28.6054106" lon="104.5651082"><ele>580</ele><name>
        </name></wpt>
  <trk><name>宜宾高县来复小峨山</name>
      <trkseg>
        <trkpt lat="28.623747" lon="104.5626089"><ele>325.99</ele><time>2025-12-19T18:02:41.000Z</time></trkpt>
        <trkpt lat="28.623747" lon="104.5626089"><ele>325.99</ele><time>2025-12-19T18:02:51.000Z</time></trkpt>
        <trkpt lat="28.6237734" lon="104.5627126"><ele>325.99</ele><time>2025-12-19T18:05:21.000Z</time></trkpt>
        <trkpt lat="28.6237734" lon="104.5627126"><ele>325.99</ele><time>2025-12-19T18:05:46.000Z</time></trkpt>
        <trkpt lat="28.6236833" lon="104.562724"><ele>328.37</ele><time>2025-12-19T18:06:26.000Z</time></trkpt>
        <trkpt lat="28.6235908" lon="104.56271"><ele>330.46</ele><time>2025-12-19T18:06:40.000Z</time></trkpt>
        <trkpt lat="28.6234998" lon="104.5626788"><ele>331.42</ele><time>2025-12-19T18:06:54.000Z</time></trkpt>
        <trkpt lat="28.6234062" lon="104.5626538"><ele>332.02</ele><time>2025-12-19T18:07:06.000Z</time></trkpt>
        <trkpt lat="28.623312" lon="104.5626325"><ele>332.35</ele><time>2025-12-19T18:07:16.000Z</time></trkpt>
        <trkpt lat="28.6232181" lon="104.5626352"><ele>332.51</ele><time>2025-12-19T18:07:30.000Z</time></trkpt>
        <trkpt lat="28.6231233" lon="104.5626679"><ele>332.59</ele><time>2025-12-19T18:07:42.000Z</time></trkpt>
        <trkpt lat="28.6230353" lon="104.5627048"><ele>332.58</ele><time>2025-12-19T18:07:52.000Z</time></trkpt>
        <trkpt lat="28.6229477" lon="104.562741"><ele>332.39</ele><time>2025-12-19T18:08:02.000Z</time></trkpt>
        <trkpt lat="28.6228591" lon="104.562793"><ele>332.33</ele><time>2025-12-19T18:08:14.000Z</time></trkpt>
        <trkpt lat="28.6227697" lon="104.5628343"><ele>332.55</ele><time>2025-12-19T18:08:24.000Z</time></trkpt>
        <trkpt lat="28.6226779" lon="104.5628867"><ele>332.36</ele><time>2025-12-19T18:08:36.000Z</time></trkpt>
        <trkpt lat="28.6225748" lon="104.5629329"><ele>332.28</ele><time>2025-12-19T18:08:44.000Z</time></trkpt>
        <trkpt lat="28.6224752" lon="104.5629616"><ele>334.61</ele><time>2025-12-19T18:08:54.000Z</time></trkpt>
        <trkpt lat="28.6223803" lon="104.5630092"><ele>335.55</ele><time>2025-12-19T18:09:06.000Z</time></trkpt>
        <trkpt lat="28.6222873" lon="104.5630373"><ele>335.53</ele><time>2025-12-19T18:09:14.000Z</time></trkpt>
        <trkpt lat="28.6222021" lon="104.5630756"><ele>335.54</ele><time>2025-12-19T18:09:22.000Z</time></trkpt>
        <trkpt lat="28.6221077" lon="104.5631235"><ele>335.49</ele><time>2025-12-19T18:09:32.000Z</time></trkpt>
        <trkpt lat="28.6220161" lon="104.5631637"><ele>334.77</ele><time>2025-12-19T18:09:40.000Z</time></trkpt>
        <trkpt lat="28.6219248" lon="104.563203"><ele>334.68</ele><time>2025-12-19T18:09:48.000Z</time></trkpt>
        <trkpt lat="28.6218274" lon="104.5632381"><ele>334.7</ele><time>2025-12-19T18:09:56.000Z</time></trkpt>
        <trkpt lat="28.6217486" lon="104.5632958"><ele>335.26</ele><time>2025-12-19T18:10:04.000Z</time></trkpt>
        <trkpt lat="28.6216767" lon="104.5633644"><ele>335.06</ele><time>2025-12-19T18:10:12.000Z</time></trkpt>
        <trkpt lat="28.6216067" lon="104.5634377"><ele>335.15</ele><time>2025-12-19T18:10:20.000Z</time></trkpt>
        <trkpt lat="28.6215464" lon="104.5635194"><ele>335.42</ele><time>2025-12-19T18:10:28.000Z</time></trkpt>
        <trkpt lat="28.6214781" lon="104.5636161"><ele>335.48</ele><time>2025-12-19T18:10:38.000Z</time></trkpt>
        <trkpt lat="28.621431" lon="104.5637128"><ele>335.25</ele><time>2025-12-19T18:10:46.000Z</time></trkpt>
        <trkpt lat="28.6213943" lon="104.5638255"><ele>335</ele><time>2025-12-19T18:10:56.000Z</time></trkpt>
        <trkpt lat="28.6213681" lon="104.5639333"><ele>335.05</ele><time>2025-12-19T18:11:04.000Z</time></trkpt>
        <trkpt lat="28.6213568" lon="104.5640429"><ele>334.4</ele><time>2025-12-19T18:11:12.000Z</time></trkpt>
        <trkpt lat="28.6213424" lon="104.5641465"><ele>333.83</ele><time>2025-12-19T18:11:20.000Z</time></trkpt>
        <trkpt lat="28.6213358" lon="104.5642553"><ele>333.36</ele><time>2025-12-19T18:11:28.000Z</time></trkpt>
        <trkpt lat="28.6213233" lon="104.5643596"><ele>333.22</ele><time>2025-12-19T18:11:36.000Z</time></trkpt>
        <trkpt lat="28.6213237" lon="104.5644746"><ele>332.93</ele><time>2025-12-19T18:11:46.000Z</time></trkpt>
        <trkpt lat="28.6213109" lon="104.5645847"><ele>332.35</ele><time>2025-12-19T18:11:54.000Z</time></trkpt>
        <trkpt lat="28.6212829" lon="104.5646903"><ele>331.91</ele><time>2025-12-19T18:12:02.000Z</time></trkpt>
        <trkpt lat="28.6212492" lon="104.5647905"><ele>331.28</ele><time>2025-12-19T18:12:10.000Z</time></trkpt>
        <trkpt lat="28.6212182" lon="104.564896"><ele>330.07</ele><time>2025-12-19T18:12:18.000Z</time></trkpt>
        <trkpt lat="28.6211993" lon="104.5649835"><ele>329.39</ele><time>2025-12-19T18:12:28.000Z</time></trkpt>
        <trkpt lat="28.6211753" lon="104.565082"><ele>328.88</ele><time>2025-12-19T18:12:38.000Z</time></trkpt>
        <trkpt lat="28.6211463" lon="104.5651981"><ele>328.79</ele><time>2025-12-19T18:12:46.000Z</time></trkpt>
        <trkpt lat="28.6211224" lon="104.5653054"><ele>327.43</ele><time>2025-12-19T18:12:52.000Z</time></trkpt>
        <trkpt lat="28.6210908" lon="104.5654194"><ele>326.42</ele><time>2025-12-19T18:13:00.000Z</time></trkpt>
        <trkpt lat="28.6210593" lon="104.5655319"><ele>325.89</ele><time>2025-12-19T18:13:08.000Z</time></trkpt>
        <trkpt lat="28.6210345" lon="104.5656495"><ele>325.15</ele><time>2025-12-19T18:13:16.000Z</time></trkpt>
        <trkpt lat="28.6210064" lon="104.5657705"><ele>324.51</ele><time>2025-12-19T18:13:24.000Z</time></trkpt>
        <trkpt lat="28.6209824" lon="104.5658946"><ele>324.62</ele><time>2025-12-19T18:13:32.000Z</time></trkpt>
        <trkpt lat="28.6209593" lon="104.5660265"><ele>325.12</ele><time>2025-12-19T18:13:40.000Z</time></trkpt>
        <trkpt lat="28.6209105" lon="104.5661257"><ele>325.54</ele><time>2025-12-19T18:13:46.000Z</time></trkpt>
        <trkpt lat="28.6208586" lon="104.5662162"><ele>326.2</ele><time>2025-12-19T18:13:52.000Z</time></trkpt>
        <trkpt lat="28.6208171" lon="104.5663087"><ele>327.96</ele><time>2025-12-19T18:13:58.000Z</time></trkpt>
        <trkpt lat="28.6208748" lon="104.5663821"><ele>330.33</ele><time>2025-12-19T18:14:04.000Z</time></trkpt>
        <trkpt lat="28.6209747" lon="104.5664045"><ele>330.96</ele><time>2025-12-19T18:14:10.000Z</time></trkpt>
        <trkpt lat="28.6210916" lon="104.5664066"><ele>330.93</ele><time>2025-12-19T18:14:18.000Z</time></trkpt>
        <trkpt lat="28.6211971" lon="104.5664115"><ele>330.72</ele><time>2025-12-19T18:14:26.000Z</time></trkpt>
        <trkpt lat="28.6212949" lon="104.5664348"><ele>331.06</ele><time>2025-12-19T18:14:34.000Z</time></trkpt>
        <trkpt lat="28.6213816" lon="104.5664775"><ele>331.84</ele><time>2025-12-19T18:14:42.000Z</time></trkpt>
        <trkpt lat="28.621471" lon="104.56654"><ele>332.36</ele><time>2025-12-19T18:14:52.000Z</time></trkpt>
        <trkpt lat="28.6215524" lon="104.5665964"><ele>331.74</ele><time>2025-12-19T18:15:00.000Z</time></trkpt>
        <trkpt lat="28.6216333" lon="104.5666715"><ele>331.8</ele><time>2025-12-19T18:15:12.000Z</time></trkpt>
        <trkpt lat="28.6217076" lon="104.5667418"><ele>332.42</ele><time>2025-12-19T18:15:20.000Z</time></trkpt>
        <trkpt lat="28.6217887" lon="104.5668214"><ele>333.17</ele><time>2025-12-19T18:15:28.000Z</time></trkpt>
        <trkpt lat="28.6218712" lon="104.5668994"><ele>334.71</ele><time>2025-12-19T18:15:36.000Z</time></trkpt>
        <trkpt lat="28.6219712" lon="104.5669169"><ele>336.02</ele><time>2025-12-19T18:15:46.000Z</time></trkpt>
        <trkpt lat="28.6220644" lon="104.5668925"><ele>338.05</ele><time>2025-12-19T18:15:58.000Z</time></trkpt>
        <trkpt lat="28.622165" lon="104.5668507"><ele>338.84</ele><time>2025-12-19T18:16:12.000Z</time></trkpt>
        <trkpt lat="28.6222551" lon="104.566809"><ele>340.22</ele><time>2025-12-19T18:16:22.000Z</time></trkpt>
        <trkpt lat="28.6223381" lon="104.5667526"><ele>340.31</ele><time>2025-12-19T18:16:34.000Z</time></trkpt>
        <trkpt lat="28.6223789" lon="104.5668096"><ele>341.72</ele><time>2025-12-19T18:16:46.000Z</time></trkpt>
        <trkpt lat="28.6224127" lon="104.5669151"><ele>343.42</ele><time>2025-12-19T18:16:56.000Z</time></trkpt>
        <trkpt lat="28.622464" lon="104.5670137"><ele>344.7</ele><time>2025-12-19T18:17:06.000Z</time></trkpt>
        <trkpt lat="28.6225015" lon="104.5671298"><ele>345.56</ele><time>2025-12-19T18:17:16.000Z</time></trkpt>
        <trkpt lat="28.6225374" lon="104.5672458"><ele>345.21</ele><time>2025-12-19T18:17:26.000Z</time></trkpt>
        <trkpt lat="28.6225981" lon="104.5673267"><ele>344.96</ele><time>2025-12-19T18:17:34.000Z</time></trkpt>
        <trkpt lat="28.6226397" lon="104.5674172"><ele>346.1</ele><time>2025-12-19T18:17:44.000Z</time></trkpt>
        <trkpt lat="28.6226947" lon="104.5675106"><ele>348.98</ele><time>2025-12-19T18:17:58.000Z</time></trkpt>
        <trkpt lat="28.6226968" lon="104.5676183"><ele>352.6</ele><time>2025-12-19T18:18:14.000Z</time></trkpt>
        <trkpt lat="28.6226299" lon="104.5676928"><ele>353.92</ele><time>2025-12-19T18:18:28.000Z</time></trkpt>
        <trkpt lat="28.6225269" lon="104.5677256"><ele>354.83</ele><time>2025-12-19T18:18:40.000Z</time></trkpt>
        <trkpt lat="28.6224204" lon="104.5677345"><ele>355.93</ele><time>2025-12-19T18:18:54.000Z</time></trkpt>
        <trkpt lat="28.6223164" lon="104.567745"><ele>357.01</ele><time>2025-12-19T18:19:08.000Z</time></trkpt>
        <trkpt lat="28.6222143" lon="104.5677556"><ele>358.68</ele><time>2025-12-19T18:19:22.000Z</time></trkpt>
        <trkpt lat="28.6221154" lon="104.5677464"><ele>360.94</ele><time>2025-12-19T18:19:34.000Z</time></trkpt>
        <trkpt lat="28.6220219" lon="104.567722"><ele>363.93</ele><time>2025-12-19T18:19:48.000Z</time></trkpt>
        <trkpt lat="28.6219292" lon="104.5676973"><ele>366.18</ele><time>2025-12-19T18:20:02.000Z</time></trkpt>
        <trkpt lat="28.6218536" lon="104.5677477"><ele>369.4</ele><time>2025-12-19T18:20:20.000Z</time></trkpt>
        <trkpt lat="28.6218541" lon="104.5678579"><ele>370.96</ele><time>2025-12-19T18:20:32.000Z</time></trkpt>
        <trkpt lat="28.6218976" lon="104.5679812"><ele>372.71</ele><time>2025-12-19T18:20:44.000Z</time></trkpt>
        <trkpt lat="28.6219513" lon="104.568087"><ele>373.79</ele><time>2025-12-19T18:21:02.000Z</time></trkpt>
        <trkpt lat="28.621936" lon="104.568196"><ele>374.49</ele><time>2025-12-19T18:21:12.000Z</time></trkpt>
        <trkpt lat="28.6218961" lon="104.568293"><ele>375.16</ele><time>2025-12-19T18:21:20.000Z</time></trkpt>
        <trkpt lat="28.6219049" lon="104.5684043"><ele>376.44</ele><time>2025-12-19T18:21:30.000Z</time></trkpt>
        <trkpt lat="28.6219747" lon="104.5684705"><ele>377.16</ele><time>2025-12-19T18:21:40.000Z</time></trkpt>
        <trkpt lat="28.6220737" lon="104.5685018"><ele>377.84</ele><time>2025-12-19T18:21:52.000Z</time></trkpt>
        <trkpt lat="28.6221817" lon="104.5685247"><ele>379.45</ele><time>2025-12-19T18:22:08.000Z</time></trkpt>
        <trkpt lat="28.6222841" lon="104.5685515"><ele>381.47</ele><time>2025-12-19T18:22:26.000Z</time></trkpt>
        <trkpt lat="28.6223322" lon="104.5686348"><ele>383.77</ele><time>2025-12-19T18:22:40.000Z</time></trkpt>
        <trkpt lat="28.6223391" lon="104.5687491"><ele>385.55</ele><time>2025-12-19T18:22:54.000Z</time></trkpt>
        <trkpt lat="28.6223261" lon="104.5688766"><ele>387.36</ele><time>2025-12-19T18:23:06.000Z</time></trkpt>
        <trkpt lat="28.6223357" lon="104.5689953"><ele>388.74</ele><time>2025-12-19T18:23:16.000Z</time></trkpt>
        <trkpt lat="28.6224044" lon="104.5690652"><ele>389.52</ele><time>2025-12-19T18:23:26.000Z</time></trkpt>
        <trkpt lat="28.6224924" lon="104.5691015"><ele>389.66</ele><time>2025-12-19T18:23:36.000Z</time></trkpt>
        <trkpt lat="28.6225883" lon="104.5691017"><ele>389.84</ele><time>2025-12-19T18:23:46.000Z</time></trkpt>
        <trkpt lat="28.6226902" lon="104.5691111"><ele>390.39</ele><time>2025-12-19T18:24:00.000Z</time></trkpt>
        <trkpt lat="28.6227827" lon="104.569154"><ele>391.58</ele><time>2025-12-19T18:24:14.000Z</time></trkpt>
        <trkpt lat="28.6228452" lon="104.5692319"><ele>393</ele><time>2025-12-19T18:24:26.000Z</time></trkpt>
        <trkpt lat="28.622877" lon="104.5693341"><ele>394.35</ele><time>2025-12-19T18:24:36.000Z</time></trkpt>
        <trkpt lat="28.6228984" lon="104.5694464"><ele>395.3</ele><time>2025-12-19T18:24:50.000Z</time></trkpt>
        <trkpt lat="28.6229718" lon="104.5694953"><ele>395.35</ele><time>2025-12-19T18:25:02.000Z</time></trkpt>
        <trkpt lat="28.6230588" lon="104.5694705"><ele>395.2</ele><time>2025-12-19T18:25:14.000Z</time></trkpt>
        <trkpt lat="28.623157" lon="104.5694326"><ele>395.62</ele><time>2025-12-19T18:25:24.000Z</time></trkpt>
        <trkpt lat="28.6232585" lon="104.5694323"><ele>395.79</ele><time>2025-12-19T18:25:34.000Z</time></trkpt>
        <trkpt lat="28.6233658" lon="104.5694616"><ele>396.78</ele><time>2025-12-19T18:25:44.000Z</time></trkpt>
        <trkpt lat="28.6234518" lon="104.5695164"><ele>397.27</ele><time>2025-12-19T18:25:52.000Z</time></trkpt>
        <trkpt lat="28.623533" lon="104.5695913"><ele>399.2</ele><time>2025-12-19T18:26:06.000Z</time></trkpt>
        <trkpt lat="28.6236019" lon="104.5696755"><ele>400.03</ele><time>2025-12-19T18:26:16.000Z</time></trkpt>
        <trkpt lat="28.6236787" lon="104.5697511"><ele>400.63</ele><time>2025-12-19T18:26:26.000Z</time></trkpt>
        <trkpt lat="28.6237784" lon="104.569783"><ele>400.98</ele><time>2025-12-19T18:26:36.000Z</time></trkpt>
        <trkpt lat="28.6238871" lon="104.5697704"><ele>401.3</ele><time>2025-12-19T18:26:46.000Z</time></trkpt>
        <trkpt lat="28.6239955" lon="104.5697388"><ele>401.45</ele><time>2025-12-19T18:26:56.000Z</time></trkpt>
        <trkpt lat="28.6241022" lon="104.5697084"><ele>401.03</ele><time>2025-12-19T18:27:06.000Z</time></trkpt>
        <trkpt lat="28.6241918" lon="104.5697593"><ele>399.85</ele><time>2025-12-19T18:27:16.000Z</time></trkpt>
        <trkpt lat="28.6242427" lon="104.5698666"><ele>399.26</ele><time>2025-12-19T18:27:26.000Z</time></trkpt>
        <trkpt lat="28.6242924" lon="104.5699683"><ele>399.25</ele><time>2025-12-19T18:27:36.000Z</time></trkpt>
        <trkpt lat="28.6243603" lon="104.5700459"><ele>399.4</ele><time>2025-12-19T18:27:46.000Z</time></trkpt>
        <trkpt lat="28.624447" lon="104.5700785"><ele>399.22</ele><time>2025-12-19T18:27:54.000Z</time></trkpt>
        <trkpt lat="28.6245468" lon="104.5700768"><ele>399.2</ele><time>2025-12-19T18:28:02.000Z</time></trkpt>
        <trkpt lat="28.6246456" lon="104.5700515"><ele>399.62</ele><time>2025-12-19T18:28:10.000Z</time></trkpt>
        <trkpt lat="28.6247368" lon="104.5700045"><ele>399.98</ele><time>2025-12-19T18:28:18.000Z</time></trkpt>
        <trkpt lat="28.6248207" lon="104.5699475"><ele>400.37</ele><time>2025-12-19T18:28:26.000Z</time></trkpt>
        <trkpt lat="28.6249055" lon="104.5698913"><ele>400.59</ele><time>2025-12-19T18:28:36.000Z</time></trkpt>
        <trkpt lat="28.6249834" lon="104.5698253"><ele>400.9</ele><time>2025-12-19T18:28:50.000Z</time></trkpt>
        <trkpt lat="28.6250806" lon="104.5698118"><ele>401</ele><time>2025-12-19T18:29:00.000Z</time></trkpt>
        <trkpt lat="28.6251654" lon="104.5698662"><ele>400.71</ele><time>2025-12-19T18:29:08.000Z</time></trkpt>
        <trkpt lat="28.6252288" lon="104.5699592"><ele>400.18</ele><time>2025-12-19T18:29:16.000Z</time></trkpt>
        <trkpt lat="28.6252812" lon="104.5700581"><ele>400.28</ele><time>2025-12-19T18:29:24.000Z</time></trkpt>
        <trkpt lat="28.6253407" lon="104.570157"><ele>400.91</ele><time>2025-12-19T18:29:34.000Z</time></trkpt>
        <trkpt lat="28.6253634" lon="104.5702749"><ele>401.22</ele><time>2025-12-19T18:29:44.000Z</time></trkpt>
        <trkpt lat="28.6253395" lon="104.5703826"><ele>402.17</ele><time>2025-12-19T18:29:52.000Z</time></trkpt>
        <trkpt lat="28.6252812" lon="104.5704688"><ele>403.42</ele><time>2025-12-19T18:30:00.000Z</time></trkpt>
        <trkpt lat="28.6251987" lon="104.5705467"><ele>404.84</ele><time>2025-12-19T18:30:10.000Z</time></trkpt>
        <trkpt lat="28.6251373" lon="104.5706313"><ele>406.76</ele><time>2025-12-19T18:30:20.000Z</time></trkpt>
        <trkpt lat="28.6251324" lon="104.570742"><ele>408.77</ele><time>2025-12-19T18:30:32.000Z</time></trkpt>
        <trkpt lat="28.625155" lon="104.5708491"><ele>410.63</ele><time>2025-12-19T18:30:42.000Z</time></trkpt>
        <trkpt lat="28.6252001" lon="104.5709501"><ele>411.91</ele><time>2025-12-19T18:30:54.000Z</time></trkpt>
        <trkpt lat="28.6252694" lon="104.5710362"><ele>412.36</ele><time>2025-12-19T18:31:06.000Z</time></trkpt>
        <trkpt lat="28.6253477" lon="104.5711095"><ele>412.54</ele><time>2025-12-19T18:31:16.000Z</time></trkpt>
        <trkpt lat="28.625414" lon="104.571196"><ele>412.52</ele><time>2025-12-19T18:31:26.000Z</time></trkpt>
        <trkpt lat="28.6254643" lon="104.5712972"><ele>413.37</ele><time>2025-12-19T18:31:36.000Z</time></trkpt>
        <trkpt lat="28.6254852" lon="104.5714082"><ele>414.71</ele><time>2025-12-19T18:31:46.000Z</time></trkpt>
        <trkpt lat="28.6255171" lon="104.5715072"><ele>416.18</ele><time>2025-12-19T18:31:56.000Z</time></trkpt>
        <trkpt lat="28.6255904" lon="104.5715853"><ele>416.69</ele><time>2025-12-19T18:32:08.000Z</time></trkpt>
        <trkpt lat="28.6256811" lon="104.5716267"><ele>417.03</ele><time>2025-12-19T18:32:18.000Z</time></trkpt>
        <trkpt lat="28.6257866" lon="104.5716386"><ele>416.81</ele><time>2025-12-19T18:32:28.000Z</time></trkpt>
        <trkpt lat="28.6258841" lon="104.5716258"><ele>416.44</ele><time>2025-12-19T18:32:36.000Z</time></trkpt>
        <trkpt lat="28.6259782" lon="104.5715804"><ele>416.07</ele><time>2025-12-19T18:32:46.000Z</time></trkpt>
        <trkpt lat="28.6260655" lon="104.5715054"><ele>416.33</ele><time>2025-12-19T18:32:56.000Z</time></trkpt>
        <trkpt lat="28.6260655" lon="104.5715054"><ele>416.33</ele><time>2025-12-19T18:32:57.000Z</time></trkpt>
        <trkpt lat="28.6261607" lon="104.5714447"><ele>416.8</ele><time>2025-12-19T18:32:59.000Z</time></trkpt>
        <trkpt lat="28.6261607" lon="104.5714447"><ele>416.8</ele><time>2025-12-19T18:33:06.000Z</time></trkpt>
        <trkpt lat="28.6262524" lon="104.5714799"><ele>417.69</ele><time>2025-12-19T18:33:16.000Z</time></trkpt>
        <trkpt lat="28.6262963" lon="104.5715877"><ele>418.47</ele><time>2025-12-19T18:33:26.000Z</time></trkpt>
        <trkpt lat="28.6263298" lon="104.571699"><ele>420.06</ele><time>2025-12-19T18:33:36.000Z</time></trkpt>
        <trkpt lat="28.6263959" lon="104.5717908"><ele>421.72</ele><time>2025-12-19T18:33:46.000Z</time></trkpt>
        <trkpt lat="28.6264887" lon="104.5718287"><ele>422.66</ele><time>2025-12-19T18:33:56.000Z</time></trkpt>
        <trkpt lat="28.6265863" lon="104.5718281"><ele>422.9</ele><time>2025-12-19T18:34:04.000Z</time></trkpt>
        <trkpt lat="28.626696" lon="104.5718099"><ele>422.83</ele><time>2025-12-19T18:34:14.000Z</time></trkpt>
        <trkpt lat="28.6267993" lon="104.5717862"><ele>422.96</ele><time>2025-12-19T18:34:22.000Z</time></trkpt>
        <trkpt lat="28.626894" lon="104.5717619"><ele>423.17</ele><time>2025-12-19T18:34:30.000Z</time></trkpt>
        <trkpt lat="28.6269875" lon="104.5717497"><ele>423.34</ele><time>2025-12-19T18:34:38.000Z</time></trkpt>
        <trkpt lat="28.6270668" lon="104.5717946"><ele>423.45</ele><time>2025-12-19T18:34:46.000Z</time></trkpt>
        <trkpt lat="28.6271071" lon="104.5718878"><ele>424.52</ele><time>2025-12-19T18:34:54.000Z</time></trkpt>
        <trkpt lat="28.6271234" lon="104.5719966"><ele>425.78</ele><time>2025-12-19T18:35:02.000Z</time></trkpt>
        <trkpt lat="28.627126" lon="104.5721214"><ele>427.2</ele><time>2025-12-19T18:35:12.000Z</time></trkpt>
        <trkpt lat="28.6271263" lon="104.5722501"><ele>428.42</ele><time>2025-12-19T18:35:22.000Z</time></trkpt>
        <trkpt lat="28.6270943" lon="104.5723764"><ele>429.75</ele><time>2025-12-19T18:35:32.000Z</time></trkpt>
        <trkpt lat="28.6270404" lon="104.5724728"><ele>431.2</ele><time>2025-12-19T18:35:40.000Z</time></trkpt>
        <trkpt lat="28.6270067" lon="104.5725753"><ele>432.02</ele><time>2025-12-19T18:35:50.000Z</time></trkpt>
        <trkpt lat="28.6270084" lon="104.5726762"><ele>431.88</ele><time>2025-12-19T18:35:58.000Z</time></trkpt>
        <trkpt lat="28.6270456" lon="104.5727679"><ele>431.67</ele><time>2025-12-19T18:36:06.000Z</time></trkpt>
        <trkpt lat="28.6271313" lon="104.5728256"><ele>431.74</ele><time>2025-12-19T18:36:16.000Z</time></trkpt>
        <trkpt lat="28.6272394" lon="104.5728234"><ele>431.51</ele><time>2025-12-19T18:36:26.000Z</time></trkpt>
        <trkpt lat="28.6273334" lon="104.5727748"><ele>431.52</ele><time>2025-12-19T18:36:34.000Z</time></trkpt>
        <trkpt lat="28.6274322" lon="104.5727071"><ele>431.58</ele><time>2025-12-19T18:36:44.000Z</time></trkpt>
        <trkpt lat="28.627532" lon="104.5726795"><ele>431.61</ele><time>2025-12-19T18:36:52.000Z</time></trkpt>
        <trkpt lat="28.6276246" lon="104.5727101"><ele>431.43</ele><time>2025-12-19T18:37:00.000Z</time></trkpt>
        <trkpt lat="28.627709" lon="104.5727769"><ele>430.91</ele><time>2025-12-19T18:37:08.000Z</time></trkpt>
        <trkpt lat="28.6277967" lon="104.5728458"><ele>430.97</ele><time>2025-12-19T18:37:16.000Z</time></trkpt>
        <trkpt lat="28.6278839" lon="104.5729034"><ele>430.96</ele><time>2025-12-19T18:37:24.000Z</time></trkpt>
        <trkpt lat="28.6279678" lon="104.5729534"><ele>430.92</ele><time>2025-12-19T18:37:32.000Z</time></trkpt>
        <trkpt lat="28.6280418" lon="104.5730367"><ele>431.36</ele><time>2025-12-19T18:37:42.000Z</time></trkpt>
        <trkpt lat="28.6280997" lon="104.5731403"><ele>432.71</ele><time>2025-12-19T18:37:52.000Z</time></trkpt>
        <trkpt lat="28.6281237" lon="104.5732533"><ele>434.87</ele><time>2025-12-19T18:38:00.000Z</time></trkpt>
        <trkpt lat="28.6281556" lon="104.5733562"><ele>436.53</ele><time>2025-12-19T18:38:08.000Z</time></trkpt>
        <trkpt lat="28.6282165" lon="104.5734305"><ele>437.22</ele><time>2025-12-19T18:38:16.000Z</time></trkpt>
        <trkpt lat="28.6283033" lon="104.5734995"><ele>437.46</ele><time>2025-12-19T18:38:26.000Z</time></trkpt>
        <trkpt lat="28.62839" lon="104.5735563"><ele>437.59</ele><time>2025-12-19T18:38:36.000Z</time></trkpt>
        <trkpt lat="28.6284865" lon="104.5736189"><ele>437.39</ele><time>2025-12-19T18:38:46.000Z</time></trkpt>
        <trkpt lat="28.6285719" lon="104.5736755"><ele>436.7</ele><time>2025-12-19T18:38:54.000Z</time></trkpt>
        <trkpt lat="28.6286552" lon="104.5737215"><ele>436.25</ele><time>2025-12-19T18:39:02.000Z</time></trkpt>
        <trkpt lat="28.6287342" lon="104.5737713"><ele>435.59</ele><time>2025-12-19T18:39:10.000Z</time></trkpt>
        <trkpt lat="28.628814" lon="104.5738253"><ele>435.23</ele><time>2025-12-19T18:39:18.000Z</time></trkpt>
        <trkpt lat="28.6288988" lon="104.5738778"><ele>435.44</ele><time>2025-12-19T18:39:28.000Z</time></trkpt>
        <trkpt lat="28.6289916" lon="104.5739334"><ele>436.59</ele><time>2025-12-19T18:39:40.000Z</time></trkpt>
        <trkpt lat="28.6290795" lon="104.5739861"><ele>438.44</ele><time>2025-12-19T18:39:50.000Z</time></trkpt>
        <trkpt lat="28.6291494" lon="104.5740669"><ele>440.34</ele><time>2025-12-19T18:40:00.000Z</time></trkpt>
        <trkpt lat="28.6292121" lon="104.5741671"><ele>442.6</ele><time>2025-12-19T18:40:10.000Z</time></trkpt>
        <trkpt lat="28.6292936" lon="104.5742239"><ele>444.56</ele><time>2025-12-19T18:40:18.000Z</time></trkpt>
        <trkpt lat="28.6293941" lon="104.5742408"><ele>446.02</ele><time>2025-12-19T18:40:28.000Z</time></trkpt>
        <trkpt lat="28.6294908" lon="104.5742447"><ele>447.53</ele><time>2025-12-19T18:40:36.000Z</time></trkpt>
        <trkpt lat="28.6295832" lon="104.5742477"><ele>447.95</ele><time>2025-12-19T18:40:44.000Z</time></trkpt>
        <trkpt lat="28.6296743" lon="104.5742537"><ele>448.49</ele><time>2025-12-19T18:40:52.000Z</time></trkpt>
        <trkpt lat="28.6297726" lon="104.5742833"><ele>448.63</ele><time>2025-12-19T18:41:02.000Z</time></trkpt>
        <trkpt lat="28.629874" lon="104.5743078"><ele>449.18</ele><time>2025-12-19T18:41:12.000Z</time></trkpt>
        <trkpt lat="28.6299725" lon="104.5743388"><ele>449.73</ele><time>2025-12-19T18:41:22.000Z</time></trkpt>
        <trkpt lat="28.6300649" lon="104.5743602"><ele>450.63</ele><time>2025-12-19T18:41:32.000Z</time></trkpt>
        <trkpt lat="28.6301628" lon="104.5743776"><ele>451.9</ele><time>2025-12-19T18:41:44.000Z</time></trkpt>
        <trkpt lat="28.6302672" lon="104.5743778"><ele>453.45</ele><time>2025-12-19T18:41:56.000Z</time></trkpt>
        <trkpt lat="28.6303719" lon="104.5743749"><ele>454.43</ele><time>2025-12-19T18:42:06.000Z</time></trkpt>
        <trkpt lat="28.6304722" lon="104.5743711"><ele>455.43</ele><time>2025-12-19T18:42:16.000Z</time></trkpt>
        <trkpt lat="28.6305612" lon="104.5743106"><ele>456.19</ele><time>2025-12-19T18:42:28.000Z</time></trkpt>
        <trkpt lat="28.6306529" lon="104.5742622"><ele>456.4</ele><time>2025-12-19T18:42:38.000Z</time></trkpt>
        <trkpt lat="28.6307511" lon="104.5742462"><ele>457.35</ele><time>2025-12-19T18:42:48.000Z</time></trkpt>
        <trkpt lat="28.6308484" lon="104.5742276"><ele>457.99</ele><time>2025-12-19T18:43:00.000Z</time></trkpt>
        <trkpt lat="28.6309413" lon="104.5741755"><ele>459</ele><time>2025-12-19T18:43:10.000Z</time></trkpt>
        <trkpt lat="28.6310335" lon="104.5741079"><ele>460.34</ele><time>2025-12-19T18:43:20.000Z</time></trkpt>
        <trkpt lat="28.631115" lon="104.5740493"><ele>461.5</ele><time>2025-12-19T18:43:28.000Z</time></trkpt>
        <trkpt lat="28.6312039" lon="104.5740329"><ele>462.47</ele><time>2025-12-19T18:43:36.000Z</time></trkpt>
        <trkpt lat="28.6312924" lon="104.5740678"><ele>463.16</ele><time>2025-12-19T18:43:44.000Z</time></trkpt>
        <trkpt lat="28.6313838" lon="104.5740911"><ele>463.15</ele><time>2025-12-19T18:43:52.000Z</time></trkpt>
        <trkpt lat="28.6314754" lon="104.5740861"><ele>463.39</ele><time>2025-12-19T18:44:00.000Z</time></trkpt>
        <trkpt lat="28.6315657" lon="104.5740638"><ele>463.71</ele><time>2025-12-19T18:44:08.000Z</time></trkpt>
        <trkpt lat="28.6316716" lon="104.574045"><ele>464.1</ele><time>2025-12-19T18:44:18.000Z</time></trkpt>
        <trkpt lat="28.6317721" lon="104.5740353"><ele>464.24</ele><time>2025-12-19T18:44:26.000Z</time></trkpt>
        <trkpt lat="28.6318691" lon="104.5740424"><ele>464.14</ele><time>2025-12-19T18:44:34.000Z</time></trkpt>
        <trkpt lat="28.6319663" lon="104.5740581"><ele>464.68</ele><time>2025-12-19T18:44:42.000Z</time></trkpt>
        <trkpt lat="28.6320572" lon="104.5741035"><ele>464.66</ele><time>2025-12-19T18:44:50.000Z</time></trkpt>
        <trkpt lat="28.6321349" lon="104.5741694"><ele>466.32</ele><time>2025-12-19T18:45:00.000Z</time></trkpt>
        <trkpt lat="28.6322253" lon="104.5742357"><ele>467.77</ele><time>2025-12-19T18:45:10.000Z</time></trkpt>
        <trkpt lat="28.6323255" lon="104.574286"><ele>469.32</ele><time>2025-12-19T18:45:20.000Z</time></trkpt>
        <trkpt lat="28.6323255" lon="104.574286"><ele>469.32</ele><time>2025-12-19T18:45:21.000Z</time></trkpt>
        <trkpt lat="28.6324177" lon="104.5743438"><ele>470.55</ele><time>2025-12-19T18:45:23.000Z</time></trkpt>
        <trkpt lat="28.6324177" lon="104.5743438"><ele>470.55</ele><time>2025-12-19T18:45:30.000Z</time></trkpt>
        <trkpt lat="28.6324865" lon="104.5744228"><ele>471.5</ele><time>2025-12-19T18:45:40.000Z</time></trkpt>
        <trkpt lat="28.632534" lon="104.574516"><ele>472.72</ele><time>2025-12-19T18:45:50.000Z</time></trkpt>
        <trkpt lat="28.6325768" lon="104.5746166"><ele>474.26</ele><time>2025-12-19T18:46:02.000Z</time></trkpt>
        <trkpt lat="28.6326352" lon="104.5747106"><ele>476.26</ele><time>2025-12-19T18:46:14.000Z</time></trkpt>
        <trkpt lat="28.6327233" lon="104.5747646"><ele>477.55</ele><time>2025-12-19T18:46:26.000Z</time></trkpt>
        <trkpt lat="28.6328232" lon="104.5747614"><ele>477.95</ele><time>2025-12-19T18:46:38.000Z</time></trkpt>
        <trkpt lat="28.6329202" lon="104.5747384"><ele>478.85</ele><time>2025-12-19T18:46:48.000Z</time></trkpt>
        <trkpt lat="28.6330202" lon="104.5747485"><ele>479.77</ele><time>2025-12-19T18:47:00.000Z</time></trkpt>
        <trkpt lat="28.6331146" lon="104.5747599"><ele>480.57</ele><time>2025-12-19T18:47:10.000Z</time></trkpt>
        <trkpt lat="28.6331871" lon="104.574696"><ele>481.2</ele><time>2025-12-19T18:47:24.000Z</time></trkpt>
        <trkpt lat="28.6332592" lon="104.574623"><ele>482.41</ele><time>2025-12-19T18:47:36.000Z</time></trkpt>
        <trkpt lat="28.6333426" lon="104.5745888"><ele>485.04</ele><time>2025-12-19T18:47:50.000Z</time></trkpt>
        <trkpt lat="28.633432" lon="104.5745837"><ele>487.33</ele><time>2025-12-19T18:48:04.000Z</time></trkpt>
        <trkpt lat="28.6335126" lon="104.574631"><ele>489.43</ele><time>2025-12-19T18:48:20.000Z</time></trkpt>
        <trkpt lat="28.6335792" lon="104.5747133"><ele>490.95</ele><time>2025-12-19T18:48:36.000Z</time></trkpt>
        <trkpt lat="28.6336489" lon="104.5747872"><ele>492.06</ele><time>2025-12-19T18:48:48.000Z</time></trkpt>
        <trkpt lat="28.633706" lon="104.5748805"><ele>494.2</ele><time>2025-12-19T18:49:02.000Z</time></trkpt>
        <trkpt lat="28.6337523" lon="104.5749839"><ele>496.33</ele><time>2025-12-19T18:49:16.000Z</time></trkpt>
        <trkpt lat="28.6338066" lon="104.5750782"><ele>497.48</ele><time>2025-12-19T18:49:26.000Z</time></trkpt>
        <trkpt lat="28.6338631" lon="104.5751657"><ele>498.29</ele><time>2025-12-19T18:49:36.000Z</time></trkpt>
        <trkpt lat="28.6339121" lon="104.575261"><ele>499.66</ele><time>2025-12-19T18:49:50.000Z</time></trkpt>
        <trkpt lat="28.6339586" lon="104.5753578"><ele>501.09</ele><time>2025-12-19T18:50:02.000Z</time></trkpt>
        <trkpt lat="28.634012" lon="104.5754517"><ele>502.04</ele><time>2025-12-19T18:50:14.000Z</time></trkpt>
        <trkpt lat="28.6340884" lon="104.5755105"><ele>503.49</ele><time>2025-12-19T18:50:26.000Z</time></trkpt>
        <trkpt lat="28.6341834" lon="104.575538"><ele>505.32</ele><time>2025-12-19T18:50:50.000Z</time></trkpt>
        <trkpt lat="28.634284" lon="104.575563"><ele>507.17</ele><time>2025-12-19T18:51:08.000Z</time></trkpt>
        <trkpt lat="28.6343502" lon="104.5756332"><ele>509.65</ele><time>2025-12-19T18:51:22.000Z</time></trkpt>
        <trkpt lat="28.6344131" lon="104.575719"><ele>511.71</ele><time>2025-12-19T18:52:52.000Z</time></trkpt>
        <trkpt lat="28.6344131" lon="104.575719"><ele>511.71</ele><time>2025-12-19T18:53:17.000Z</time></trkpt>
        <trkpt lat="28.6344131" lon="104.575719"><ele>511.71</ele><time>2025-12-19T18:53:29.000Z</time></trkpt>
        <trkpt lat="28.6344131" lon="104.575719"><ele>511.71</ele><time>2025-12-19T18:53:47.000Z</time></trkpt>
        <trkpt lat="28.6344131" lon="104.575719"><ele>511.71</ele><time>2025-12-19T18:53:57.000Z</time></trkpt>
        <trkpt lat="28.6344131" lon="104.575719"><ele>511.71</ele><time>2025-12-19T18:54:43.000Z</time></trkpt>
        <trkpt lat="28.6344888" lon="104.5757781"><ele>514.78</ele><time>2025-12-19T18:54:45.000Z</time></trkpt>
        <trkpt lat="28.6344888" lon="104.5757781"><ele>514.78</ele><time>2025-12-19T18:55:02.000Z</time></trkpt>
        <trkpt lat="28.6344888" lon="104.5757781"><ele>514.78</ele><time>2025-12-19T18:56:05.000Z</time></trkpt>
        <trkpt lat="28.6344888" lon="104.5757781"><ele>514.78</ele><time>2025-12-19T18:56:51.000Z</time></trkpt>
        <trkpt lat="28.6344888" lon="104.5757781"><ele>514.78</ele><time>2025-12-19T18:57:17.000Z</time></trkpt>
        <trkpt lat="28.6344542" lon="104.5758842"><ele>516.91</ele><time>2025-12-19T18:57:33.000Z</time></trkpt>
        <trkpt lat="28.6344542" lon="104.5758842"><ele>516.91</ele><time>2025-12-19T18:57:36.000Z</time></trkpt>
        <trkpt lat="28.6344542" lon="104.5758842"><ele>516.91</ele><time>2025-12-19T18:58:09.000Z</time></trkpt>
        <trkpt lat="28.6344912" lon="104.575984"><ele>518.32</ele><time>2025-12-19T18:58:21.000Z</time></trkpt>
        <trkpt lat="28.6344912" lon="104.575984"><ele>518.32</ele><time>2025-12-19T18:58:32.000Z</time></trkpt>
        <trkpt lat="28.6345694" lon="104.5760587"><ele>520.78</ele><time>2025-12-19T18:58:56.000Z</time></trkpt>
        <trkpt lat="28.6345694" lon="104.5760587"><ele>520.78</ele><time>2025-12-19T18:59:11.000Z</time></trkpt>
        <trkpt lat="28.6346596" lon="104.5760965"><ele>523.73</ele><time>2025-12-19T18:59:33.000Z</time></trkpt>
        <trkpt lat="28.6346596" lon="104.5760965"><ele>523.73</ele><time>2025-12-19T18:59:42.000Z</time></trkpt>
        <trkpt lat="28.6347122" lon="104.5760263"><ele>526.35</ele><time>2025-12-19T19:00:12.000Z</time></trkpt>
        <trkpt lat="28.6347744" lon="104.5760433"><ele>526.28</ele><time>2025-12-19T19:00:40.000Z</time></trkpt>
        <trkpt lat="28.6348393" lon="104.5761036"><ele>527.24</ele><time>2025-12-19T19:01:02.000Z</time></trkpt>
        <trkpt lat="28.6348963" lon="104.5761988"><ele>528.34</ele><time>2025-12-19T19:01:18.000Z</time></trkpt>
        <trkpt lat="28.6349418" lon="104.5763129"><ele>530.34</ele><time>2025-12-19T19:01:30.000Z</time></trkpt>
        <trkpt lat="28.6350008" lon="104.5764055"><ele>532.54</ele><time>2025-12-19T19:01:44.000Z</time></trkpt>
        <trkpt lat="28.6350841" lon="104.5764758"><ele>534.84</ele><time>2025-12-19T19:01:58.000Z</time></trkpt>
        <trkpt lat="28.6351769" lon="104.5765144"><ele>536.9</ele><time>2025-12-19T19:02:14.000Z</time></trkpt>
        <trkpt lat="28.6352763" lon="104.576546"><ele>538.54</ele><time>2025-12-19T19:02:30.000Z</time></trkpt>
        <trkpt lat="28.6353635" lon="104.5765867"><ele>541.42</ele><time>2025-12-19T19:02:44.000Z</time></trkpt>
        <trkpt lat="28.6354365" lon="104.5766457"><ele>543.46</ele><time>2025-12-19T19:02:56.000Z</time></trkpt>
        <trkpt lat="28.6355052" lon="104.5767131"><ele>545.4</ele><time>2025-12-19T19:03:08.000Z</time></trkpt>
        <trkpt lat="28.635575" lon="104.5767921"><ele>547.05</ele><time>2025-12-19T19:03:20.000Z</time></trkpt>
        <trkpt lat="28.6356471" lon="104.5768765"><ele>548.95</ele><time>2025-12-19T19:03:30.000Z</time></trkpt>
        <trkpt lat="28.6357057" lon="104.5769793"><ele>550.2</ele><time>2025-12-19T19:03:42.000Z</time></trkpt>
        <trkpt lat="28.6357677" lon="104.5770631"><ele>549.82</ele><time>2025-12-19T19:03:52.000Z</time></trkpt>
        <trkpt lat="28.6357833" lon="104.577161"><ele>549.23</ele><time>2025-12-19T19:04:04.000Z</time></trkpt>
        <trkpt lat="28.6357828" lon="104.5772816"><ele>547.74</ele><time>2025-12-19T19:04:30.000Z</time></trkpt>
        <trkpt lat="28.6357828" lon="104.5772816"><ele>547.74</ele><time>2025-12-19T19:05:13.000Z</time></trkpt>
        <trkpt lat="28.6357693" lon="104.5773917"><ele>545.79</ele><time>2025-12-19T19:05:17.000Z</time></trkpt>
        <trkpt lat="28.6357693" lon="104.5773917"><ele>545.79</ele><time>2025-12-19T19:05:18.000Z</time></trkpt>
        <trkpt lat="28.6358234" lon="104.5774533"><ele>543.28</ele><time>2025-12-19T19:05:30.000Z</time></trkpt>
        <trkpt lat="28.6359161" lon="104.5774665"><ele>543.35</ele><time>2025-12-19T19:05:48.000Z</time></trkpt>
        <trkpt lat="28.63602" lon="104.5774538"><ele>545.32</ele><time>2025-12-19T19:06:00.000Z</time></trkpt>
        <trkpt lat="28.6360931" lon="104.5774183"><ele>544.98</ele><time>2025-12-19T19:06:10.000Z</time></trkpt>
        <trkpt lat="28.6361837" lon="104.5773807"><ele>545</ele><time>2025-12-19T19:06:22.000Z</time></trkpt>
        <trkpt lat="28.6362813" lon="104.5773295"><ele>544.47</ele><time>2025-12-19T19:06:32.000Z</time></trkpt>
        <trkpt lat="28.6363755" lon="104.5773078"><ele>545.07</ele><time>2025-12-19T19:06:42.000Z</time></trkpt>
        <trkpt lat="28.6364753" lon="104.5772928"><ele>546.58</ele><time>2025-12-19T19:06:52.000Z</time></trkpt>
        <trkpt lat="28.6365796" lon="104.5772901"><ele>547.87</ele><time>2025-12-19T19:07:02.000Z</time></trkpt>
        <trkpt lat="28.63668" lon="104.5773204"><ele>548.5</ele><time>2025-12-19T19:07:12.000Z</time></trkpt>
        <trkpt lat="28.63674" lon="104.5774038"><ele>548.89</ele><time>2025-12-19T19:07:22.000Z</time></trkpt>
        <trkpt lat="28.6367523" lon="104.5775182"><ele>549.68</ele><time>2025-12-19T19:07:32.000Z</time></trkpt>
        <trkpt lat="28.6367537" lon="104.5776372"><ele>550.85</ele><time>2025-12-19T19:07:42.000Z</time></trkpt>
        <trkpt lat="28.6367349" lon="104.5777608"><ele>552.32</ele><time>2025-12-19T19:07:52.000Z</time></trkpt>
        <trkpt lat="28.6366683" lon="104.5778632"><ele>553.31</ele><time>2025-12-19T19:08:02.000Z</time></trkpt>
        <trkpt lat="28.6365842" lon="104.5779538"><ele>553.61</ele><time>2025-12-19T19:08:12.000Z</time></trkpt>
        <trkpt lat="28.6365118" lon="104.5780381"><ele>553.91</ele><time>2025-12-19T19:08:20.000Z</time></trkpt>
        <trkpt lat="28.6364535" lon="104.5781244"><ele>554.27</ele><time>2025-12-19T19:08:28.000Z</time></trkpt>
        <trkpt lat="28.6364294" lon="104.5782224"><ele>554.55</ele><time>2025-12-19T19:08:36.000Z</time></trkpt>
        <trkpt lat="28.6364846" lon="104.5782986"><ele>555.35</ele><time>2025-12-19T19:08:46.000Z</time></trkpt>
        <trkpt lat="28.6365829" lon="104.5783193"><ele>555.74</ele><time>2025-12-19T19:08:56.000Z</time></trkpt>
        <trkpt lat="28.6366901" lon="104.5783384"><ele>557.3</ele><time>2025-12-19T19:09:06.000Z</time></trkpt>
        <trkpt lat="28.6367719" lon="104.5783932"><ele>558.8</ele><time>2025-12-19T19:09:14.000Z</time></trkpt>
        <trkpt lat="28.6368102" lon="104.5785017"><ele>559.4</ele><time>2025-12-19T19:09:24.000Z</time></trkpt>
        <trkpt lat="28.6368176" lon="104.5786283"><ele>559.49</ele><time>2025-12-19T19:09:34.000Z</time></trkpt>
        <trkpt lat="28.6367833" lon="104.5787455"><ele>559.23</ele><time>2025-12-19T19:09:46.000Z</time></trkpt>
        <trkpt lat="28.6367243" lon="104.5788427"><ele>559.11</ele><time>2025-12-19T19:09:56.000Z</time></trkpt>
        <trkpt lat="28.6366535" lon="104.5789268"><ele>559.42</ele><time>2025-12-19T19:10:08.000Z</time></trkpt>
        <trkpt lat="28.6365779" lon="104.5790121"><ele>559.41</ele><time>2025-12-19T19:10:20.000Z</time></trkpt>
        <trkpt lat="28.6365116" lon="104.5791039"><ele>559.17</ele><time>2025-12-19T19:10:32.000Z</time></trkpt>
        <trkpt lat="28.6364893" lon="104.5792089"><ele>559.13</ele><time>2025-12-19T19:10:42.000Z</time></trkpt>
        <trkpt lat="28.6364966" lon="104.5793221"><ele>559.14</ele><time>2025-12-19T19:10:52.000Z</time></trkpt>
        <trkpt lat="28.6365159" lon="104.5794288"><ele>558.27</ele><time>2025-12-19T19:11:00.000Z</time></trkpt>
        <trkpt lat="28.6365776" lon="104.5795282"><ele>557.54</ele><time>2025-12-19T19:11:10.000Z</time></trkpt>
        <trkpt lat="28.6366527" lon="104.5796056"><ele>558.03</ele><time>2025-12-19T19:11:18.000Z</time></trkpt>
        <trkpt lat="28.6367227" lon="104.5796828"><ele>558.7</ele><time>2025-12-19T19:11:26.000Z</time></trkpt>
        <trkpt lat="28.6367714" lon="104.5797863"><ele>559.21</ele><time>2025-12-19T19:11:36.000Z</time></trkpt>
        <trkpt lat="28.636804" lon="104.5798988"><ele>559.22</ele><time>2025-12-19T19:11:46.000Z</time></trkpt>
        <trkpt lat="28.6368483" lon="104.5799984"><ele>559.23</ele><time>2025-12-19T19:11:54.000Z</time></trkpt>
        <trkpt lat="28.6369237" lon="104.5800494"><ele>559.27</ele><time>2025-12-19T19:12:04.000Z</time></trkpt>
        <trkpt lat="28.6370172" lon="104.5800325"><ele>560.46</ele><time>2025-12-19T19:12:16.000Z</time></trkpt>
        <trkpt lat="28.6371131" lon="104.5799651"><ele>560.6</ele><time>2025-12-19T19:12:26.000Z</time></trkpt>
        <trkpt lat="28.637151" lon="104.5799188"><ele>559.78</ele><time>2025-12-19T19:12:30.000Z</time></trkpt>
        <trkpt lat="28.6372181" lon="104.5798679"><ele>559.22</ele><time>2025-12-19T19:12:44.000Z</time></trkpt>
        <trkpt lat="28.637318" lon="104.5798327"><ele>558.74</ele><time>2025-12-19T19:12:54.000Z</time></trkpt>
        <trkpt lat="28.6374135" lon="104.5797935"><ele>559.27</ele><time>2025-12-19T19:13:02.000Z</time></trkpt>
        <trkpt lat="28.6375123" lon="104.5797619"><ele>559.43</ele><time>2025-12-19T19:13:10.000Z</time></trkpt>
        <trkpt lat="28.6376121" lon="104.5797486"><ele>559.15</ele><time>2025-12-19T19:13:18.000Z</time></trkpt>
        <trkpt lat="28.6377094" lon="104.5797377"><ele>559.16</ele><time>2025-12-19T19:13:26.000Z</time></trkpt>
        <trkpt lat="28.6378047" lon="104.5797804"><ele>559.23</ele><time>2025-12-19T19:13:36.000Z</time></trkpt>
        <trkpt lat="28.6378762" lon="104.5798562"><ele>559.43</ele><time>2025-12-19T19:13:44.000Z</time></trkpt>
        <trkpt lat="28.6379504" lon="104.5799281"><ele>559.16</ele><time>2025-12-19T19:13:52.000Z</time></trkpt>
        <trkpt lat="28.6380202" lon="104.5800136"><ele>558.75</ele><time>2025-12-19T19:14:02.000Z</time></trkpt>
        <trkpt lat="28.6380202" lon="104.5800136"><ele>558.75</ele><time>2025-12-19T19:14:19.000Z</time></trkpt>
        <trkpt lat="28.6380646" lon="104.5801083"><ele>558.67</ele><time>2025-12-19T19:14:21.000Z</time></trkpt>
        <trkpt lat="28.6380646" lon="104.5801083"><ele>558.67</ele><time>2025-12-19T19:14:28.000Z</time></trkpt>
        <trkpt lat="28.6381054" lon="104.5802018"><ele>558.53</ele><time>2025-12-19T19:14:36.000Z</time></trkpt>
        <trkpt lat="28.6381267" lon="104.5803189"><ele>558.47</ele><time>2025-12-19T19:14:46.000Z</time></trkpt>
        <trkpt lat="28.63811" lon="104.5804372"><ele>557.78</ele><time>2025-12-19T19:14:58.000Z</time></trkpt>
        <trkpt lat="28.6380634" lon="104.5805383"><ele>557.2</ele><time>2025-12-19T19:15:06.000Z</time></trkpt>
        <trkpt lat="28.6380513" lon="104.5806094"><ele>557.03</ele><time>2025-12-19T19:15:14.000Z</time></trkpt>
        <trkpt lat="28.6380513" lon="104.5806094"><ele>557.03</ele><time>2025-12-19T19:15:33.000Z</time></trkpt>
        <trkpt lat="28.6380202" lon="104.5806948"><ele>556.87</ele><time>2025-12-19T19:15:35.000Z</time></trkpt>
        <trkpt lat="28.6380202" lon="104.5806948"><ele>556.87</ele><time>2025-12-19T19:15:54.000Z</time></trkpt>
        <trkpt lat="28.6380202" lon="104.5806948"><ele>556.87</ele><time>2025-12-19T19:16:09.000Z</time></trkpt>
        <trkpt lat="28.6380228" lon="104.5808002"><ele>556.31</ele><time>2025-12-19T19:16:43.000Z</time></trkpt>
        <trkpt lat="28.6380228" lon="104.5808002"><ele>556.31</ele><time>2025-12-19T19:16:48.000Z</time></trkpt>
        <trkpt lat="28.6380516" lon="104.580902"><ele>556.15</ele><time>2025-12-19T19:17:28.000Z</time></trkpt>
        <trkpt lat="28.6381064" lon="104.5809957"><ele>555.87</ele><time>2025-12-19T19:17:42.000Z</time></trkpt>
        <trkpt lat="28.6381548" lon="104.5811045"><ele>556.78</ele><time>2025-12-19T19:18:04.000Z</time></trkpt>
        <trkpt lat="28.638227" lon="104.5811854"><ele>557.06</ele><time>2025-12-19T19:18:16.000Z</time></trkpt>
        <trkpt lat="28.6382893" lon="104.5812725"><ele>557.97</ele><time>2025-12-19T19:18:50.000Z</time></trkpt>
        <trkpt lat="28.6383388" lon="104.5813626"><ele>559.62</ele><time>2025-12-19T19:19:22.000Z</time></trkpt>
        <trkpt lat="28.6383388" lon="104.5813626"><ele>559.62</ele><time>2025-12-19T19:20:25.000Z</time></trkpt>
        <trkpt lat="28.6383053" lon="104.5812628"><ele>563.08</ele><time>2025-12-19T19:20:27.000Z</time></trkpt>
        <trkpt lat="28.6383053" lon="104.5812628"><ele>563.08</ele><time>2025-12-19T19:20:52.000Z</time></trkpt>
        <trkpt lat="28.6383053" lon="104.5812628"><ele>563.08</ele><time>2025-12-19T19:21:27.000Z</time></trkpt>
        <trkpt lat="28.638382" lon="104.5811976"><ele>565.32</ele><time>2025-12-19T19:21:29.000Z</time></trkpt>
        <trkpt lat="28.638382" lon="104.5811976"><ele>565.32</ele><time>2025-12-19T19:21:30.000Z</time></trkpt>
        <trkpt lat="28.6384689" lon="104.5811609"><ele>563.52</ele><time>2025-12-19T19:21:40.000Z</time></trkpt>
        <trkpt lat="28.6385602" lon="104.581183"><ele>563.63</ele><time>2025-12-19T19:21:48.000Z</time></trkpt>
        <trkpt lat="28.6386549" lon="104.5812216"><ele>563.5</ele><time>2025-12-19T19:21:56.000Z</time></trkpt>
        <trkpt lat="28.6387571" lon="104.5812671"><ele>563.66</ele><time>2025-12-19T19:22:06.000Z</time></trkpt>
        <trkpt lat="28.6388514" lon="104.5813035"><ele>564.62</ele><time>2025-12-19T19:22:14.000Z</time></trkpt>
        <trkpt lat="28.6389461" lon="104.5813242"><ele>565.12</ele><time>2025-12-19T19:22:24.000Z</time></trkpt>
        <trkpt lat="28.6390506" lon="104.5813309"><ele>565.76</ele><time>2025-12-19T19:22:34.000Z</time></trkpt>
        <trkpt lat="28.6391491" lon="104.5813368"><ele>565.9</ele><time>2025-12-19T19:22:44.000Z</time></trkpt>
        <trkpt lat="28.6392465" lon="104.5813446"><ele>567.14</ele><time>2025-12-19T19:22:56.000Z</time></trkpt>
        <trkpt lat="28.6393379" lon="104.5813821"><ele>569.37</ele><time>2025-12-19T19:23:10.000Z</time></trkpt>
        <trkpt lat="28.6394303" lon="104.5814025"><ele>571.35</ele><time>2025-12-19T19:23:24.000Z</time></trkpt>
        <trkpt lat="28.6395235" lon="104.5814284"><ele>572.47</ele><time>2025-12-19T19:23:34.000Z</time></trkpt>
        <trkpt lat="28.6396152" lon="104.5814414"><ele>573.53</ele><time>2025-12-19T19:23:44.000Z</time></trkpt>
        <trkpt lat="28.6397008" lon="104.581477"><ele>575.26</ele><time>2025-12-19T19:23:54.000Z</time></trkpt>
        <trkpt lat="28.6397638" lon="104.5815456"><ele>577.83</ele><time>2025-12-19T19:24:08.000Z</time></trkpt>
        <trkpt lat="28.6398351" lon="104.5816155"><ele>577.57</ele><time>2025-12-19T19:24:58.000Z</time></trkpt>
        <trkpt lat="28.6398351" lon="104.5816155"><ele>577.57</ele><time>2025-12-19T19:25:15.000Z</time></trkpt>
        <trkpt lat="28.6399049" lon="104.5817104"><ele>577.97</ele><time>2025-12-19T19:25:29.000Z</time></trkpt>
        <trkpt lat="28.6399049" lon="104.5817104"><ele>577.97</ele><time>2025-12-19T19:26:04.000Z</time></trkpt>
        <trkpt lat="28.6400102" lon="104.5817049"><ele>578.91</ele><time>2025-12-19T19:26:14.000Z</time></trkpt>
        <trkpt lat="28.6401064" lon="104.5817426"><ele>579.88</ele><time>2025-12-19T19:26:24.000Z</time></trkpt>
        <trkpt lat="28.6401584" lon="104.5818261"><ele>581.07</ele><time>2025-12-19T19:26:34.000Z</time></trkpt>
        <trkpt lat="28.6402088" lon="104.5819144"><ele>582.15</ele><time>2025-12-19T19:26:46.000Z</time></trkpt>
        <trkpt lat="28.6402943" lon="104.5819422"><ele>583.32</ele><time>2025-12-19T19:26:58.000Z</time></trkpt>
        <trkpt lat="28.6403892" lon="104.5819281"><ele>583.08</ele><time>2025-12-19T19:27:08.000Z</time></trkpt>
        <trkpt lat="28.6404249" lon="104.581915"><ele>583.89</ele><time>2025-12-19T19:27:14.000Z</time></trkpt>
        <trkpt lat="28.6404975" lon="104.5819159"><ele>584.77</ele><time>2025-12-19T19:27:26.000Z</time></trkpt>
        <trkpt lat="28.6405995" lon="104.5819055"><ele>585.43</ele><time>2025-12-19T19:27:34.000Z</time></trkpt>
        <trkpt lat="28.6406709" lon="104.581914"><ele>587.57</ele><time>2025-12-19T19:27:42.000Z</time></trkpt>
        <trkpt lat="28.6406709" lon="104.581914"><ele>587.57</ele><time>2025-12-19T19:28:37.000Z</time></trkpt>
        <trkpt lat="28.6406709" lon="104.581914"><ele>587.57</ele><time>2025-12-19T19:28:39.000Z</time></trkpt>
        <trkpt lat="28.6406709" lon="104.581914"><ele>587.57</ele><time>2025-12-19T19:29:07.000Z</time></trkpt>
        <trkpt lat="28.6406709" lon="104.581914"><ele>587.57</ele><time>2025-12-19T19:29:17.000Z</time></trkpt>
        <trkpt lat="28.6406709" lon="104.581914"><ele>587.57</ele><time>2025-12-19T19:29:33.000Z</time></trkpt>
        <trkpt lat="28.6407262" lon="104.5819966"><ele>590.54</ele><time>2025-12-19T19:29:43.000Z</time></trkpt>
        <trkpt lat="28.6407262" lon="104.5819966"><ele>590.54</ele><time>2025-12-19T19:29:44.000Z</time></trkpt>
        <trkpt lat="28.6407295" lon="104.582111"><ele>591.12</ele><time>2025-12-19T19:30:22.000Z</time></trkpt>
        <trkpt lat="28.6407369" lon="104.5822167"><ele>592.22</ele><time>2025-12-19T19:30:40.000Z</time></trkpt>
        <trkpt lat="28.6407945" lon="104.5822984"><ele>592.35</ele><time>2025-12-19T19:30:48.000Z</time></trkpt>
        <trkpt lat="28.6408075" lon="104.5823987"><ele>592.52</ele><time>2025-12-19T19:30:56.000Z</time></trkpt>
        <trkpt lat="28.6407804" lon="104.5824891"><ele>592.39</ele><time>2025-12-19T19:31:06.000Z</time></trkpt>
        <trkpt lat="28.6407005" lon="104.5825624"><ele>592.84</ele><time>2025-12-19T19:31:20.000Z</time></trkpt>
        <trkpt lat="28.6406256" lon="104.5826372"><ele>593.4</ele><time>2025-12-19T19:31:30.000Z</time></trkpt>
        <trkpt lat="28.6405784" lon="104.5827301"><ele>594.78</ele><time>2025-12-19T19:31:52.000Z</time></trkpt>
        <trkpt lat="28.6405784" lon="104.5827301"><ele>594.78</ele><time>2025-12-19T19:32:43.000Z</time></trkpt>
        <trkpt lat="28.6405784" lon="104.5827301"><ele>594.78</ele><time>2025-12-19T19:32:55.000Z</time></trkpt>
        <trkpt lat="28.6405784" lon="104.5827301"><ele>594.78</ele><time>2025-12-19T19:35:07.000Z</time></trkpt>
        <trkpt lat="28.6405758" lon="104.582844"><ele>594.22</ele><time>2025-12-19T19:35:31.000Z</time></trkpt>
        <trkpt lat="28.6405758" lon="104.582844"><ele>594.22</ele><time>2025-12-19T19:35:44.000Z</time></trkpt>
        <trkpt lat="28.6404925" lon="104.5827911"><ele>593.84</ele><time>2025-12-19T19:36:32.000Z</time></trkpt>
        <trkpt lat="28.6404048" lon="104.5827582"><ele>597.85</ele><time>2025-12-19T19:37:12.000Z</time></trkpt>
        <trkpt lat="28.6404048" lon="104.5827582"><ele>597.85</ele><time>2025-12-19T19:37:31.000Z</time></trkpt>
        <trkpt lat="28.6403094" lon="104.5827605"><ele>602.39</ele><time>2025-12-19T19:38:03.000Z</time></trkpt>
        <trkpt lat="28.6403094" lon="104.5827605"><ele>602.39</ele><time>2025-12-19T19:38:40.000Z</time></trkpt>
        <trkpt lat="28.6402923" lon="104.5828642"><ele>606.85</ele><time>2025-12-19T19:38:52.000Z</time></trkpt>
        <trkpt lat="28.6402751" lon="104.5829713"><ele>609.66</ele><time>2025-12-19T19:39:22.000Z</time></trkpt>
        <trkpt lat="28.6402199" lon="104.5830545"><ele>612.84</ele><time>2025-12-19T19:39:34.000Z</time></trkpt>
        <trkpt lat="28.6402238" lon="104.583155"><ele>615.3</ele><time>2025-12-19T19:39:48.000Z</time></trkpt>
        <trkpt lat="28.6402978" lon="104.5831966"><ele>616.97</ele><time>2025-12-19T19:40:04.000Z</time></trkpt>
        <trkpt lat="28.6402978" lon="104.5831966"><ele>616.97</ele><time>2025-12-19T19:40:49.000Z</time></trkpt>
        <trkpt lat="28.6403813" lon="104.5832485"><ele>617.94</ele><time>2025-12-19T19:40:51.000Z</time></trkpt>
        <trkpt lat="28.6403813" lon="104.5832485"><ele>617.94</ele><time>2025-12-19T19:40:54.000Z</time></trkpt>
        <trkpt lat="28.6403813" lon="104.5832485"><ele>617.94</ele><time>2025-12-19T19:41:23.000Z</time></trkpt>
        <trkpt lat="28.6403028" lon="104.5832716"><ele>621.49</ele><time>2025-12-19T19:41:45.000Z</time></trkpt>
        <trkpt lat="28.6403028" lon="104.5832716"><ele>621.49</ele><time>2025-12-19T19:41:56.000Z</time></trkpt>
        <trkpt lat="28.6402088" lon="104.5833033"><ele>623.81</ele><time>2025-12-19T19:42:06.000Z</time></trkpt>
        <trkpt lat="28.6401172" lon="104.5833178"><ele>626.02</ele><time>2025-12-19T19:42:16.000Z</time></trkpt>
        <trkpt lat="28.6400263" lon="104.5833422"><ele>626.87</ele><time>2025-12-19T19:42:32.000Z</time></trkpt>
        <trkpt lat="28.6399442" lon="104.5833889"><ele>628.68</ele><time>2025-12-19T19:42:54.000Z</time></trkpt>
        <trkpt lat="28.6398522" lon="104.5834241"><ele>630.93</ele><time>2025-12-19T19:43:14.000Z</time></trkpt>
        <trkpt lat="28.6397744" lon="104.5834857"><ele>633.15</ele><time>2025-12-19T19:43:44.000Z</time></trkpt>
        <trkpt lat="28.6396878" lon="104.5835154"><ele>635.53</ele><time>2025-12-19T19:43:56.000Z</time></trkpt>
        <trkpt lat="28.6396007" lon="104.5835426"><ele>636.74</ele><time>2025-12-19T19:44:18.000Z</time></trkpt>
        <trkpt lat="28.6396007" lon="104.5835426"><ele>636.74</ele><time>2025-12-19T19:44:49.000Z</time></trkpt>
        <trkpt lat="28.639574" lon="104.583625"><ele>638.12</ele><time>2025-12-19T19:44:57.000Z</time></trkpt>
        <trkpt lat="28.639574" lon="104.583625"><ele>638.12</ele><time>2025-12-19T19:45:08.000Z</time></trkpt>
        <trkpt lat="28.6395046" lon="104.583661"><ele>639.5</ele><time>2025-12-19T19:45:20.000Z</time></trkpt>
        <trkpt lat="28.6394168" lon="104.5836905"><ele>641.47</ele><time>2025-12-19T19:45:30.000Z</time></trkpt>
        <trkpt lat="28.6394168" lon="104.5836905"><ele>641.47</ele><time>2025-12-19T19:45:45.000Z</time></trkpt>
        <trkpt lat="28.6393209" lon="104.5837072"><ele>642.63</ele><time>2025-12-19T19:45:57.000Z</time></trkpt>
        <trkpt lat="28.6393209" lon="104.5837072"><ele>642.63</ele><time>2025-12-19T19:46:46.000Z</time></trkpt>
        <trkpt lat="28.6392158" lon="104.583693"><ele>643.62</ele><time>2025-12-19T19:46:58.000Z</time></trkpt>
        <trkpt lat="28.6391192" lon="104.5837013"><ele>644.97</ele><time>2025-12-19T19:47:10.000Z</time></trkpt>
        <trkpt lat="28.6390463" lon="104.5837694"><ele>646.59</ele><time>2025-12-19T19:47:24.000Z</time></trkpt>
        <trkpt lat="28.6389764" lon="104.5838421"><ele>647.74</ele><time>2025-12-19T19:47:32.000Z</time></trkpt>
        <trkpt lat="28.6388872" lon="104.5838993"><ele>649.14</ele><time>2025-12-19T19:47:42.000Z</time></trkpt>
        <trkpt lat="28.6388415" lon="104.5839987"><ele>650.6</ele><time>2025-12-19T19:47:52.000Z</time></trkpt>
        <trkpt lat="28.6388285" lon="104.5840184"><ele>650.94</ele><time>2025-12-19T19:47:54.000Z</time></trkpt>
        <trkpt lat="28.6387727" lon="104.5839668"><ele>651.01</ele><time>2025-12-19T19:48:14.000Z</time></trkpt>
        <trkpt lat="28.6386806" lon="104.5839579"><ele>651.41</ele><time>2025-12-19T19:48:32.000Z</time></trkpt>
        <trkpt lat="28.6385834" lon="104.5839593"><ele>651.44</ele><time>2025-12-19T19:48:58.000Z</time></trkpt>
        <trkpt lat="28.6384835" lon="104.5839652"><ele>652.8</ele><time>2025-12-19T19:49:14.000Z</time></trkpt>
        <trkpt lat="28.638387" lon="104.5839705"><ele>656.14</ele><time>2025-12-19T19:49:32.000Z</time></trkpt>
        <trkpt lat="28.6383139" lon="104.5840339"><ele>659.02</ele><time>2025-12-19T19:49:46.000Z</time></trkpt>
        <trkpt lat="28.6382351" lon="104.5841136"><ele>662.35</ele><time>2025-12-19T19:50:00.000Z</time></trkpt>
        <trkpt lat="28.6381435" lon="104.584175"><ele>664.77</ele><time>2025-12-19T19:50:14.000Z</time></trkpt>
        <trkpt lat="28.6380492" lon="104.5842318"><ele>667.53</ele><time>2025-12-19T19:50:28.000Z</time></trkpt>
        <trkpt lat="28.6379577" lon="104.5842738"><ele>669.27</ele><time>2025-12-19T19:50:38.000Z</time></trkpt>
        <trkpt lat="28.6378632" lon="104.5843092"><ele>670.27</ele><time>2025-12-19T19:50:50.000Z</time></trkpt>
        <trkpt lat="28.6377697" lon="104.5843536"><ele>670.87</ele><time>2025-12-19T19:51:10.000Z</time></trkpt>
        <trkpt lat="28.6377434" lon="104.5843643"><ele>671.83</ele><time>2025-12-19T19:51:12.000Z</time></trkpt>
        <trkpt lat="28.6377434" lon="104.5843643"><ele>671.83</ele><time>2025-12-19T19:52:03.000Z</time></trkpt>
        <trkpt lat="28.6377434" lon="104.5843643"><ele>671.83</ele><time>2025-12-19T19:52:05.000Z</time></trkpt>
        <trkpt lat="28.6377434" lon="104.5843643"><ele>671.83</ele><time>2025-12-19T19:52:31.000Z</time></trkpt>
        <trkpt lat="28.637664" lon="104.5843143"><ele>672.29</ele><time>2025-12-19T19:53:03.000Z</time></trkpt>
        <trkpt lat="28.637664" lon="104.5843143"><ele>672.29</ele><time>2025-12-19T19:53:36.000Z</time></trkpt>
        <trkpt lat="28.6375617" lon="104.5842915"><ele>671.78</ele><time>2025-12-19T19:53:48.000Z</time></trkpt>
        <trkpt lat="28.6374655" lon="104.5842907"><ele>671.98</ele><time>2025-12-19T19:54:00.000Z</time></trkpt>
        <trkpt lat="28.6373783" lon="104.5842607"><ele>672.43</ele><time>2025-12-19T19:54:12.000Z</time></trkpt>
        <trkpt lat="28.6373124" lon="104.5841931"><ele>673.76</ele><time>2025-12-19T19:54:48.000Z</time></trkpt>
        <trkpt lat="28.6373124" lon="104.5841931"><ele>673.76</ele><time>2025-12-19T19:55:51.000Z</time></trkpt>
        <trkpt lat="28.6373124" lon="104.5841931"><ele>673.76</ele><time>2025-12-19T19:56:05.000Z</time></trkpt>
        <trkpt lat="28.6373124" lon="104.5841931"><ele>673.76</ele><time>2025-12-19T19:56:29.000Z</time></trkpt>
        <trkpt lat="28.6373124" lon="104.5841931"><ele>673.76</ele><time>2025-12-19T19:56:41.000Z</time></trkpt>
        <trkpt lat="28.6373124" lon="104.5841931"><ele>673.76</ele><time>2025-12-19T19:56:59.000Z</time></trkpt>
        <trkpt lat="28.6373124" lon="104.5841931"><ele>673.76</ele><time>2025-12-19T19:58:53.000Z</time></trkpt>
        <trkpt lat="28.6373124" lon="104.5841931"><ele>673.76</ele><time>2025-12-19T19:59:07.000Z</time></trkpt>
        <trkpt lat="28.6373124" lon="104.5841931"><ele>673.76</ele><time>2025-12-19T19:59:31.000Z</time></trkpt>
        <trkpt lat="28.6373124" lon="104.5841931"><ele>673.76</ele><time>2025-12-19T19:59:49.000Z</time></trkpt>
        <trkpt lat="28.6373124" lon="104.5841931"><ele>673.76</ele><time>2025-12-19T19:59:55.000Z</time></trkpt>
        <trkpt lat="28.6373124" lon="104.5841931"><ele>673.76</ele><time>2025-12-19T20:00:19.000Z</time></trkpt>
        <trkpt lat="28.6373124" lon="104.5841931"><ele>673.76</ele><time>2025-12-19T20:01:13.000Z</time></trkpt>
        <trkpt lat="28.6373124" lon="104.5841931"><ele>673.76</ele><time>2025-12-19T20:01:29.000Z</time></trkpt>
        <trkpt lat="28.6373124" lon="104.5841931"><ele>673.76</ele><time>2025-12-19T20:01:43.000Z</time></trkpt>
        <trkpt lat="28.6373124" lon="104.5841931"><ele>673.76</ele><time>2025-12-19T20:02:29.000Z</time></trkpt>
        <trkpt lat="28.6373124" lon="104.5841931"><ele>673.76</ele><time>2025-12-19T20:02:41.000Z</time></trkpt>
        <trkpt lat="28.6373124" lon="104.5841931"><ele>673.76</ele><time>2025-12-19T20:02:57.000Z</time></trkpt>
        <trkpt lat="28.6373124" lon="104.5841931"><ele>673.76</ele><time>2025-12-19T20:03:03.000Z</time></trkpt>
        <trkpt lat="28.6373124" lon="104.5841931"><ele>673.76</ele><time>2025-12-19T20:03:17.000Z</time></trkpt>
        <trkpt lat="28.6373124" lon="104.5841931"><ele>673.76</ele><time>2025-12-19T20:04:03.000Z</time></trkpt>
        <trkpt lat="28.6373124" lon="104.5841931"><ele>673.76</ele><time>2025-12-19T20:04:17.000Z</time></trkpt>
        <trkpt lat="28.6373124" lon="104.5841931"><ele>673.76</ele><time>2025-12-19T20:04:19.000Z</time></trkpt>
        <trkpt lat="28.6373124" lon="104.5841931"><ele>673.76</ele><time>2025-12-19T20:04:43.000Z</time></trkpt>
        <trkpt lat="28.6373124" lon="104.5841931"><ele>673.76</ele><time>2025-12-19T20:04:53.000Z</time></trkpt>
        <trkpt lat="28.6373124" lon="104.5841931"><ele>673.76</ele><time>2025-12-19T20:05:23.000Z</time></trkpt>
        <trkpt lat="28.6373124" lon="104.5841931"><ele>673.76</ele><time>2025-12-19T20:06:01.000Z</time></trkpt>
        <trkpt lat="28.6373124" lon="104.5841931"><ele>673.76</ele><time>2025-12-19T20:06:33.000Z</time></trkpt>
        <trkpt lat="28.6373124" lon="104.5841931"><ele>673.76</ele><time>2025-12-19T20:06:45.000Z</time></trkpt>
        <trkpt lat="28.6373124" lon="104.5841931"><ele>673.76</ele><time>2025-12-19T20:07:15.000Z</time></trkpt>
        <trkpt lat="28.6373124" lon="104.5841931"><ele>673.76</ele><time>2025-12-19T20:08:15.000Z</time></trkpt>
        <trkpt lat="28.6373124" lon="104.5841931"><ele>673.76</ele><time>2025-12-19T20:08:31.000Z</time></trkpt>
        <trkpt lat="28.6373124" lon="104.5841931"><ele>673.76</ele><time>2025-12-19T20:08:39.000Z</time></trkpt>
        <trkpt lat="28.6373124" lon="104.5841931"><ele>673.76</ele><time>2025-12-19T20:08:57.000Z</time></trkpt>
        <trkpt lat="28.6373124" lon="104.5841931"><ele>673.76</ele><time>2025-12-19T20:10:09.000Z</time></trkpt>
        <trkpt lat="28.6373124" lon="104.5841931"><ele>673.76</ele><time>2025-12-19T20:10:39.000Z</time></trkpt>
        <trkpt lat="28.6373124" lon="104.5841931"><ele>673.76</ele><time>2025-12-19T20:10:55.000Z</time></trkpt>
        <trkpt lat="28.6373124" lon="104.5841931"><ele>673.76</ele><time>2025-12-19T20:11:43.000Z</time></trkpt>
        <trkpt lat="28.6373124" lon="104.5841931"><ele>673.76</ele><time>2025-12-19T20:11:59.000Z</time></trkpt>
        <trkpt lat="28.6373124" lon="104.5841931"><ele>673.76</ele><time>2025-12-19T20:12:15.000Z</time></trkpt>
        <trkpt lat="28.6373124" lon="104.5841931"><ele>673.76</ele><time>2025-12-19T20:12:29.000Z</time></trkpt>
        <trkpt lat="28.6373124" lon="104.5841931"><ele>673.76</ele><time>2025-12-19T20:12:45.000Z</time></trkpt>
        <trkpt lat="28.6373124" lon="104.5841931"><ele>673.76</ele><time>2025-12-19T20:13:01.000Z</time></trkpt>
        <trkpt lat="28.6373124" lon="104.5841931"><ele>673.76</ele><time>2025-12-19T20:13:59.000Z</time></trkpt>
        <trkpt lat="28.6373124" lon="104.5841931"><ele>673.76</ele><time>2025-12-19T20:14:07.000Z</time></trkpt>
        <trkpt lat="28.6373124" lon="104.5841931"><ele>673.76</ele><time>2025-12-19T20:14:25.000Z</time></trkpt>
        <trkpt lat="28.6373124" lon="104.5841931"><ele>673.76</ele><time>2025-12-19T20:16:43.000Z</time></trkpt>
        <trkpt lat="28.6373124" lon="104.5841931"><ele>673.76</ele><time>2025-12-19T20:16:59.000Z</time></trkpt>
        <trkpt lat="28.6373124" lon="104.5841931"><ele>673.76</ele><time>2025-12-19T20:19:47.000Z</time></trkpt>
        <trkpt lat="28.6373124" lon="104.5841931"><ele>673.76</ele><time>2025-12-19T20:20:01.000Z</time></trkpt>
        <trkpt lat="28.6373124" lon="104.5841931"><ele>673.76</ele><time>2025-12-19T20:20:11.000Z</time></trkpt>
        <trkpt lat="28.6373124" lon="104.5841931"><ele>673.76</ele><time>2025-12-19T20:20:35.000Z</time></trkpt>
        <trkpt lat="28.6373124" lon="104.5841931"><ele>673.76</ele><time>2025-12-19T20:21:11.000Z</time></trkpt>
        <trkpt lat="28.6373124" lon="104.5841931"><ele>673.76</ele><time>2025-12-19T20:21:27.000Z</time></trkpt>
        <trkpt lat="28.6373641" lon="104.5840676"><ele>676.7</ele><time>2025-12-19T20:21:57.000Z</time></trkpt>
        <trkpt lat="28.6373641" lon="104.5840676"><ele>676.7</ele><time>2025-12-19T20:22:20.000Z</time></trkpt>
        <trkpt lat="28.6373453" lon="104.5839624"><ele>677.45</ele><time>2025-12-19T20:22:28.000Z</time></trkpt>
        <trkpt lat="28.6373109" lon="104.5838592"><ele>677.09</ele><time>2025-12-19T20:22:44.000Z</time></trkpt>
        <trkpt lat="28.6372579" lon="104.5837733"><ele>678.44</ele><time>2025-12-19T20:22:58.000Z</time></trkpt>
        <trkpt lat="28.6372739" lon="104.5836774"><ele>681.06</ele><time>2025-12-19T20:23:14.000Z</time></trkpt>
        <trkpt lat="28.6372867" lon="104.5835653"><ele>682.64</ele><time>2025-12-19T20:23:38.000Z</time></trkpt>
        <trkpt lat="28.6373141" lon="104.5834936"><ele>685.3</ele><time>2025-12-19T20:23:54.000Z</time></trkpt>
        <trkpt lat="28.6373529" lon="104.5834009"><ele>685.67</ele><time>2025-12-19T20:24:12.000Z</time></trkpt>
        <trkpt lat="28.6374026" lon="104.5833047"><ele>686.43</ele><time>2025-12-19T20:24:32.000Z</time></trkpt>
        <trkpt lat="28.6374389" lon="104.5832041"><ele>686.89</ele><time>2025-12-19T20:24:50.000Z</time></trkpt>
        <trkpt lat="28.6374501" lon="104.5831004"><ele>686.08</ele><time>2025-12-19T20:25:26.000Z</time></trkpt>
        <trkpt lat="28.6374501" lon="104.5831004"><ele>686.08</ele><time>2025-12-19T20:25:33.000Z</time></trkpt>
        <trkpt lat="28.6374469" lon="104.5829907"><ele>687.35</ele><time>2025-12-19T20:25:39.000Z</time></trkpt>
        <trkpt lat="28.6374469" lon="104.5829907"><ele>687.35</ele><time>2025-12-19T20:25:48.000Z</time></trkpt>
        <trkpt lat="28.637467" lon="104.5828882"><ele>687</ele><time>2025-12-19T20:25:56.000Z</time></trkpt>
        <trkpt lat="28.6374626" lon="104.5827538"><ele>686.4</ele><time>2025-12-19T20:26:04.000Z</time></trkpt>
        <trkpt lat="28.6374017" lon="104.5826731"><ele>687.56</ele><time>2025-12-19T20:26:16.000Z</time></trkpt>
        <trkpt lat="28.6372924" lon="104.5826758"><ele>687.73</ele><time>2025-12-19T20:26:50.000Z</time></trkpt>
        <trkpt lat="28.6371896" lon="104.5827103"><ele>690.11</ele><time>2025-12-19T20:27:00.000Z</time></trkpt>
        <trkpt lat="28.6370913" lon="104.5827307"><ele>690.79</ele><time>2025-12-19T20:27:16.000Z</time></trkpt>
        <trkpt lat="28.6369946" lon="104.5827252"><ele>690.39</ele><time>2025-12-19T20:27:28.000Z</time></trkpt>
        <trkpt lat="28.6368927" lon="104.5827466"><ele>688.88</ele><time>2025-12-19T20:27:42.000Z</time></trkpt>
        <trkpt lat="28.6368108" lon="104.5828184"><ele>688.02</ele><time>2025-12-19T20:27:58.000Z</time></trkpt>
        <trkpt lat="28.6367352" lon="104.5828971"><ele>688.85</ele><time>2025-12-19T20:28:58.000Z</time></trkpt>
        <trkpt lat="28.6366456" lon="104.5829409"><ele>688.12</ele><time>2025-12-19T20:29:12.000Z</time></trkpt>
        <trkpt lat="28.6365498" lon="104.5829269"><ele>686.54</ele><time>2025-12-19T20:29:24.000Z</time></trkpt>
        <trkpt lat="28.6364516" lon="104.58293"><ele>684.76</ele><time>2025-12-19T20:29:34.000Z</time></trkpt>
        <trkpt lat="28.6363593" lon="104.5829559"><ele>683.79</ele><time>2025-12-19T20:29:46.000Z</time></trkpt>
        <trkpt lat="28.6362592" lon="104.5829633"><ele>682.97</ele><time>2025-12-19T20:29:56.000Z</time></trkpt>
        <trkpt lat="28.6361688" lon="104.5829205"><ele>682.06</ele><time>2025-12-19T20:30:06.000Z</time></trkpt>
        <trkpt lat="28.6360778" lon="104.5828864"><ele>681.41</ele><time>2025-12-19T20:30:16.000Z</time></trkpt>
        <trkpt lat="28.6359853" lon="104.5828637"><ele>680.05</ele><time>2025-12-19T20:30:28.000Z</time></trkpt>
        <trkpt lat="28.6358939" lon="104.5828218"><ele>677.31</ele><time>2025-12-19T20:30:38.000Z</time></trkpt>
        <trkpt lat="28.6358292" lon="104.582743"><ele>675.7</ele><time>2025-12-19T20:30:50.000Z</time></trkpt>
        <trkpt lat="28.6357932" lon="104.5826345"><ele>675.19</ele><time>2025-12-19T20:31:03.000Z</time></trkpt>
        <trkpt lat="28.6357304" lon="104.5825533"><ele>674.21</ele><time>2025-12-19T20:31:18.000Z</time></trkpt>
        <trkpt lat="28.6357256" lon="104.5824562"><ele>675.27</ele><time>2025-12-19T20:31:34.000Z</time></trkpt>
        <trkpt lat="28.6357215" lon="104.5823482"><ele>678.28</ele><time>2025-12-19T20:31:58.000Z</time></trkpt>
        <trkpt lat="28.635709" lon="104.5822382"><ele>679.98</ele><time>2025-12-19T20:32:24.000Z</time></trkpt>
        <trkpt lat="28.6356774" lon="104.5821364"><ele>682.43</ele><time>2025-12-19T20:32:36.000Z</time></trkpt>
        <trkpt lat="28.635659" lon="104.5820296"><ele>685.41</ele><time>2025-12-19T20:32:48.000Z</time></trkpt>
        <trkpt lat="28.6356714" lon="104.5819186"><ele>687.57</ele><time>2025-12-19T20:33:00.000Z</time></trkpt>
        <trkpt lat="28.6356964" lon="104.5818158"><ele>688.61</ele><time>2025-12-19T20:33:08.000Z</time></trkpt>
        <trkpt lat="28.6357227" lon="104.5817139"><ele>690.4</ele><time>2025-12-19T20:33:28.000Z</time></trkpt>
        <trkpt lat="28.6357882" lon="104.5816421"><ele>690.48</ele><time>2025-12-19T20:33:42.000Z</time></trkpt>
        <trkpt lat="28.6357454" lon="104.5815816"><ele>690.21</ele><time>2025-12-19T20:34:00.000Z</time></trkpt>
        <trkpt lat="28.6356634" lon="104.5816183"><ele>690.48</ele><time>2025-12-19T20:34:10.000Z</time></trkpt>
        <trkpt lat="28.63559" lon="104.5817086"><ele>691.39</ele><time>2025-12-19T20:34:24.000Z</time></trkpt>
        <trkpt lat="28.6354985" lon="104.5817604"><ele>693</ele><time>2025-12-19T20:34:36.000Z</time></trkpt>
        <trkpt lat="28.6353953" lon="104.5817572"><ele>693.79</ele><time>2025-12-19T20:34:50.000Z</time></trkpt>
        <trkpt lat="28.6353144" lon="104.5816942"><ele>695.24</ele><time>2025-12-19T20:35:00.000Z</time></trkpt>
        <trkpt lat="28.6352262" lon="104.5816523"><ele>696.54</ele><time>2025-12-19T20:35:14.000Z</time></trkpt>
        <trkpt lat="28.6351347" lon="104.581632"><ele>697.03</ele><time>2025-12-19T20:35:28.000Z</time></trkpt>
        <trkpt lat="28.6350434" lon="104.5816061"><ele>696.75</ele><time>2025-12-19T20:35:50.000Z</time></trkpt>
        <trkpt lat="28.6350144" lon="104.5815143"><ele>696.76</ele><time>2025-12-19T20:36:06.000Z</time></trkpt>
        <trkpt lat="28.6349935" lon="104.5813959"><ele>697.99</ele><time>2025-12-19T20:36:28.000Z</time></trkpt>
        <trkpt lat="28.6350136" lon="104.5812811"><ele>698.07</ele><time>2025-12-19T20:36:40.000Z</time></trkpt>
        <trkpt lat="28.6350803" lon="104.5811785"><ele>696.63</ele><time>2025-12-19T20:36:52.000Z</time></trkpt>
        <trkpt lat="28.6351244" lon="104.5810764"><ele>695.58</ele><time>2025-12-19T20:37:06.000Z</time></trkpt>
        <trkpt lat="28.6350885" lon="104.5809911"><ele>695.48</ele><time>2025-12-19T20:37:24.000Z</time></trkpt>
        <trkpt lat="28.6350154" lon="104.5809231"><ele>697.61</ele><time>2025-12-19T20:37:36.000Z</time></trkpt>
        <trkpt lat="28.6350154" lon="104.5809231"><ele>697.61</ele><time>2025-12-19T20:38:05.000Z</time></trkpt>
        <trkpt lat="28.6349335" lon="104.5808586"><ele>699.93</ele><time>2025-12-19T20:38:11.000Z</time></trkpt>
        <trkpt lat="28.6349335" lon="104.5808586"><ele>699.93</ele><time>2025-12-19T20:38:18.000Z</time></trkpt>
        <trkpt lat="28.634843" lon="104.5808152"><ele>701.39</ele><time>2025-12-19T20:38:30.000Z</time></trkpt>
        <trkpt lat="28.6347445" lon="104.5807952"><ele>703.81</ele><time>2025-12-19T20:38:44.000Z</time></trkpt>
        <trkpt lat="28.6346712" lon="104.5807268"><ele>703.03</ele><time>2025-12-19T20:39:00.000Z</time></trkpt>
        <trkpt lat="28.6346007" lon="104.5806587"><ele>702.72</ele><time>2025-12-19T20:39:12.000Z</time></trkpt>
        <trkpt lat="28.634599" lon="104.5805633"><ele>702.85</ele><time>2025-12-19T20:39:28.000Z</time></trkpt>
        <trkpt lat="28.6345965" lon="104.5804566"><ele>701.97</ele><time>2025-12-19T20:39:36.000Z</time></trkpt>
        <trkpt lat="28.6345965" lon="104.5804566"><ele>701.97</ele><time>2025-12-19T20:39:51.000Z</time></trkpt>
        <trkpt lat="28.6345965" lon="104.5804566"><ele>701.97</ele><time>2025-12-19T20:40:03.000Z</time></trkpt>
        <trkpt lat="28.6345965" lon="104.5804566"><ele>701.97</ele><time>2025-12-19T20:40:29.000Z</time></trkpt>
        <trkpt lat="28.6345731" lon="104.5803488"><ele>700.31</ele><time>2025-12-19T20:40:31.000Z</time></trkpt>
        <trkpt lat="28.6345731" lon="104.5803488"><ele>700.31</ele><time>2025-12-19T20:40:34.000Z</time></trkpt>
        <trkpt lat="28.6345978" lon="104.5802466"><ele>698.39</ele><time>2025-12-19T20:40:46.000Z</time></trkpt>
        <trkpt lat="28.6346557" lon="104.5801591"><ele>695.92</ele><time>2025-12-19T20:41:22.000Z</time></trkpt>
        <trkpt lat="28.6347083" lon="104.5801269"><ele>694.13</ele><time>2025-12-19T20:41:28.000Z</time></trkpt>
        <trkpt lat="28.6347083" lon="104.5801269"><ele>694.13</ele><time>2025-12-19T20:41:47.000Z</time></trkpt>
        <trkpt lat="28.6347513" lon="104.5800508"><ele>693.01</ele><time>2025-12-19T20:41:51.000Z</time></trkpt>
        <trkpt lat="28.6347513" lon="104.5800508"><ele>693.01</ele><time>2025-12-19T20:42:16.000Z</time></trkpt>
        <trkpt lat="28.6347761" lon="104.579937"><ele>691.32</ele><time>2025-12-19T20:42:36.000Z</time></trkpt>
        <trkpt lat="28.6347558" lon="104.5798264"><ele>689.32</ele><time>2025-12-19T20:42:50.000Z</time></trkpt>
        <trkpt lat="28.6346748" lon="104.5797901"><ele>689.18</ele><time>2025-12-19T20:43:14.000Z</time></trkpt>
        <trkpt lat="28.6345801" lon="104.5798143"><ele>691.88</ele><time>2025-12-19T20:43:32.000Z</time></trkpt>
        <trkpt lat="28.6344773" lon="104.5798621"><ele>695.62</ele><time>2025-12-19T20:43:52.000Z</time></trkpt>
        <trkpt lat="28.6343783" lon="104.5798915"><ele>698.35</ele><time>2025-12-19T20:44:04.000Z</time></trkpt>
        <trkpt lat="28.6343082" lon="104.5799619"><ele>699.64</ele><time>2025-12-19T20:45:02.000Z</time></trkpt>
        <trkpt lat="28.6342237" lon="104.5799737"><ele>700.98</ele><time>2025-12-19T20:45:34.000Z</time></trkpt>
        <trkpt lat="28.6341471" lon="104.5800394"><ele>702.51</ele><time>2025-12-19T20:45:58.000Z</time></trkpt>
        <trkpt lat="28.6340646" lon="104.5800912"><ele>702.71</ele><time>2025-12-19T20:46:10.000Z</time></trkpt>
        <trkpt lat="28.6340317" lon="104.5801884"><ele>703.19</ele><time>2025-12-19T20:46:22.000Z</time></trkpt>
        <trkpt lat="28.6340949" lon="104.5802607"><ele>702.67</ele><time>2025-12-19T20:46:44.000Z</time></trkpt>
        <trkpt lat="28.6341939" lon="104.58029"><ele>701.6</ele><time>2025-12-19T20:47:04.000Z</time></trkpt>
        <trkpt lat="28.6343028" lon="104.5803031"><ele>702.14</ele><time>2025-12-19T20:47:24.000Z</time></trkpt>
        <trkpt lat="28.6343829" lon="104.5803622"><ele>701.9</ele><time>2025-12-19T20:47:44.000Z</time></trkpt>
        <trkpt lat="28.6344652" lon="104.580415"><ele>702.14</ele><time>2025-12-19T20:48:00.000Z</time></trkpt>
        <trkpt lat="28.6345563" lon="104.5804246"><ele>701.75</ele><time>2025-12-19T20:48:22.000Z</time></trkpt>
        <trkpt lat="28.6345941" lon="104.5805005"><ele>700.6</ele><time>2025-12-19T20:48:36.000Z</time></trkpt>
        <trkpt lat="28.634633" lon="104.580591"><ele>700.73</ele><time>2025-12-19T20:48:50.000Z</time></trkpt>
        <trkpt lat="28.634633" lon="104.580591"><ele>700.73</ele><time>2025-12-19T20:49:13.000Z</time></trkpt>
        <trkpt lat="28.6345365" lon="104.5806358"><ele>700.71</ele><time>2025-12-19T20:50:21.000Z</time></trkpt>
        <trkpt lat="28.6345365" lon="104.5806358"><ele>700.71</ele><time>2025-12-19T20:50:32.000Z</time></trkpt>
        <trkpt lat="28.6344847" lon="104.5805415"><ele>698.91</ele><time>2025-12-19T20:50:50.000Z</time></trkpt>
        <trkpt lat="28.6344847" lon="104.5805415"><ele>698.91</ele><time>2025-12-19T20:51:21.000Z</time></trkpt>
        <trkpt lat="28.6344179" lon="104.5804636"><ele>695.37</ele><time>2025-12-19T20:51:23.000Z</time></trkpt>
        <trkpt lat="28.6344179" lon="104.5804636"><ele>695.37</ele><time>2025-12-19T20:51:28.000Z</time></trkpt>
        <trkpt lat="28.634329" lon="104.5804088"><ele>692.61</ele><time>2025-12-19T20:51:48.000Z</time></trkpt>
        <trkpt lat="28.634329" lon="104.5804088"><ele>692.61</ele><time>2025-12-19T20:52:05.000Z</time></trkpt>
        <trkpt lat="28.634235" lon="104.5803908"><ele>692.24</ele><time>2025-12-19T20:52:07.000Z</time></trkpt>
        <trkpt lat="28.634235" lon="104.5803908"><ele>692.24</ele><time>2025-12-19T20:52:14.000Z</time></trkpt>
        <trkpt lat="28.6341403" lon="104.5804231"><ele>694.25</ele><time>2025-12-19T20:52:28.000Z</time></trkpt>
        <trkpt lat="28.6340543" lon="104.5804766"><ele>695.78</ele><time>2025-12-19T20:52:42.000Z</time></trkpt>
        <trkpt lat="28.633965" lon="104.580463"><ele>697.28</ele><time>2025-12-19T20:52:58.000Z</time></trkpt>
        <trkpt lat="28.6339336" lon="104.5804677"><ele>696.17</ele><time>2025-12-19T20:53:06.000Z</time></trkpt>
        <trkpt lat="28.6338653" lon="104.5804827"><ele>695.18</ele><time>2025-12-19T20:53:26.000Z</time></trkpt>
        <trkpt lat="28.6337805" lon="104.5804971"><ele>692.09</ele><time>2025-12-19T20:53:58.000Z</time></trkpt>
        <trkpt lat="28.6336919" lon="104.580479"><ele>688.71</ele><time>2025-12-19T20:54:12.000Z</time></trkpt>
        <trkpt lat="28.6336709" lon="104.5803905"><ele>683.24</ele><time>2025-12-19T20:54:26.000Z</time></trkpt>
        <trkpt lat="28.6336144" lon="104.5803164"><ele>676.33</ele><time>2025-12-19T20:54:40.000Z</time></trkpt>
        <trkpt lat="28.6335572" lon="104.5802231"><ele>674.5</ele><time>2025-12-19T20:54:54.000Z</time></trkpt>
        <trkpt lat="28.6335378" lon="104.5801945"><ele>673.27</ele><time>2025-12-19T20:54:56.000Z</time></trkpt>
        <trkpt lat="28.6334735" lon="104.5801622"><ele>672.28</ele><time>2025-12-19T20:55:30.000Z</time></trkpt>
        <trkpt lat="28.6334288" lon="104.5800794"><ele>670.81</ele><time>2025-12-19T20:56:16.000Z</time></trkpt>
        <trkpt lat="28.6333546" lon="104.5800286"><ele>665.74</ele><time>2025-12-19T20:56:50.000Z</time></trkpt>
        <trkpt lat="28.633263" lon="104.5800075"><ele>662.2</ele><time>2025-12-19T20:57:36.000Z</time></trkpt>
        <trkpt lat="28.6331695" lon="104.5799837"><ele>658.58</ele><time>2025-12-19T20:57:56.000Z</time></trkpt>
        <trkpt lat="28.6330738" lon="104.5799561"><ele>655.02</ele><time>2025-12-19T20:58:30.000Z</time></trkpt>
        <trkpt lat="28.6329851" lon="104.5799235"><ele>652.5</ele><time>2025-12-19T20:58:42.000Z</time></trkpt>
        <trkpt lat="28.632895" lon="104.5798959"><ele>651.13</ele><time>2025-12-19T20:59:22.000Z</time></trkpt>
        <trkpt lat="28.632895" lon="104.5798959"><ele>651.13</ele><time>2025-12-19T21:00:13.000Z</time></trkpt>
        <trkpt lat="28.6328284" lon="104.5799685"><ele>649.4</ele><time>2025-12-19T21:00:19.000Z</time></trkpt>
        <trkpt lat="28.6328284" lon="104.5799685"><ele>649.4</ele><time>2025-12-19T21:00:38.000Z</time></trkpt>
        <trkpt lat="28.6328284" lon="104.5799685"><ele>649.4</ele><time>2025-12-19T21:01:49.000Z</time></trkpt>
        <trkpt lat="28.6327374" lon="104.5799918"><ele>646.84</ele><time>2025-12-19T21:01:53.000Z</time></trkpt>
        <trkpt lat="28.6327374" lon="104.5799918"><ele>646.84</ele><time>2025-12-19T21:02:26.000Z</time></trkpt>
        <trkpt lat="28.6326482" lon="104.5799678"><ele>643.13</ele><time>2025-12-19T21:02:56.000Z</time></trkpt>
        <trkpt lat="28.6325565" lon="104.5799592"><ele>640.63</ele><time>2025-12-19T21:03:40.000Z</time></trkpt>
        <trkpt lat="28.632473" lon="104.5799217"><ele>635.81</ele><time>2025-12-19T21:04:38.000Z</time></trkpt>
        <trkpt lat="28.632473" lon="104.5799217"><ele>635.81</ele><time>2025-12-19T21:04:41.000Z</time></trkpt>
        <trkpt lat="28.632473" lon="104.5799217"><ele>635.81</ele><time>2025-12-19T21:05:03.000Z</time></trkpt>
        <trkpt lat="28.632473" lon="104.5799217"><ele>635.81</ele><time>2025-12-19T21:06:01.000Z</time></trkpt>
        <trkpt lat="28.6323744" lon="104.5798955"><ele>630.68</ele><time>2025-12-19T21:06:13.000Z</time></trkpt>
        <trkpt lat="28.6323744" lon="104.5798955"><ele>630.68</ele><time>2025-12-19T21:06:22.000Z</time></trkpt>
        <trkpt lat="28.6322737" lon="104.5799208"><ele>625.03</ele><time>2025-12-19T21:06:44.000Z</time></trkpt>
        <trkpt lat="28.6321786" lon="104.5799321"><ele>621.28</ele><time>2025-12-19T21:07:08.000Z</time></trkpt>
        <trkpt lat="28.6321786" lon="104.5799321"><ele>621.28</ele><time>2025-12-19T21:07:29.000Z</time></trkpt>
        <trkpt lat="28.6320508" lon="104.5797745"><ele>615.67</ele><time>2025-12-19T21:07:41.000Z</time></trkpt>
        <trkpt lat="28.6320508" lon="104.5797745"><ele>615.67</ele><time>2025-12-19T21:07:52.000Z</time></trkpt>
        <trkpt lat="28.6319752" lon="104.5797121"><ele>607.55</ele><time>2025-12-19T21:08:14.000Z</time></trkpt>
        <trkpt lat="28.6318851" lon="104.5796768"><ele>600.49</ele><time>2025-12-19T21:08:30.000Z</time></trkpt>
        <trkpt lat="28.6318851" lon="104.5796768"><ele>600.49</ele><time>2025-12-19T21:08:45.000Z</time></trkpt>
        <trkpt lat="28.6317887" lon="104.579692"><ele>594.62</ele><time>2025-12-19T21:08:47.000Z</time></trkpt>
        <trkpt lat="28.6317887" lon="104.579692"><ele>594.62</ele><time>2025-12-19T21:09:02.000Z</time></trkpt>
        <trkpt lat="28.6316963" lon="104.5796842"><ele>590.71</ele><time>2025-12-19T21:09:24.000Z</time></trkpt>
        <trkpt lat="28.6316963" lon="104.5796842"><ele>590.71</ele><time>2025-12-19T21:09:59.000Z</time></trkpt>
        <trkpt lat="28.6316963" lon="104.5796842"><ele>590.71</ele><time>2025-12-19T21:10:01.000Z</time></trkpt>
        <trkpt lat="28.6316963" lon="104.5796842"><ele>590.71</ele><time>2025-12-19T21:10:17.000Z</time></trkpt>
        <trkpt lat="28.6316049" lon="104.5797107"><ele>588.77</ele><time>2025-12-19T21:10:19.000Z</time></trkpt>
        <trkpt lat="28.6316049" lon="104.5797107"><ele>588.77</ele><time>2025-12-19T21:10:22.000Z</time></trkpt>
        <trkpt lat="28.631525" lon="104.5797764"><ele>588.1</ele><time>2025-12-19T21:10:44.000Z</time></trkpt>
        <trkpt lat="28.6314399" lon="104.5798336"><ele>586.62</ele><time>2025-12-19T21:10:54.000Z</time></trkpt>
        <trkpt lat="28.6314101" lon="104.5798501"><ele>585.07</ele><time>2025-12-19T21:10:58.000Z</time></trkpt>
        <trkpt lat="28.6313429" lon="104.5798809"><ele>584.11</ele><time>2025-12-19T21:11:18.000Z</time></trkpt>
        <trkpt lat="28.6313429" lon="104.5798809"><ele>584.11</ele><time>2025-12-19T21:11:39.000Z</time></trkpt>
        <trkpt lat="28.63125" lon="104.5799009"><ele>583.17</ele><time>2025-12-19T21:11:53.000Z</time></trkpt>
        <trkpt lat="28.63125" lon="104.5799009"><ele>583.17</ele><time>2025-12-19T21:11:58.000Z</time></trkpt>
        <trkpt lat="28.6312094" lon="104.5799877"><ele>581.46</ele><time>2025-12-19T21:12:28.000Z</time></trkpt>
        <trkpt lat="28.6311216" lon="104.5799884"><ele>580.11</ele><time>2025-12-19T21:12:38.000Z</time></trkpt>
        <trkpt lat="28.6310209" lon="104.5799952"><ele>580.42</ele><time>2025-12-19T21:12:48.000Z</time></trkpt>
        <trkpt lat="28.6309373" lon="104.5799186"><ele>579.9</ele><time>2025-12-19T21:12:58.000Z</time></trkpt>
        <trkpt lat="28.6308887" lon="104.5798605"><ele>578.35</ele><time>2025-12-19T21:13:04.000Z</time></trkpt>
        <trkpt lat="28.630809" lon="104.5798444"><ele>578.54</ele><time>2025-12-19T21:13:20.000Z</time></trkpt>
        <trkpt lat="28.6307218" lon="104.5798771"><ele>580.08</ele><time>2025-12-19T21:13:32.000Z</time></trkpt>
        <trkpt lat="28.6306328" lon="104.5799492"><ele>582.77</ele><time>2025-12-19T21:13:44.000Z</time></trkpt>
        <trkpt lat="28.6305409" lon="104.5800107"><ele>583.73</ele><time>2025-12-19T21:13:54.000Z</time></trkpt>
        <trkpt lat="28.6304538" lon="104.5800733"><ele>583.57</ele><time>2025-12-19T21:14:04.000Z</time></trkpt>
        <trkpt lat="28.6304061" lon="104.5801703"><ele>583.18</ele><time>2025-12-19T21:14:14.000Z</time></trkpt>
        <trkpt lat="28.6303788" lon="104.5802757"><ele>582.23</ele><time>2025-12-19T21:14:24.000Z</time></trkpt>
        <trkpt lat="28.6304012" lon="104.5803903"><ele>580.94</ele><time>2025-12-19T21:14:34.000Z</time></trkpt>
        <trkpt lat="28.6304328" lon="104.5805066"><ele>579.17</ele><time>2025-12-19T21:14:44.000Z</time></trkpt>
        <trkpt lat="28.6303831" lon="104.5805856"><ele>577.49</ele><time>2025-12-19T21:14:56.000Z</time></trkpt>
        <trkpt lat="28.6302932" lon="104.5806273"><ele>575.54</ele><time>2025-12-19T21:15:04.000Z</time></trkpt>
        <trkpt lat="28.630242" lon="104.5806385"><ele>575.56</ele><time>2025-12-19T21:15:12.000Z</time></trkpt>
        <trkpt lat="28.6302446" lon="104.5807137"><ele>574.27</ele><time>2025-12-19T21:15:26.000Z</time></trkpt>
        <trkpt lat="28.6302328" lon="104.5808228"><ele>572.84</ele><time>2025-12-19T21:15:56.000Z</time></trkpt>
        <trkpt lat="28.6302646" lon="104.5809337"><ele>571.08</ele><time>2025-12-19T21:16:08.000Z</time></trkpt>
        <trkpt lat="28.6302486" lon="104.581034"><ele>571.57</ele><time>2025-12-19T21:16:22.000Z</time></trkpt>
        <trkpt lat="28.6301889" lon="104.581112"><ele>572.75</ele><time>2025-12-19T21:16:34.000Z</time></trkpt>
        <trkpt lat="28.6301422" lon="104.5811391"><ele>574.31</ele><time>2025-12-19T21:16:40.000Z</time></trkpt>
        <trkpt lat="28.6300598" lon="104.5811329"><ele>575.78</ele><time>2025-12-19T21:16:58.000Z</time></trkpt>
        <trkpt lat="28.6300983" lon="104.581192"><ele>576.53</ele><time>2025-12-19T21:17:20.000Z</time></trkpt>
        <trkpt lat="28.6301084" lon="104.5812919"><ele>576.15</ele><time>2025-12-19T21:17:30.000Z</time></trkpt>
        <trkpt lat="28.6301782" lon="104.5813677"><ele>574.51</ele><time>2025-12-19T21:17:42.000Z</time></trkpt>
        <trkpt lat="28.6302602" lon="104.5814329"><ele>574.61</ele><time>2025-12-19T21:17:56.000Z</time></trkpt>
        <trkpt lat="28.630332" lon="104.5815054"><ele>574.82</ele><time>2025-12-19T21:18:12.000Z</time></trkpt>
        <trkpt lat="28.6302829" lon="104.5815187"><ele>575.48</ele><time>2025-12-19T21:18:32.000Z</time></trkpt>
        <trkpt lat="28.6302164" lon="104.5814315"><ele>572.84</ele><time>2025-12-19T21:18:46.000Z</time></trkpt>
        <trkpt lat="28.6301363" lon="104.5813303"><ele>570.51</ele><time>2025-12-19T21:18:56.000Z</time></trkpt>
        <trkpt lat="28.6300503" lon="104.5812536"><ele>570.01</ele><time>2025-12-19T21:19:46.000Z</time></trkpt>
        <trkpt lat="28.6300556" lon="104.581142"><ele>572.23</ele><time>2025-12-19T21:20:12.000Z</time></trkpt>
        <trkpt lat="28.6301431" lon="104.5811076"><ele>575.88</ele><time>2025-12-19T21:20:28.000Z</time></trkpt>
        <trkpt lat="28.6301959" lon="104.5810253"><ele>576.94</ele><time>2025-12-19T21:20:52.000Z</time></trkpt>
        <trkpt lat="28.6302044" lon="104.5810061"><ele>577.26</ele><time>2025-12-19T21:21:00.000Z</time></trkpt>
        <trkpt lat="28.6301515" lon="104.5809561"><ele>577.36</ele><time>2025-12-19T21:21:44.000Z</time></trkpt>
        <trkpt lat="28.6300642" lon="104.5809719"><ele>580.03</ele><time>2025-12-19T21:22:16.000Z</time></trkpt>
        <trkpt lat="28.6299565" lon="104.5809447"><ele>584.18</ele><time>2025-12-19T21:24:04.000Z</time></trkpt>
        <trkpt lat="28.6298746" lon="104.5808858"><ele>587.04</ele><time>2025-12-19T21:25:12.000Z</time></trkpt>
        <trkpt lat="28.6297815" lon="104.5808801"><ele>589.98</ele><time>2025-12-19T21:25:44.000Z</time></trkpt>
        <trkpt lat="28.6296995" lon="104.5809285"><ele>592.64</ele><time>2025-12-19T21:26:00.000Z</time></trkpt>
        <trkpt lat="28.6296054" lon="104.5809572"><ele>593.94</ele><time>2025-12-19T21:26:20.000Z</time></trkpt>
        <trkpt lat="28.6295088" lon="104.5809961"><ele>595.79</ele><time>2025-12-19T21:26:34.000Z</time></trkpt>
        <trkpt lat="28.6294195" lon="104.5810308"><ele>597.98</ele><time>2025-12-19T21:27:04.000Z</time></trkpt>
        <trkpt lat="28.6293374" lon="104.5810842"><ele>599.18</ele><time>2025-12-19T21:27:18.000Z</time></trkpt>
        <trkpt lat="28.6292523" lon="104.5811223"><ele>600.83</ele><time>2025-12-19T21:27:58.000Z</time></trkpt>
        <trkpt lat="28.629164" lon="104.5811519"><ele>603.1</ele><time>2025-12-19T21:28:34.000Z</time></trkpt>
        <trkpt lat="28.6290739" lon="104.5811864"><ele>606.45</ele><time>2025-12-19T21:28:48.000Z</time></trkpt>
        <trkpt lat="28.6289781" lon="104.5812216"><ele>608.83</ele><time>2025-12-19T21:29:30.000Z</time></trkpt>
        <trkpt lat="28.6288854" lon="104.5812268"><ele>611.08</ele><time>2025-12-19T21:29:44.000Z</time></trkpt>
        <trkpt lat="28.6288229" lon="104.5812917"><ele>612.5</ele><time>2025-12-19T21:30:18.000Z</time></trkpt>
        <trkpt lat="28.6287427" lon="104.581333"><ele>612.56</ele><time>2025-12-19T21:30:40.000Z</time></trkpt>
        <trkpt lat="28.6286449" lon="104.5813308"><ele>613.55</ele><time>2025-12-19T21:31:06.000Z</time></trkpt>
        <trkpt lat="28.6285494" lon="104.5813447"><ele>614.82</ele><time>2025-12-19T21:31:26.000Z</time></trkpt>
        <trkpt lat="28.6284508" lon="104.5813575"><ele>614.77</ele><time>2025-12-19T21:31:40.000Z</time></trkpt>
        <trkpt lat="28.6284508" lon="104.5813575"><ele>614.77</ele><time>2025-12-19T21:32:51.000Z</time></trkpt>
        <trkpt lat="28.6283736" lon="104.5814243"><ele>614.22</ele><time>2025-12-19T21:33:15.000Z</time></trkpt>
        <trkpt lat="28.6283736" lon="104.5814243"><ele>614.22</ele><time>2025-12-19T21:33:52.000Z</time></trkpt>
        <trkpt lat="28.6283754" lon="104.5815466"><ele>614.35</ele><time>2025-12-19T21:34:06.000Z</time></trkpt>
        <trkpt lat="28.6283463" lon="104.5816489"><ele>615.14</ele><time>2025-12-19T21:34:18.000Z</time></trkpt>
        <trkpt lat="28.6283459" lon="104.5817581"><ele>615.71</ele><time>2025-12-19T21:34:42.000Z</time></trkpt>
        <trkpt lat="28.6283561" lon="104.581864"><ele>615.05</ele><time>2025-12-19T21:34:52.000Z</time></trkpt>
        <trkpt lat="28.6283777" lon="104.5819714"><ele>613.76</ele><time>2025-12-19T21:35:06.000Z</time></trkpt>
        <trkpt lat="28.6283779" lon="104.5820748"><ele>612.41</ele><time>2025-12-19T21:35:36.000Z</time></trkpt>
        <trkpt lat="28.6283506" lon="104.5821782"><ele>609.32</ele><time>2025-12-19T21:35:56.000Z</time></trkpt>
        <trkpt lat="28.6283151" lon="104.5822924"><ele>605.98</ele><time>2025-12-19T21:36:08.000Z</time></trkpt>
        <trkpt lat="28.6282964" lon="104.5823571"><ele>602.54</ele><time>2025-12-19T21:36:18.000Z</time></trkpt>
        <trkpt lat="28.6282955" lon="104.5824488"><ele>599.78</ele><time>2025-12-19T21:36:28.000Z</time></trkpt>
        <trkpt lat="28.6282757" lon="104.5825547"><ele>598.36</ele><time>2025-12-19T21:36:46.000Z</time></trkpt>
        <trkpt lat="28.6283052" lon="104.5826602"><ele>594.8</ele><time>2025-12-19T21:36:56.000Z</time></trkpt>
        <trkpt lat="28.6282924" lon="104.5827102"><ele>591.3</ele><time>2025-12-19T21:37:04.000Z</time></trkpt>
        <trkpt lat="28.6282924" lon="104.5827102"><ele>591.3</ele><time>2025-12-19T21:37:15.000Z</time></trkpt>
        <trkpt lat="28.6282924" lon="104.5827102"><ele>591.3</ele><time>2025-12-19T21:37:33.000Z</time></trkpt>
        <trkpt lat="28.6282924" lon="104.5827102"><ele>591.3</ele><time>2025-12-19T21:38:05.000Z</time></trkpt>
        <trkpt lat="28.6282078" lon="104.5827701"><ele>589.17</ele><time>2025-12-19T21:38:09.000Z</time></trkpt>
        <trkpt lat="28.6282078" lon="104.5827701"><ele>589.17</ele><time>2025-12-19T21:38:18.000Z</time></trkpt>
        <trkpt lat="28.6281316" lon="104.5827105"><ele>588.08</ele><time>2025-12-19T21:38:28.000Z</time></trkpt>
        <trkpt lat="28.6280962" lon="104.5826136"><ele>587.1</ele><time>2025-12-19T21:38:40.000Z</time></trkpt>
        <trkpt lat="28.6280763" lon="104.5825078"><ele>586.06</ele><time>2025-12-19T21:38:52.000Z</time></trkpt>
        <trkpt lat="28.6280587" lon="104.582395"><ele>585.36</ele><time>2025-12-19T21:39:04.000Z</time></trkpt>
        <trkpt lat="28.6280336" lon="104.5822783"><ele>584.82</ele><time>2025-12-19T21:39:18.000Z</time></trkpt>
        <trkpt lat="28.6280038" lon="104.5821634"><ele>584.66</ele><time>2025-12-19T21:39:28.000Z</time></trkpt>
        <trkpt lat="28.627962" lon="104.5820601"><ele>583.62</ele><time>2025-12-19T21:39:38.000Z</time></trkpt>
        <trkpt lat="28.6279163" lon="104.5819575"><ele>582.4</ele><time>2025-12-19T21:39:50.000Z</time></trkpt>
        <trkpt lat="28.6278343" lon="104.5819073"><ele>580.81</ele><time>2025-12-19T21:40:00.000Z</time></trkpt>
        <trkpt lat="28.6277364" lon="104.5819372"><ele>579.81</ele><time>2025-12-19T21:40:12.000Z</time></trkpt>
        <trkpt lat="28.6276581" lon="104.5820131"><ele>579.02</ele><time>2025-12-19T21:40:22.000Z</time></trkpt>
        <trkpt lat="28.6275847" lon="104.5821038"><ele>578.61</ele><time>2025-12-19T21:40:32.000Z</time></trkpt>
        <trkpt lat="28.6275089" lon="104.582176"><ele>578.24</ele><time>2025-12-19T21:40:40.000Z</time></trkpt>
        <trkpt lat="28.6274147" lon="104.5821967"><ele>577.74</ele><time>2025-12-19T21:40:50.000Z</time></trkpt>
        <trkpt lat="28.6273293" lon="104.5821601"><ele>576.87</ele><time>2025-12-19T21:40:58.000Z</time></trkpt>
        <trkpt lat="28.6272493" lon="104.5820853"><ele>575.64</ele><time>2025-12-19T21:41:08.000Z</time></trkpt>
        <trkpt lat="28.6271682" lon="104.5820097"><ele>574.45</ele><time>2025-12-19T21:41:18.000Z</time></trkpt>
        <trkpt lat="28.6270824" lon="104.5819471"><ele>572.96</ele><time>2025-12-19T21:41:28.000Z</time></trkpt>
        <trkpt lat="28.626998" lon="104.5819004"><ele>570.96</ele><time>2025-12-19T21:41:36.000Z</time></trkpt>
        <trkpt lat="28.6269226" lon="104.5818419"><ele>569.43</ele><time>2025-12-19T21:41:44.000Z</time></trkpt>
        <trkpt lat="28.6268506" lon="104.5817767"><ele>568.54</ele><time>2025-12-19T21:41:54.000Z</time></trkpt>
        <trkpt lat="28.6267553" lon="104.5817627"><ele>568.04</ele><time>2025-12-19T21:42:06.000Z</time></trkpt>
        <trkpt lat="28.6266529" lon="104.5817875"><ele>567.73</ele><time>2025-12-19T21:42:16.000Z</time></trkpt>
        <trkpt lat="28.6265608" lon="104.5818363"><ele>567.35</ele><time>2025-12-19T21:42:26.000Z</time></trkpt>
        <trkpt lat="28.6264862" lon="104.5819294"><ele>566.73</ele><time>2025-12-19T21:42:38.000Z</time></trkpt>
        <trkpt lat="28.6264492" lon="104.5820345"><ele>566.14</ele><time>2025-12-19T21:42:48.000Z</time></trkpt>
        <trkpt lat="28.626434" lon="104.5821356"><ele>566.36</ele><time>2025-12-19T21:43:08.000Z</time></trkpt>
        <trkpt lat="28.6263804" lon="104.58211"><ele>566.99</ele><time>2025-12-19T21:43:46.000Z</time></trkpt>
        <trkpt lat="28.6263804" lon="104.58211"><ele>566.99</ele><time>2025-12-19T21:44:03.000Z</time></trkpt>
        <trkpt lat="28.6262959" lon="104.582059"><ele>567.49</ele><time>2025-12-19T21:44:07.000Z</time></trkpt>
        <trkpt lat="28.6262959" lon="104.582059"><ele>567.49</ele><time>2025-12-19T21:44:20.000Z</time></trkpt>
        <trkpt lat="28.6261979" lon="104.5820335"><ele>568.68</ele><time>2025-12-19T21:44:36.000Z</time></trkpt>
        <trkpt lat="28.6261001" lon="104.5820127"><ele>570.97</ele><time>2025-12-19T21:44:50.000Z</time></trkpt>
        <trkpt lat="28.6260045" lon="104.5820147"><ele>573.35</ele><time>2025-12-19T21:45:00.000Z</time></trkpt>
        <trkpt lat="28.6259033" lon="104.5820555"><ele>575.58</ele><time>2025-12-19T21:45:12.000Z</time></trkpt>
        <trkpt lat="28.6258205" lon="104.582127"><ele>577.07</ele><time>2025-12-19T21:45:22.000Z</time></trkpt>
        <trkpt lat="28.6257459" lon="104.5822006"><ele>578.33</ele><time>2025-12-19T21:45:32.000Z</time></trkpt>
        <trkpt lat="28.6257459" lon="104.5822006"><ele>578.33</ele><time>2025-12-19T21:45:55.000Z</time></trkpt>
        <trkpt lat="28.6256507" lon="104.5822391"><ele>580.44</ele><time>2025-12-19T21:46:07.000Z</time></trkpt>
        <trkpt lat="28.6256507" lon="104.5822391"><ele>580.44</ele><time>2025-12-19T21:46:16.000Z</time></trkpt>
        <trkpt lat="28.6255545" lon="104.582215"><ele>585.15</ele><time>2025-12-19T21:46:26.000Z</time></trkpt>
        <trkpt lat="28.6254875" lon="104.5821361"><ele>587.45</ele><time>2025-12-19T21:46:38.000Z</time></trkpt>
        <trkpt lat="28.6254875" lon="104.5821361"><ele>587.45</ele><time>2025-12-19T21:47:09.000Z</time></trkpt>
        <trkpt lat="28.6254173" lon="104.5820311"><ele>588.31</ele><time>2025-12-19T21:47:33.000Z</time></trkpt>
        <trkpt lat="28.6254173" lon="104.5820311"><ele>588.31</ele><time>2025-12-19T21:47:44.000Z</time></trkpt>
        <trkpt lat="28.62532" lon="104.5819894"><ele>587.83</ele><time>2025-12-19T21:47:56.000Z</time></trkpt>
        <trkpt lat="28.6252237" lon="104.5819808"><ele>587.63</ele><time>2025-12-19T21:48:06.000Z</time></trkpt>
        <trkpt lat="28.6251374" lon="104.5820172"><ele>587.54</ele><time>2025-12-19T21:48:16.000Z</time></trkpt>
        <trkpt lat="28.6250844" lon="104.5821042"><ele>587.54</ele><time>2025-12-19T21:48:24.000Z</time></trkpt>
        <trkpt lat="28.6250128" lon="104.5821762"><ele>587.77</ele><time>2025-12-19T21:48:36.000Z</time></trkpt>
        <trkpt lat="28.6249278" lon="104.5821645"><ele>588</ele><time>2025-12-19T21:48:50.000Z</time></trkpt>
        <trkpt lat="28.6248382" lon="104.5821412"><ele>587.86</ele><time>2025-12-19T21:49:00.000Z</time></trkpt>
        <trkpt lat="28.6247916" lon="104.5820469"><ele>587.28</ele><time>2025-12-19T21:49:12.000Z</time></trkpt>
        <trkpt lat="28.6247218" lon="104.581971"><ele>586.6</ele><time>2025-12-19T21:49:22.000Z</time></trkpt>
        <trkpt lat="28.6246259" lon="104.5819344"><ele>585.76</ele><time>2025-12-19T21:49:34.000Z</time></trkpt>
        <trkpt lat="28.624532" lon="104.5819003"><ele>585.27</ele><time>2025-12-19T21:49:54.000Z</time></trkpt>
        <trkpt lat="28.624437" lon="104.5819311"><ele>586.52</ele><time>2025-12-19T21:50:28.000Z</time></trkpt>
        <trkpt lat="28.6243422" lon="104.5819804"><ele>588.17</ele><time>2025-12-19T21:50:48.000Z</time></trkpt>
        <trkpt lat="28.6242897" lon="104.5819884"><ele>589.41</ele><time>2025-12-19T21:50:58.000Z</time></trkpt>
        <trkpt lat="28.6242106" lon="104.5820152"><ele>589.86</ele><time>2025-12-19T21:51:18.000Z</time></trkpt>
        <trkpt lat="28.6241244" lon="104.5820047"><ele>591.2</ele><time>2025-12-19T21:51:32.000Z</time></trkpt>
        <trkpt lat="28.624045" lon="104.5820518"><ele>592.59</ele><time>2025-12-19T21:51:56.000Z</time></trkpt>
        <trkpt lat="28.6240005" lon="104.5821466"><ele>593.4</ele><time>2025-12-19T21:52:08.000Z</time></trkpt>
        <trkpt lat="28.6239969" lon="104.5822581"><ele>594</ele><time>2025-12-19T21:52:22.000Z</time></trkpt>
        <trkpt lat="28.6240243" lon="104.5823671"><ele>595.54</ele><time>2025-12-19T21:52:34.000Z</time></trkpt>
        <trkpt lat="28.6240675" lon="104.5824721"><ele>596.13</ele><time>2025-12-19T21:52:48.000Z</time></trkpt>
        <trkpt lat="28.6241392" lon="104.582548"><ele>595.38</ele><time>2025-12-19T21:52:58.000Z</time></trkpt>
        <trkpt lat="28.6242231" lon="104.5826127"><ele>594.15</ele><time>2025-12-19T21:53:18.000Z</time></trkpt>
        <trkpt lat="28.6242726" lon="104.5826118"><ele>592.54</ele><time>2025-12-19T21:53:32.000Z</time></trkpt>
        <trkpt lat="28.624351" lon="104.58261"><ele>591.35</ele><time>2025-12-19T21:54:06.000Z</time></trkpt>
        <trkpt lat="28.6243827" lon="104.5826953"><ele>588.84</ele><time>2025-12-19T21:54:38.000Z</time></trkpt>
        <trkpt lat="28.6243768" lon="104.5827271"><ele>586.56</ele><time>2025-12-19T21:54:42.000Z</time></trkpt>
        <trkpt lat="28.6243526" lon="104.5826563"><ele>584.73</ele><time>2025-12-19T21:55:26.000Z</time></trkpt>
        <trkpt lat="28.6243335" lon="104.5827034"><ele>584.07</ele><time>2025-12-19T21:55:36.000Z</time></trkpt>
        <trkpt lat="28.6242847" lon="104.5827889"><ele>583.46</ele><time>2025-12-19T21:55:46.000Z</time></trkpt>
        <trkpt lat="28.6242089" lon="104.5828648"><ele>583.63</ele><time>2025-12-19T21:55:56.000Z</time></trkpt>
        <trkpt lat="28.6241687" lon="104.5829085"><ele>583.92</ele><time>2025-12-19T21:56:06.000Z</time></trkpt>
        <trkpt lat="28.6241026" lon="104.5828607"><ele>583.59</ele><time>2025-12-19T21:56:24.000Z</time></trkpt>
        <trkpt lat="28.6240762" lon="104.5828419"><ele>582.59</ele><time>2025-12-19T21:56:26.000Z</time></trkpt>
        <trkpt lat="28.6241225" lon="104.5828871"><ele>581.82</ele><time>2025-12-19T21:56:36.000Z</time></trkpt>
        <trkpt lat="28.624195" lon="104.5829734"><ele>581.81</ele><time>2025-12-19T21:56:46.000Z</time></trkpt>
        <trkpt lat="28.6242863" lon="104.5830278"><ele>581.12</ele><time>2025-12-19T21:56:58.000Z</time></trkpt>
        <trkpt lat="28.6242518" lon="104.5830718"><ele>580.08</ele><time>2025-12-19T21:57:14.000Z</time></trkpt>
        <trkpt lat="28.6242341" lon="104.5830771"><ele>578.14</ele><time>2025-12-19T21:57:20.000Z</time></trkpt>
        <trkpt lat="28.6241659" lon="104.5830327"><ele>577.04</ele><time>2025-12-19T21:57:36.000Z</time></trkpt>
        <trkpt lat="28.6240817" lon="104.5829633"><ele>574.45</ele><time>2025-12-19T21:57:48.000Z</time></trkpt>
        <trkpt lat="28.6239881" lon="104.5829516"><ele>573.38</ele><time>2025-12-19T21:58:06.000Z</time></trkpt>
        <trkpt lat="28.6239354" lon="104.583027"><ele>571.03</ele><time>2025-12-19T21:58:14.000Z</time></trkpt>
        <trkpt lat="28.6239111" lon="104.5831357"><ele>570.23</ele><time>2025-12-19T21:58:36.000Z</time></trkpt>
        <trkpt lat="28.6239485" lon="104.5832449"><ele>568.36</ele><time>2025-12-19T21:58:50.000Z</time></trkpt>
        <trkpt lat="28.6239871" lon="104.5833542"><ele>566.78</ele><time>2025-12-19T21:59:08.000Z</time></trkpt>
        <trkpt lat="28.6239997" lon="104.5834638"><ele>565.96</ele><time>2025-12-19T21:59:26.000Z</time></trkpt>
        <trkpt lat="28.6240691" lon="104.5835129"><ele>565.06</ele><time>2025-12-19T21:59:44.000Z</time></trkpt>
        <trkpt lat="28.6241478" lon="104.5835679"><ele>563.66</ele><time>2025-12-19T21:59:58.000Z</time></trkpt>
        <trkpt lat="28.6241891" lon="104.5836566"><ele>563.08</ele><time>2025-12-19T22:00:10.000Z</time></trkpt>
        <trkpt lat="28.6241891" lon="104.5836566"><ele>563.08</ele><time>2025-12-19T22:00:35.000Z</time></trkpt>
        <trkpt lat="28.6241891" lon="104.5836566"><ele>563.08</ele><time>2025-12-19T22:01:51.000Z</time></trkpt>
        <trkpt lat="28.6241891" lon="104.5836566"><ele>563.08</ele><time>2025-12-19T22:02:07.000Z</time></trkpt>
        <trkpt lat="28.6242462" lon="104.5837452"><ele>563.42</ele><time>2025-12-19T22:03:19.000Z</time></trkpt>
        <trkpt lat="28.6242462" lon="104.5837452"><ele>563.42</ele><time>2025-12-19T22:03:26.000Z</time></trkpt>
        <trkpt lat="28.6242963" lon="104.5838306"><ele>564.45</ele><time>2025-12-19T22:03:34.000Z</time></trkpt>
        <trkpt lat="28.6243354" lon="104.5839253"><ele>564.67</ele><time>2025-12-19T22:03:42.000Z</time></trkpt>
        <trkpt lat="28.6243754" lon="104.5840221"><ele>564.43</ele><time>2025-12-19T22:03:50.000Z</time></trkpt>
        <trkpt lat="28.6244472" lon="104.584086"><ele>564.63</ele><time>2025-12-19T22:03:58.000Z</time></trkpt>
        <trkpt lat="28.6245303" lon="104.5841412"><ele>564.45</ele><time>2025-12-19T22:04:06.000Z</time></trkpt>
        <trkpt lat="28.6245742" lon="104.5842331"><ele>564.32</ele><time>2025-12-19T22:04:14.000Z</time></trkpt>
        <trkpt lat="28.6245835" lon="104.5843393"><ele>564.29</ele><time>2025-12-19T22:04:22.000Z</time></trkpt>
        <trkpt lat="28.6245993" lon="104.5844434"><ele>563.81</ele><time>2025-12-19T22:04:30.000Z</time></trkpt>
        <trkpt lat="28.6245755" lon="104.5845491"><ele>563.59</ele><time>2025-12-19T22:04:38.000Z</time></trkpt>
        <trkpt lat="28.6245637" lon="104.5846604"><ele>562.79</ele><time>2025-12-19T22:04:46.000Z</time></trkpt>
        <trkpt lat="28.6245799" lon="104.584767"><ele>562.01</ele><time>2025-12-19T22:04:54.000Z</time></trkpt>
        <trkpt lat="28.6245558" lon="104.5848631"><ele>561.46</ele><time>2025-12-19T22:05:04.000Z</time></trkpt>
        <trkpt lat="28.6244683" lon="104.5848983"><ele>561.6</ele><time>2025-12-19T22:05:14.000Z</time></trkpt>
        <trkpt lat="28.6243718" lon="104.5848784"><ele>562.01</ele><time>2025-12-19T22:05:22.000Z</time></trkpt>
        <trkpt lat="28.6242709" lon="104.5848426"><ele>561.94</ele><time>2025-12-19T22:05:30.000Z</time></trkpt>
        <trkpt lat="28.6242003" lon="104.5848961"><ele>561.93</ele><time>2025-12-19T22:05:40.000Z</time></trkpt>
        <trkpt lat="28.6241704" lon="104.584939"><ele>562.12</ele><time>2025-12-19T22:05:46.000Z</time></trkpt>
        <trkpt lat="28.6241704" lon="104.584939"><ele>562.12</ele><time>2025-12-19T22:05:55.000Z</time></trkpt>
        <trkpt lat="28.624127" lon="104.5848889"><ele>562.35</ele><time>2025-12-19T22:05:57.000Z</time></trkpt>
        <trkpt lat="28.624127" lon="104.5848889"><ele>562.35</ele><time>2025-12-19T22:06:36.000Z</time></trkpt>
        <trkpt lat="28.6240492" lon="104.5849017"><ele>561.77</ele><time>2025-12-19T22:07:10.000Z</time></trkpt>
        <trkpt lat="28.6240797" lon="104.5849672"><ele>564.2</ele><time>2025-12-19T22:07:28.000Z</time></trkpt>
        <trkpt lat="28.6241447" lon="104.5850552"><ele>566.78</ele><time>2025-12-19T22:07:42.000Z</time></trkpt>
        <trkpt lat="28.6242336" lon="104.5851373"><ele>569.57</ele><time>2025-12-19T22:08:00.000Z</time></trkpt>
        <trkpt lat="28.6242584" lon="104.5851947"><ele>570.03</ele><time>2025-12-19T22:08:06.000Z</time></trkpt>
        <trkpt lat="28.6241846" lon="104.5851882"><ele>570.14</ele><time>2025-12-19T22:08:20.000Z</time></trkpt>
        <trkpt lat="28.6240889" lon="104.585141"><ele>570.96</ele><time>2025-12-19T22:08:28.000Z</time></trkpt>
        <trkpt lat="28.6239801" lon="104.585109"><ele>571.96</ele><time>2025-12-19T22:08:38.000Z</time></trkpt>
        <trkpt lat="28.6238958" lon="104.5851217"><ele>573.35</ele><time>2025-12-19T22:08:48.000Z</time></trkpt>
        <trkpt lat="28.6238149" lon="104.5850669"><ele>574.86</ele><time>2025-12-19T22:09:00.000Z</time></trkpt>
        <trkpt lat="28.6237264" lon="104.585033"><ele>575.65</ele><time>2025-12-19T22:09:12.000Z</time></trkpt>
        <trkpt lat="28.6236299" lon="104.5849934"><ele>577.31</ele><time>2025-12-19T22:09:24.000Z</time></trkpt>
        <trkpt lat="28.6235388" lon="104.5849468"><ele>579.43</ele><time>2025-12-19T22:10:14.000Z</time></trkpt>
        <trkpt lat="28.6235388" lon="104.5849468"><ele>579.43</ele><time>2025-12-19T22:10:37.000Z</time></trkpt>
        <trkpt lat="28.6234511" lon="104.5848803"><ele>582.22</ele><time>2025-12-19T22:10:47.000Z</time></trkpt>
        <trkpt lat="28.6234511" lon="104.5848803"><ele>582.22</ele><time>2025-12-19T22:11:14.000Z</time></trkpt>
        <trkpt lat="28.6233742" lon="104.5848038"><ele>584.51</ele><time>2025-12-19T22:11:26.000Z</time></trkpt>
        <trkpt lat="28.6233052" lon="104.5847239"><ele>587.3</ele><time>2025-12-19T22:11:40.000Z</time></trkpt>
        <trkpt lat="28.6232524" lon="104.5846257"><ele>589.86</ele><time>2025-12-19T22:11:56.000Z</time></trkpt>
        <trkpt lat="28.6232151" lon="104.5845493"><ele>592.15</ele><time>2025-12-19T22:12:10.000Z</time></trkpt>
        <trkpt lat="28.6231942" lon="104.5844508"><ele>594.05</ele><time>2025-12-19T22:12:28.000Z</time></trkpt>
        <trkpt lat="28.623167" lon="104.584352"><ele>595.87</ele><time>2025-12-19T22:12:38.000Z</time></trkpt>
        <trkpt lat="28.6231443" lon="104.584237"><ele>597.68</ele><time>2025-12-19T22:12:46.000Z</time></trkpt>
        <trkpt lat="28.6231139" lon="104.584127"><ele>599.95</ele><time>2025-12-19T22:12:54.000Z</time></trkpt>
        <trkpt lat="28.6230664" lon="104.5840174"><ele>601.81</ele><time>2025-12-19T22:13:04.000Z</time></trkpt>
        <trkpt lat="28.6230386" lon="104.5839122"><ele>603.91</ele><time>2025-12-19T22:13:14.000Z</time></trkpt>
        <trkpt lat="28.6230066" lon="104.583805"><ele>605.7</ele><time>2025-12-19T22:13:26.000Z</time></trkpt>
        <trkpt lat="28.6230066" lon="104.583805"><ele>605.7</ele><time>2025-12-19T22:13:47.000Z</time></trkpt>
        <trkpt lat="28.6229972" lon="104.5836996"><ele>607.81</ele><time>2025-12-19T22:13:51.000Z</time></trkpt>
        <trkpt lat="28.6229972" lon="104.5836996"><ele>607.81</ele><time>2025-12-19T22:13:54.000Z</time></trkpt>
        <trkpt lat="28.6229292" lon="104.5836986"><ele>609.81</ele><time>2025-12-19T22:14:12.000Z</time></trkpt>
        <trkpt lat="28.6228607" lon="104.583784"><ele>611.35</ele><time>2025-12-19T22:14:40.000Z</time></trkpt>
        <trkpt lat="28.6228073" lon="104.5838898"><ele>612.6</ele><time>2025-12-19T22:14:50.000Z</time></trkpt>
        <trkpt lat="28.6227628" lon="104.5840072"><ele>613.23</ele><time>2025-12-19T22:15:00.000Z</time></trkpt>
        <trkpt lat="28.6227482" lon="104.5840626"><ele>613.82</ele><time>2025-12-19T22:15:04.000Z</time></trkpt>
        <trkpt lat="28.6227482" lon="104.5840626"><ele>613.82</ele><time>2025-12-19T22:15:31.000Z</time></trkpt>
        <trkpt lat="28.6227482" lon="104.5840626"><ele>613.82</ele><time>2025-12-19T22:15:35.000Z</time></trkpt>
        <trkpt lat="28.6227482" lon="104.5840626"><ele>613.82</ele><time>2025-12-19T22:16:03.000Z</time></trkpt>
        <trkpt lat="28.6227482" lon="104.5840626"><ele>613.82</ele><time>2025-12-19T22:16:43.000Z</time></trkpt>
        <trkpt lat="28.6227482" lon="104.5840626"><ele>613.82</ele><time>2025-12-19T22:17:19.000Z</time></trkpt>
        <trkpt lat="28.6226781" lon="104.5840052"><ele>614.16</ele><time>2025-12-19T22:18:11.000Z</time></trkpt>
        <trkpt lat="28.6226781" lon="104.5840052"><ele>614.16</ele><time>2025-12-19T22:18:42.000Z</time></trkpt>
        <trkpt lat="28.6226781" lon="104.5840052"><ele>614.16</ele><time>2025-12-19T22:18:59.000Z</time></trkpt>
        <trkpt lat="28.6225836" lon="104.5839794"><ele>614.53</ele><time>2025-12-19T22:19:03.000Z</time></trkpt>
        <trkpt lat="28.6225836" lon="104.5839794"><ele>614.53</ele><time>2025-12-19T22:19:18.000Z</time></trkpt>
        <trkpt lat="28.6224839" lon="104.5839503"><ele>615.27</ele><time>2025-12-19T22:19:34.000Z</time></trkpt>
        <trkpt lat="28.6224839" lon="104.5839503"><ele>615.27</ele><time>2025-12-19T22:20:03.000Z</time></trkpt>
        <trkpt lat="28.6223994" lon="104.5839023"><ele>615.49</ele><time>2025-12-19T22:20:05.000Z</time></trkpt>
        <trkpt lat="28.6223994" lon="104.5839023"><ele>615.49</ele><time>2025-12-19T22:20:08.000Z</time></trkpt>
        <trkpt lat="28.6223994" lon="104.5839023"><ele>615.49</ele><time>2025-12-19T22:20:39.000Z</time></trkpt>
        <trkpt lat="28.6223158" lon="104.5838704"><ele>615.31</ele><time>2025-12-19T22:21:05.000Z</time></trkpt>
        <trkpt lat="28.6223158" lon="104.5838704"><ele>615.31</ele><time>2025-12-19T22:21:12.000Z</time></trkpt>
        <trkpt lat="28.6222048" lon="104.5838459"><ele>615.31</ele><time>2025-12-19T22:21:22.000Z</time></trkpt>
        <trkpt lat="28.6221025" lon="104.5838315"><ele>615.34</ele><time>2025-12-19T22:21:30.000Z</time></trkpt>
        <trkpt lat="28.6219952" lon="104.5838109"><ele>615.51</ele><time>2025-12-19T22:21:38.000Z</time></trkpt>
        <trkpt lat="28.6218915" lon="104.5837856"><ele>615.63</ele><time>2025-12-19T22:21:46.000Z</time></trkpt>
        <trkpt lat="28.6217843" lon="104.5837563"><ele>615.55</ele><time>2025-12-19T22:21:54.000Z</time></trkpt>
        <trkpt lat="28.6216882" lon="104.5837074"><ele>615.49</ele><time>2025-12-19T22:22:02.000Z</time></trkpt>
        <trkpt lat="28.6215863" lon="104.5837008"><ele>615.43</ele><time>2025-12-19T22:22:10.000Z</time></trkpt>
        <trkpt lat="28.6214892" lon="104.5837307"><ele>614.96</ele><time>2025-12-19T22:22:18.000Z</time></trkpt>
        <trkpt lat="28.6214525" lon="104.5837452"><ele>614.88</ele><time>2025-12-19T22:22:24.000Z</time></trkpt>
        <trkpt lat="28.6214525" lon="104.5837452"><ele>614.88</ele><time>2025-12-19T22:23:09.000Z</time></trkpt>
        <trkpt lat="28.6213755" lon="104.5837267"><ele>614.89</ele><time>2025-12-19T22:23:13.000Z</time></trkpt>
        <trkpt lat="28.6213755" lon="104.5837267"><ele>614.89</ele><time>2025-12-19T22:23:16.000Z</time></trkpt>
        <trkpt lat="28.621282" lon="104.5837185"><ele>613.53</ele><time>2025-12-19T22:23:26.000Z</time></trkpt>
        <trkpt lat="28.6212123" lon="104.5837011"><ele>612.77</ele><time>2025-12-19T22:23:34.000Z</time></trkpt>
        <trkpt lat="28.6212618" lon="104.5837157"><ele>612.6</ele><time>2025-12-19T22:23:54.000Z</time></trkpt>
        <trkpt lat="28.6213627" lon="104.5837402"><ele>612.62</ele><time>2025-12-19T22:24:04.000Z</time></trkpt>
        <trkpt lat="28.6214738" lon="104.5837395"><ele>612.67</ele><time>2025-12-19T22:24:14.000Z</time></trkpt>
        <trkpt lat="28.6215628" lon="104.5836899"><ele>612.87</ele><time>2025-12-19T22:24:24.000Z</time></trkpt>
        <trkpt lat="28.6216585" lon="104.5836586"><ele>613.36</ele><time>2025-12-19T22:24:32.000Z</time></trkpt>
        <trkpt lat="28.6217568" lon="104.5836604"><ele>614.12</ele><time>2025-12-19T22:24:40.000Z</time></trkpt>
        <trkpt lat="28.6218281" lon="104.5837258"><ele>614.92</ele><time>2025-12-19T22:24:48.000Z</time></trkpt>
        <trkpt lat="28.6219094" lon="104.5837946"><ele>615.22</ele><time>2025-12-19T22:24:58.000Z</time></trkpt>
        <trkpt lat="28.621958" lon="104.5838751"><ele>615.2</ele><time>2025-12-19T22:25:10.000Z</time></trkpt>
        <trkpt lat="28.621958" lon="104.5838751"><ele>615.2</ele><time>2025-12-19T22:25:25.000Z</time></trkpt>
        <trkpt lat="28.6218993" lon="104.5839365"><ele>615.25</ele><time>2025-12-19T22:25:31.000Z</time></trkpt>
        <trkpt lat="28.6218993" lon="104.5839365"><ele>615.25</ele><time>2025-12-19T22:26:10.000Z</time></trkpt>
        <trkpt lat="28.6218294" lon="104.584038"><ele>612.76</ele><time>2025-12-19T22:26:18.000Z</time></trkpt>
        <trkpt lat="28.6217612" lon="104.5841355"><ele>610.02</ele><time>2025-12-19T22:26:24.000Z</time></trkpt>
        <trkpt lat="28.6217045" lon="104.5842298"><ele>607.39</ele><time>2025-12-19T22:26:30.000Z</time></trkpt>
        <trkpt lat="28.6216646" lon="104.5842626"><ele>604.75</ele><time>2025-12-19T22:26:40.000Z</time></trkpt>
        <trkpt lat="28.6216509" lon="104.5843475"><ele>603.06</ele><time>2025-12-19T22:27:06.000Z</time></trkpt>
        <trkpt lat="28.6215779" lon="104.5843847"><ele>600.65</ele><time>2025-12-19T22:27:28.000Z</time></trkpt>
        <trkpt lat="28.6215307" lon="104.5843138"><ele>596.7</ele><time>2025-12-19T22:27:36.000Z</time></trkpt>
        <trkpt lat="28.6215189" lon="104.5842014"><ele>594.47</ele><time>2025-12-19T22:27:46.000Z</time></trkpt>
        <trkpt lat="28.6214715" lon="104.5841073"><ele>592.83</ele><time>2025-12-19T22:27:56.000Z</time></trkpt>
        <trkpt lat="28.6213942" lon="104.584113"><ele>591.56</ele><time>2025-12-19T22:28:06.000Z</time></trkpt>
        <trkpt lat="28.6213192" lon="104.5841879"><ele>590.15</ele><time>2025-12-19T22:28:16.000Z</time></trkpt>
        <trkpt lat="28.6212993" lon="104.5842254"><ele>588.91</ele><time>2025-12-19T22:28:18.000Z</time></trkpt>
        <trkpt lat="28.6212563" lon="104.5843051"><ele>588.16</ele><time>2025-12-19T22:28:46.000Z</time></trkpt>
        <trkpt lat="28.6211931" lon="104.5843856"><ele>587.64</ele><time>2025-12-19T22:28:58.000Z</time></trkpt>
        <trkpt lat="28.6211931" lon="104.5843856"><ele>587.64</ele><time>2025-12-19T22:29:19.000Z</time></trkpt>
        <trkpt lat="28.6211931" lon="104.5843856"><ele>587.64</ele><time>2025-12-19T22:29:37.000Z</time></trkpt>
        <trkpt lat="28.6211931" lon="104.5843856"><ele>587.64</ele><time>2025-12-19T22:29:51.000Z</time></trkpt>
        <trkpt lat="28.6210902" lon="104.584407"><ele>587.94</ele><time>2025-12-19T22:30:01.000Z</time></trkpt>
        <trkpt lat="28.6210902" lon="104.584407"><ele>587.94</ele><time>2025-12-19T22:30:02.000Z</time></trkpt>
        <trkpt lat="28.6209973" lon="104.5843617"><ele>588.78</ele><time>2025-12-19T22:30:12.000Z</time></trkpt>
        <trkpt lat="28.6209091" lon="104.5843244"><ele>589.1</ele><time>2025-12-19T22:30:22.000Z</time></trkpt>
        <trkpt lat="28.6208442" lon="104.5842479"><ele>589.06</ele><time>2025-12-19T22:30:32.000Z</time></trkpt>
        <trkpt lat="28.6207738" lon="104.5841582"><ele>589.13</ele><time>2025-12-19T22:30:42.000Z</time></trkpt>
        <trkpt lat="28.6206835" lon="104.5840978"><ele>588.97</ele><time>2025-12-19T22:30:52.000Z</time></trkpt>
        <trkpt lat="28.6206835" lon="104.5840978"><ele>588.97</ele><time>2025-12-19T22:31:09.000Z</time></trkpt>
        <trkpt lat="28.6205942" lon="104.5841267"><ele>589.09</ele><time>2025-12-19T22:31:23.000Z</time></trkpt>
        <trkpt lat="28.6205942" lon="104.5841267"><ele>589.09</ele><time>2025-12-19T22:31:28.000Z</time></trkpt>
        <trkpt lat="28.6205197" lon="104.5841731"><ele>589.3</ele><time>2025-12-19T22:31:38.000Z</time></trkpt>
        <trkpt lat="28.6205197" lon="104.5841731"><ele>589.3</ele><time>2025-12-19T22:31:49.000Z</time></trkpt>
        <trkpt lat="28.6204515" lon="104.5841374"><ele>589.85</ele><time>2025-12-19T22:31:51.000Z</time></trkpt>
        <trkpt lat="28.6204515" lon="104.5841374"><ele>589.85</ele><time>2025-12-19T22:31:56.000Z</time></trkpt>
        <trkpt lat="28.6203698" lon="104.5841538"><ele>589.85</ele><time>2025-12-19T22:32:06.000Z</time></trkpt>
        <trkpt lat="28.6202975" lon="104.5840982"><ele>589.87</ele><time>2025-12-19T22:32:16.000Z</time></trkpt>
        <trkpt lat="28.6202474" lon="104.5839998"><ele>589.9</ele><time>2025-12-19T22:32:26.000Z</time></trkpt>
        <trkpt lat="28.6201703" lon="104.5839552"><ele>589.31</ele><time>2025-12-19T22:32:40.000Z</time></trkpt>
        <trkpt lat="28.6200792" lon="104.5839121"><ele>588.5</ele><time>2025-12-19T22:32:58.000Z</time></trkpt>
        <trkpt lat="28.6200653" lon="104.5838235"><ele>586.47</ele><time>2025-12-19T22:33:06.000Z</time></trkpt>
        <trkpt lat="28.6200999" lon="104.5837225"><ele>584.73</ele><time>2025-12-19T22:33:14.000Z</time></trkpt>
        <trkpt lat="28.6201315" lon="104.5836066"><ele>583.93</ele><time>2025-12-19T22:33:24.000Z</time></trkpt>
        <trkpt lat="28.6200706" lon="104.5835509"><ele>583.15</ele><time>2025-12-19T22:33:34.000Z</time></trkpt>
        <trkpt lat="28.619967" lon="104.583558"><ele>582.3</ele><time>2025-12-19T22:33:46.000Z</time></trkpt>
        <trkpt lat="28.6198519" lon="104.5835545"><ele>581.83</ele><time>2025-12-19T22:33:56.000Z</time></trkpt>
        <trkpt lat="28.6197568" lon="104.5835205"><ele>581.31</ele><time>2025-12-19T22:34:04.000Z</time></trkpt>
        <trkpt lat="28.6196973" lon="104.583443"><ele>580.74</ele><time>2025-12-19T22:34:12.000Z</time></trkpt>
        <trkpt lat="28.6196856" lon="104.5833336"><ele>580.02</ele><time>2025-12-19T22:34:20.000Z</time></trkpt>
        <trkpt lat="28.6196655" lon="104.5832182"><ele>579.58</ele><time>2025-12-19T22:34:28.000Z</time></trkpt>
        <trkpt lat="28.6196288" lon="104.5831182"><ele>579.61</ele><time>2025-12-19T22:34:36.000Z</time></trkpt>
        <trkpt lat="28.6196175" lon="104.5830078"><ele>580.24</ele><time>2025-12-19T22:34:46.000Z</time></trkpt>
        <trkpt lat="28.6196479" lon="104.5829074"><ele>580.37</ele><time>2025-12-19T22:34:58.000Z</time></trkpt>
        <trkpt lat="28.619637" lon="104.5829587"><ele>580.57</ele><time>2025-12-19T22:35:10.000Z</time></trkpt>
        <trkpt lat="28.619637" lon="104.5829587"><ele>580.57</ele><time>2025-12-19T22:35:25.000Z</time></trkpt>
        <trkpt lat="28.6195641" lon="104.5829873"><ele>580.66</ele><time>2025-12-19T22:35:27.000Z</time></trkpt>
        <trkpt lat="28.6195641" lon="104.5829873"><ele>580.66</ele><time>2025-12-19T22:36:00.000Z</time></trkpt>
        <trkpt lat="28.6194669" lon="104.5829819"><ele>578.98</ele><time>2025-12-19T22:36:18.000Z</time></trkpt>
        <trkpt lat="28.6193651" lon="104.5829982"><ele>576.98</ele><time>2025-12-19T22:36:40.000Z</time></trkpt>
        <trkpt lat="28.6192666" lon="104.5830075"><ele>574.57</ele><time>2025-12-19T22:37:02.000Z</time></trkpt>
        <trkpt lat="28.6191688" lon="104.5830391"><ele>572.25</ele><time>2025-12-19T22:37:16.000Z</time></trkpt>
        <trkpt lat="28.6190732" lon="104.583055"><ele>570.49</ele><time>2025-12-19T22:37:32.000Z</time></trkpt>
        <trkpt lat="28.6190732" lon="104.583055"><ele>570.49</ele><time>2025-12-19T22:37:45.000Z</time></trkpt>
        <trkpt lat="28.6189641" lon="104.5830553"><ele>568.87</ele><time>2025-12-19T22:37:47.000Z</time></trkpt>
        <trkpt lat="28.6189641" lon="104.5830553"><ele>568.87</ele><time>2025-12-19T22:38:00.000Z</time></trkpt>
        <trkpt lat="28.6188502" lon="104.5830491"><ele>567.36</ele><time>2025-12-19T22:38:08.000Z</time></trkpt>
        <trkpt lat="28.6187454" lon="104.5830157"><ele>565.23</ele><time>2025-12-19T22:38:16.000Z</time></trkpt>
        <trkpt lat="28.6186457" lon="104.5829972"><ele>562.87</ele><time>2025-12-19T22:38:26.000Z</time></trkpt>
        <trkpt lat="28.6185527" lon="104.5829984"><ele>561.18</ele><time>2025-12-19T22:38:36.000Z</time></trkpt>
        <trkpt lat="28.6184561" lon="104.5829914"><ele>558.85</ele><time>2025-12-19T22:38:50.000Z</time></trkpt>
        <trkpt lat="28.6183644" lon="104.5829754"><ele>555.6</ele><time>2025-12-19T22:39:02.000Z</time></trkpt>
        <trkpt lat="28.6183053" lon="104.5828905"><ele>552.62</ele><time>2025-12-19T22:39:14.000Z</time></trkpt>
        <trkpt lat="28.6183039" lon="104.582819"><ele>550.11</ele><time>2025-12-19T22:39:22.000Z</time></trkpt>
        <trkpt lat="28.6183828" lon="104.5827797"><ele>547.9</ele><time>2025-12-19T22:39:30.000Z</time></trkpt>
        <trkpt lat="28.6184872" lon="104.5827676"><ele>546.36</ele><time>2025-12-19T22:39:36.000Z</time></trkpt>
        <trkpt lat="28.6185886" lon="104.582744"><ele>546.1</ele><time>2025-12-19T22:39:44.000Z</time></trkpt>
        <trkpt lat="28.61868" lon="104.5826952"><ele>545.82</ele><time>2025-12-19T22:39:54.000Z</time></trkpt>
        <trkpt lat="28.6187709" lon="104.5826333"><ele>545.54</ele><time>2025-12-19T22:40:04.000Z</time></trkpt>
        <trkpt lat="28.618872" lon="104.5825975"><ele>545.35</ele><time>2025-12-19T22:40:16.000Z</time></trkpt>
        <trkpt lat="28.6189635" lon="104.5825659"><ele>545</ele><time>2025-12-19T22:40:26.000Z</time></trkpt>
        <trkpt lat="28.6190557" lon="104.5825428"><ele>543.16</ele><time>2025-12-19T22:40:36.000Z</time></trkpt>
        <trkpt lat="28.6191513" lon="104.582507"><ele>541.63</ele><time>2025-12-19T22:40:46.000Z</time></trkpt>
        <trkpt lat="28.6192364" lon="104.5824409"><ele>540.26</ele><time>2025-12-19T22:40:56.000Z</time></trkpt>
        <trkpt lat="28.6192222" lon="104.5823368"><ele>539.33</ele><time>2025-12-19T22:41:08.000Z</time></trkpt>
        <trkpt lat="28.6191496" lon="104.5822522"><ele>537.84</ele><time>2025-12-19T22:41:20.000Z</time></trkpt>
        <trkpt lat="28.6190646" lon="104.5821721"><ele>538.32</ele><time>2025-12-19T22:41:32.000Z</time></trkpt>
        <trkpt lat="28.6189613" lon="104.5821358"><ele>537.76</ele><time>2025-12-19T22:41:44.000Z</time></trkpt>
        <trkpt lat="28.618889" lon="104.5820625"><ele>536.44</ele><time>2025-12-19T22:41:56.000Z</time></trkpt>
        <trkpt lat="28.6188347" lon="104.5819761"><ele>536.24</ele><time>2025-12-19T22:42:08.000Z</time></trkpt>
        <trkpt lat="28.6187775" lon="104.5818882"><ele>535.26</ele><time>2025-12-19T22:42:18.000Z</time></trkpt>
        <trkpt lat="28.6187371" lon="104.5818043"><ele>534.31</ele><time>2025-12-19T22:42:30.000Z</time></trkpt>
        <trkpt lat="28.6186651" lon="104.5817371"><ele>533.56</ele><time>2025-12-19T22:42:46.000Z</time></trkpt>
        <trkpt lat="28.6185949" lon="104.5816688"><ele>531.9</ele><time>2025-12-19T22:42:54.000Z</time></trkpt>
        <trkpt lat="28.6185853" lon="104.5815703"><ele>530.42</ele><time>2025-12-19T22:43:06.000Z</time></trkpt>
        <trkpt lat="28.6185188" lon="104.5815146"><ele>529.1</ele><time>2025-12-19T22:43:16.000Z</time></trkpt>
        <trkpt lat="28.6184241" lon="104.58148"><ele>527.51</ele><time>2025-12-19T22:43:26.000Z</time></trkpt>
        <trkpt lat="28.618328" lon="104.581479"><ele>525.3</ele><time>2025-12-19T22:43:34.000Z</time></trkpt>
        <trkpt lat="28.6182233" lon="104.5815061"><ele>522.88</ele><time>2025-12-19T22:43:44.000Z</time></trkpt>
        <trkpt lat="28.6181183" lon="104.5815228"><ele>520.55</ele><time>2025-12-19T22:43:54.000Z</time></trkpt>
        <trkpt lat="28.6180073" lon="104.5815325"><ele>517.48</ele><time>2025-12-19T22:44:04.000Z</time></trkpt>
        <trkpt lat="28.6179101" lon="104.5815306"><ele>514.22</ele><time>2025-12-19T22:44:12.000Z</time></trkpt>
        <trkpt lat="28.617814" lon="104.5815281"><ele>511.62</ele><time>2025-12-19T22:44:20.000Z</time></trkpt>
        <trkpt lat="28.6177244" lon="104.5815067"><ele>509.74</ele><time>2025-12-19T22:44:28.000Z</time></trkpt>
        <trkpt lat="28.6176356" lon="104.5814574"><ele>508.44</ele><time>2025-12-19T22:44:36.000Z</time></trkpt>
        <trkpt lat="28.6175395" lon="104.5814451"><ele>507.97</ele><time>2025-12-19T22:44:44.000Z</time></trkpt>
        <trkpt lat="28.6174464" lon="104.5814448"><ele>508.18</ele><time>2025-12-19T22:44:52.000Z</time></trkpt>
        <trkpt lat="28.617383" lon="104.581455"><ele>508.69</ele><time>2025-12-19T22:44:58.000Z</time></trkpt>
        <trkpt lat="28.617304" lon="104.5814161"><ele>509.83</ele><time>2025-12-19T22:45:14.000Z</time></trkpt>
        <trkpt lat="28.6172047" lon="104.5813797"><ele>509.8</ele><time>2025-12-19T22:45:24.000Z</time></trkpt>
        <trkpt lat="28.6171081" lon="104.5813364"><ele>510.31</ele><time>2025-12-19T22:45:34.000Z</time></trkpt>
        <trkpt lat="28.617011" lon="104.5813217"><ele>509.85</ele><time>2025-12-19T22:45:44.000Z</time></trkpt>
        <trkpt lat="28.6169514" lon="104.5813212"><ele>509.29</ele><time>2025-12-19T22:45:54.000Z</time></trkpt>
        <trkpt lat="28.6168762" lon="104.581281"><ele>509.77</ele><time>2025-12-19T22:46:06.000Z</time></trkpt>
        <trkpt lat="28.6167938" lon="104.5812264"><ele>508.27</ele><time>2025-12-19T22:46:16.000Z</time></trkpt>
        <trkpt lat="28.6167346" lon="104.581142"><ele>505.97</ele><time>2025-12-19T22:46:26.000Z</time></trkpt>
        <trkpt lat="28.6166597" lon="104.581066"><ele>503.63</ele><time>2025-12-19T22:46:36.000Z</time></trkpt>
        <trkpt lat="28.616586" lon="104.5809957"><ele>501.21</ele><time>2025-12-19T22:46:44.000Z</time></trkpt>
        <trkpt lat="28.6164969" lon="104.5809476"><ele>498.88</ele><time>2025-12-19T22:46:54.000Z</time></trkpt>
        <trkpt lat="28.6164062" lon="104.5808969"><ele>497.59</ele><time>2025-12-19T22:47:06.000Z</time></trkpt>
        <trkpt lat="28.6163061" lon="104.5808945"><ele>497.5</ele><time>2025-12-19T22:48:38.000Z</time></trkpt>
        <trkpt lat="28.6163062" lon="104.5808932"><ele>498.66</ele><time>2025-12-19T22:48:40.000Z</time></trkpt>
        <trkpt lat="28.6163062" lon="104.5808932"><ele>498.66</ele><time>2025-12-19T22:48:49.000Z</time></trkpt>
        <trkpt lat="28.6163062" lon="104.5808932"><ele>498.66</ele><time>2025-12-19T22:49:49.000Z</time></trkpt>
        <trkpt lat="28.6163062" lon="104.5808932"><ele>498.66</ele><time>2025-12-19T22:50:23.000Z</time></trkpt>
        <trkpt lat="28.6163062" lon="104.5808932"><ele>498.66</ele><time>2025-12-19T22:50:35.000Z</time></trkpt>
        <trkpt lat="28.6163062" lon="104.5808932"><ele>498.66</ele><time>2025-12-19T22:50:51.000Z</time></trkpt>
        <trkpt lat="28.6163062" lon="104.5808932"><ele>498.66</ele><time>2025-12-19T22:50:53.000Z</time></trkpt>
        <trkpt lat="28.6163062" lon="104.5808932"><ele>498.66</ele><time>2025-12-19T22:51:07.000Z</time></trkpt>
        <trkpt lat="28.6163062" lon="104.5808932"><ele>498.66</ele><time>2025-12-19T22:51:45.000Z</time></trkpt>
        <trkpt lat="28.6163062" lon="104.5808932"><ele>498.66</ele><time>2025-12-19T22:52:15.000Z</time></trkpt>
        <trkpt lat="28.6163062" lon="104.5808932"><ele>498.66</ele><time>2025-12-19T22:52:19.000Z</time></trkpt>
        <trkpt lat="28.6163062" lon="104.5808932"><ele>498.66</ele><time>2025-12-19T22:53:33.000Z</time></trkpt>
        <trkpt lat="28.6163062" lon="104.5808932"><ele>498.66</ele><time>2025-12-19T22:53:43.000Z</time></trkpt>
        <trkpt lat="28.6163062" lon="104.5808932"><ele>498.66</ele><time>2025-12-19T22:54:03.000Z</time></trkpt>
        <trkpt lat="28.6163948" lon="104.5809253"><ele>499.22</ele><time>2025-12-19T22:54:05.000Z</time></trkpt>
        <trkpt lat="28.6163948" lon="104.5809253"><ele>499.22</ele><time>2025-12-19T22:54:26.000Z</time></trkpt>
        <trkpt lat="28.616429" lon="104.5809123"><ele>498.25</ele><time>2025-12-19T22:54:32.000Z</time></trkpt>
        <trkpt lat="28.616429" lon="104.5809123"><ele>498.25</ele><time>2025-12-19T22:54:43.000Z</time></trkpt>
        <trkpt lat="28.616324" lon="104.5808991"><ele>497.67</ele><time>2025-12-19T22:55:59.000Z</time></trkpt>
        <trkpt lat="28.616324" lon="104.5808991"><ele>497.67</ele><time>2025-12-19T22:56:04.000Z</time></trkpt>
        <trkpt lat="28.616324" lon="104.5808991"><ele>497.67</ele><time>2025-12-19T22:56:33.000Z</time></trkpt>
        <trkpt lat="28.616324" lon="104.5808991"><ele>497.67</ele><time>2025-12-19T22:56:47.000Z</time></trkpt>
        <trkpt lat="28.616324" lon="104.5808991"><ele>497.67</ele><time>2025-12-19T22:57:23.000Z</time></trkpt>
        <trkpt lat="28.6162047" lon="104.5810197"><ele>496.9</ele><time>2025-12-19T22:57:31.000Z</time></trkpt>
        <trkpt lat="28.6162047" lon="104.5810197"><ele>496.9</ele><time>2025-12-19T22:57:42.000Z</time></trkpt>
        <trkpt lat="28.6162047" lon="104.5810197"><ele>496.9</ele><time>2025-12-19T22:57:57.000Z</time></trkpt>
        <trkpt lat="28.6161204" lon="104.5810573"><ele>494.53</ele><time>2025-12-19T22:58:13.000Z</time></trkpt>
        <trkpt lat="28.6161204" lon="104.5810573"><ele>494.53</ele><time>2025-12-19T22:58:24.000Z</time></trkpt>
        <trkpt lat="28.6160282" lon="104.5810766"><ele>492.55</ele><time>2025-12-19T22:58:38.000Z</time></trkpt>
        <trkpt lat="28.6159323" lon="104.5810954"><ele>489.87</ele><time>2025-12-19T22:58:52.000Z</time></trkpt>
        <trkpt lat="28.6159556" lon="104.5811686"><ele>487.53</ele><time>2025-12-19T22:59:04.000Z</time></trkpt>
        <trkpt lat="28.6159061" lon="104.5812321"><ele>484.97</ele><time>2025-12-19T22:59:16.000Z</time></trkpt>
        <trkpt lat="28.6158179" lon="104.5812626"><ele>482.6</ele><time>2025-12-19T22:59:38.000Z</time></trkpt>
        <trkpt lat="28.6157212" lon="104.5813063"><ele>480.68</ele><time>2025-12-19T23:00:12.000Z</time></trkpt>
        <trkpt lat="28.6156181" lon="104.5813372"><ele>477.76</ele><time>2025-12-19T23:00:22.000Z</time></trkpt>
        <trkpt lat="28.6155213" lon="104.5813298"><ele>475.09</ele><time>2025-12-19T23:00:48.000Z</time></trkpt>
        <trkpt lat="28.6154219" lon="104.5813351"><ele>470.27</ele><time>2025-12-19T23:00:56.000Z</time></trkpt>
        <trkpt lat="28.6153259" lon="104.5813466"><ele>467.08</ele><time>2025-12-19T23:01:04.000Z</time></trkpt>
        <trkpt lat="28.6152311" lon="104.5813386"><ele>464.87</ele><time>2025-12-19T23:01:16.000Z</time></trkpt>
        <trkpt lat="28.615176" lon="104.5812424"><ele>463.24</ele><time>2025-12-19T23:01:38.000Z</time></trkpt>
        <trkpt lat="28.6150829" lon="104.5812061"><ele>460.16</ele><time>2025-12-19T23:01:46.000Z</time></trkpt>
        <trkpt lat="28.6149775" lon="104.5811736"><ele>458.74</ele><time>2025-12-19T23:01:56.000Z</time></trkpt>
        <trkpt lat="28.6148811" lon="104.5811383"><ele>457.59</ele><time>2025-12-19T23:02:04.000Z</time></trkpt>
        <trkpt lat="28.6147837" lon="104.5811122"><ele>456.32</ele><time>2025-12-19T23:02:14.000Z</time></trkpt>
        <trkpt lat="28.6146958" lon="104.5810575"><ele>454.53</ele><time>2025-12-19T23:02:24.000Z</time></trkpt>
        <trkpt lat="28.6146237" lon="104.5809659"><ele>452.63</ele><time>2025-12-19T23:02:34.000Z</time></trkpt>
        <trkpt lat="28.6145879" lon="104.5808591"><ele>450.36</ele><time>2025-12-19T23:02:42.000Z</time></trkpt>
        <trkpt lat="28.614644" lon="104.580827"><ele>448.41</ele><time>2025-12-19T23:02:52.000Z</time></trkpt>
        <trkpt lat="28.614644" lon="104.580827"><ele>448.41</ele><time>2025-12-19T23:03:07.000Z</time></trkpt>
        <trkpt lat="28.614644" lon="104.580827"><ele>448.41</ele><time>2025-12-19T23:03:23.000Z</time></trkpt>
        <trkpt lat="28.614644" lon="104.580827"><ele>448.41</ele><time>2025-12-19T23:03:41.000Z</time></trkpt>
        <trkpt lat="28.6146969" lon="104.5807474"><ele>446.61</ele><time>2025-12-19T23:03:45.000Z</time></trkpt>
        <trkpt lat="28.6146969" lon="104.5807474"><ele>446.61</ele><time>2025-12-19T23:03:48.000Z</time></trkpt>
        <trkpt lat="28.6147516" lon="104.5806493"><ele>445</ele><time>2025-12-19T23:04:00.000Z</time></trkpt>
        <trkpt lat="28.6148396" lon="104.5806088"><ele>444.55</ele><time>2025-12-19T23:04:12.000Z</time></trkpt>
        <trkpt lat="28.6149358" lon="104.5805854"><ele>444.74</ele><time>2025-12-19T23:04:22.000Z</time></trkpt>
        <trkpt lat="28.6150263" lon="104.5805354"><ele>445.05</ele><time>2025-12-19T23:04:32.000Z</time></trkpt>
        <trkpt lat="28.6151021" lon="104.5804686"><ele>444.63</ele><time>2025-12-19T23:04:40.000Z</time></trkpt>
        <trkpt lat="28.6151797" lon="104.5803872"><ele>444.52</ele><time>2025-12-19T23:04:50.000Z</time></trkpt>
        <trkpt lat="28.6152736" lon="104.580323"><ele>444.15</ele><time>2025-12-19T23:05:00.000Z</time></trkpt>
        <trkpt lat="28.6153508" lon="104.5802581"><ele>444.21</ele><time>2025-12-19T23:05:10.000Z</time></trkpt>
        <trkpt lat="28.615361" lon="104.5801566"><ele>444.21</ele><time>2025-12-19T23:05:22.000Z</time></trkpt>
        <trkpt lat="28.6153135" lon="104.5800574"><ele>444.09</ele><time>2025-12-19T23:05:32.000Z</time></trkpt>
        <trkpt lat="28.6152741" lon="104.5799506"><ele>444.23</ele><time>2025-12-19T23:05:44.000Z</time></trkpt>
        <trkpt lat="28.6152932" lon="104.5798412"><ele>444.73</ele><time>2025-12-19T23:05:58.000Z</time></trkpt>
        <trkpt lat="28.6153111" lon="104.579732"><ele>445.91</ele><time>2025-12-19T23:06:12.000Z</time></trkpt>
        <trkpt lat="28.6153111" lon="104.579732"><ele>445.91</ele><time>2025-12-19T23:07:01.000Z</time></trkpt>
        <trkpt lat="28.6153111" lon="104.579732"><ele>445.91</ele><time>2025-12-19T23:07:23.000Z</time></trkpt>
        <trkpt lat="28.6153111" lon="104.579732"><ele>445.91</ele><time>2025-12-19T23:07:27.000Z</time></trkpt>
      </trkseg>
      <trkseg>
        <trkpt lat="28.6152191" lon="104.579688"><ele>446.6</ele><time>2025-12-19T23:08:19.000Z</time></trkpt>
        <trkpt lat="28.6152191" lon="104.579688"><ele>446.6</ele><time>2025-12-19T23:08:30.000Z</time></trkpt>
        <trkpt lat="28.6151064" lon="104.5796985"><ele>446.78</ele><time>2025-12-19T23:08:38.000Z</time></trkpt>
        <trkpt lat="28.615015" lon="104.5797699"><ele>446.47</ele><time>2025-12-19T23:08:46.000Z</time></trkpt>
        <trkpt lat="28.6149294" lon="104.5798517"><ele>446.77</ele><time>2025-12-19T23:08:54.000Z</time></trkpt>
        <trkpt lat="28.6148453" lon="104.5799103"><ele>447.04</ele><time>2025-12-19T23:09:02.000Z</time></trkpt>
        <trkpt lat="28.6147759" lon="104.5799201"><ele>447.19</ele><time>2025-12-19T23:09:10.000Z</time></trkpt>
        <trkpt lat="28.6147038" lon="104.5799768"><ele>447.07</ele><time>2025-12-19T23:09:22.000Z</time></trkpt>
        <trkpt lat="28.6146297" lon="104.5800574"><ele>447.44</ele><time>2025-12-19T23:09:34.000Z</time></trkpt>
        <trkpt lat="28.6145561" lon="104.5801257"><ele>447.02</ele><time>2025-12-19T23:09:44.000Z</time></trkpt>
        <trkpt lat="28.6144753" lon="104.5801839"><ele>446.45</ele><time>2025-12-19T23:09:56.000Z</time></trkpt>
        <trkpt lat="28.6143825" lon="104.580179"><ele>445.67</ele><time>2025-12-19T23:10:06.000Z</time></trkpt>
        <trkpt lat="28.6142985" lon="104.5801228"><ele>445.34</ele><time>2025-12-19T23:10:16.000Z</time></trkpt>
        <trkpt lat="28.6142252" lon="104.580045"><ele>445.14</ele><time>2025-12-19T23:10:26.000Z</time></trkpt>
        <trkpt lat="28.6141547" lon="104.5799495"><ele>445.23</ele><time>2025-12-19T23:10:36.000Z</time></trkpt>
        <trkpt lat="28.6141491" lon="104.5798394"><ele>445.42</ele><time>2025-12-19T23:10:48.000Z</time></trkpt>
        <trkpt lat="28.6141252" lon="104.5797376"><ele>446.47</ele><time>2025-12-19T23:10:58.000Z</time></trkpt>
        <trkpt lat="28.6141255" lon="104.5796321"><ele>447.05</ele><time>2025-12-19T23:11:08.000Z</time></trkpt>
        <trkpt lat="28.6141653" lon="104.5795325"><ele>447.32</ele><time>2025-12-19T23:11:18.000Z</time></trkpt>
        <trkpt lat="28.6141891" lon="104.579461"><ele>447.72</ele><time>2025-12-19T23:11:28.000Z</time></trkpt>
        <trkpt lat="28.6142483" lon="104.579396"><ele>448.24</ele><time>2025-12-19T23:11:38.000Z</time></trkpt>
        <trkpt lat="28.6142885" lon="104.5793052"><ele>448.99</ele><time>2025-12-19T23:11:46.000Z</time></trkpt>
        <trkpt lat="28.6143159" lon="104.5791994"><ele>449.1</ele><time>2025-12-19T23:11:54.000Z</time></trkpt>
        <trkpt lat="28.6143452" lon="104.5790974"><ele>449.26</ele><time>2025-12-19T23:12:02.000Z</time></trkpt>
        <trkpt lat="28.6143619" lon="104.5789891"><ele>449.18</ele><time>2025-12-19T23:12:12.000Z</time></trkpt>
        <trkpt lat="28.6143283" lon="104.5788839"><ele>449.45</ele><time>2025-12-19T23:12:22.000Z</time></trkpt>
        <trkpt lat="28.6142378" lon="104.5788423"><ele>448.91</ele><time>2025-12-19T23:12:32.000Z</time></trkpt>
        <trkpt lat="28.6141593" lon="104.5788221"><ele>448.27</ele><time>2025-12-19T23:12:40.000Z</time></trkpt>
        <trkpt lat="28.614121" lon="104.5787436"><ele>447.85</ele><time>2025-12-19T23:12:54.000Z</time></trkpt>
        <trkpt lat="28.6140677" lon="104.5786513"><ele>449.45</ele><time>2025-12-19T23:13:26.000Z</time></trkpt>
        <trkpt lat="28.613997" lon="104.5786726"><ele>451.82</ele><time>2025-12-19T23:13:50.000Z</time></trkpt>
        <trkpt lat="28.6139633" lon="104.5786938"><ele>454.12</ele><time>2025-12-19T23:13:54.000Z</time></trkpt>
        <trkpt lat="28.6138902" lon="104.5786802"><ele>455.47</ele><time>2025-12-19T23:14:44.000Z</time></trkpt>
        <trkpt lat="28.6137906" lon="104.5786575"><ele>458.59</ele><time>2025-12-19T23:14:58.000Z</time></trkpt>
        <trkpt lat="28.6136863" lon="104.5786156"><ele>461.77</ele><time>2025-12-19T23:15:10.000Z</time></trkpt>
        <trkpt lat="28.6136096" lon="104.5785388"><ele>464.37</ele><time>2025-12-19T23:15:24.000Z</time></trkpt>
        <trkpt lat="28.613518" lon="104.5785183"><ele>467.85</ele><time>2025-12-19T23:15:40.000Z</time></trkpt>
        <trkpt lat="28.6134231" lon="104.5785043"><ele>471.91</ele><time>2025-12-19T23:15:54.000Z</time></trkpt>
        <trkpt lat="28.6133326" lon="104.5784851"><ele>475.93</ele><time>2025-12-19T23:16:12.000Z</time></trkpt>
        <trkpt lat="28.613253" lon="104.5784229"><ele>478.83</ele><time>2025-12-19T23:16:32.000Z</time></trkpt>
        <trkpt lat="28.6132096" lon="104.5783216"><ele>483.01</ele><time>2025-12-19T23:16:48.000Z</time></trkpt>
        <trkpt lat="28.6131505" lon="104.578223"><ele>486.98</ele><time>2025-12-19T23:17:04.000Z</time></trkpt>
        <trkpt lat="28.6130906" lon="104.5781234"><ele>490.23</ele><time>2025-12-19T23:17:20.000Z</time></trkpt>
        <trkpt lat="28.6130396" lon="104.5780266"><ele>493.22</ele><time>2025-12-19T23:17:32.000Z</time></trkpt>
        <trkpt lat="28.6130634" lon="104.5779283"><ele>495.63</ele><time>2025-12-19T23:17:42.000Z</time></trkpt>
        <trkpt lat="28.6130185" lon="104.5778601"><ele>497.09</ele><time>2025-12-19T23:18:02.000Z</time></trkpt>
        <trkpt lat="28.6129621" lon="104.5777803"><ele>499.84</ele><time>2025-12-19T23:18:16.000Z</time></trkpt>
        <trkpt lat="28.6128998" lon="104.5776889"><ele>502.98</ele><time>2025-12-19T23:18:30.000Z</time></trkpt>
        <trkpt lat="28.61285" lon="104.5775898"><ele>505.35</ele><time>2025-12-19T23:18:44.000Z</time></trkpt>
        <trkpt lat="28.61285" lon="104.5775898"><ele>505.35</ele><time>2025-12-19T23:18:59.000Z</time></trkpt>
        <trkpt lat="28.612764" lon="104.577542"><ele>508.62</ele><time>2025-12-19T23:19:03.000Z</time></trkpt>
        <trkpt lat="28.612764" lon="104.577542"><ele>508.62</ele><time>2025-12-19T23:19:20.000Z</time></trkpt>
        <trkpt lat="28.6127188" lon="104.5775145"><ele>509.84</ele><time>2025-12-19T23:19:24.000Z</time></trkpt>
        <trkpt lat="28.6127188" lon="104.5775145"><ele>509.84</ele><time>2025-12-19T23:19:57.000Z</time></trkpt>
        <trkpt lat="28.6127188" lon="104.5775145"><ele>509.84</ele><time>2025-12-19T23:20:03.000Z</time></trkpt>
        <trkpt lat="28.6127188" lon="104.5775145"><ele>509.84</ele><time>2025-12-19T23:20:29.000Z</time></trkpt>
        <trkpt lat="28.6126203" lon="104.5775128"><ele>511.03</ele><time>2025-12-19T23:21:11.000Z</time></trkpt>
        <trkpt lat="28.6126203" lon="104.5775128"><ele>511.03</ele><time>2025-12-19T23:21:24.000Z</time></trkpt>
        <trkpt lat="28.6125318" lon="104.577469"><ele>510.26</ele><time>2025-12-19T23:21:32.000Z</time></trkpt>
        <trkpt lat="28.6124901" lon="104.5773774"><ele>510.51</ele><time>2025-12-19T23:21:42.000Z</time></trkpt>
        <trkpt lat="28.6124572" lon="104.5772811"><ele>511.54</ele><time>2025-12-19T23:21:52.000Z</time></trkpt>
        <trkpt lat="28.6124284" lon="104.5771663"><ele>513.28</ele><time>2025-12-19T23:22:04.000Z</time></trkpt>
        <trkpt lat="28.6123918" lon="104.5770613"><ele>515.19</ele><time>2025-12-19T23:22:14.000Z</time></trkpt>
        <trkpt lat="28.6123422" lon="104.5769619"><ele>517</ele><time>2025-12-19T23:22:26.000Z</time></trkpt>
        <trkpt lat="28.6123072" lon="104.5768554"><ele>518.83</ele><time>2025-12-19T23:22:38.000Z</time></trkpt>
        <trkpt lat="28.6122896" lon="104.5767471"><ele>520.37</ele><time>2025-12-19T23:22:48.000Z</time></trkpt>
        <trkpt lat="28.612282" lon="104.5766332"><ele>521.86</ele><time>2025-12-19T23:23:00.000Z</time></trkpt>
        <trkpt lat="28.6122837" lon="104.5765727"><ele>523.8</ele><time>2025-12-19T23:23:06.000Z</time></trkpt>
        <trkpt lat="28.6122658" lon="104.5764893"><ele>525.13</ele><time>2025-12-19T23:23:16.000Z</time></trkpt>
        <trkpt lat="28.6122122" lon="104.5764127"><ele>525.88</ele><time>2025-12-19T23:23:26.000Z</time></trkpt>
        <trkpt lat="28.6121598" lon="104.5763101"><ele>527.09</ele><time>2025-12-19T23:23:38.000Z</time></trkpt>
        <trkpt lat="28.612124" lon="104.5762057"><ele>528.35</ele><time>2025-12-19T23:23:48.000Z</time></trkpt>
        <trkpt lat="28.6121093" lon="104.5760933"><ele>529.09</ele><time>2025-12-19T23:23:58.000Z</time></trkpt>
        <trkpt lat="28.6121408" lon="104.5759873"><ele>528.85</ele><time>2025-12-19T23:24:06.000Z</time></trkpt>
        <trkpt lat="28.612151" lon="104.5758661"><ele>528.57</ele><time>2025-12-19T23:24:16.000Z</time></trkpt>
        <trkpt lat="28.6120967" lon="104.5757763"><ele>528.26</ele><time>2025-12-19T23:24:26.000Z</time></trkpt>
        <trkpt lat="28.6120134" lon="104.5757098"><ele>528.08</ele><time>2025-12-19T23:24:36.000Z</time></trkpt>
        <trkpt lat="28.6119327" lon="104.5756478"><ele>528.78</ele><time>2025-12-19T23:24:46.000Z</time></trkpt>
        <trkpt lat="28.6118624" lon="104.5755714"><ele>528.73</ele><time>2025-12-19T23:24:58.000Z</time></trkpt>
        <trkpt lat="28.6118624" lon="104.5755714"><ele>528.73</ele><time>2025-12-19T23:25:15.000Z</time></trkpt>
        <trkpt lat="28.6118041" lon="104.5754837"><ele>528.12</ele><time>2025-12-19T23:25:17.000Z</time></trkpt>
        <trkpt lat="28.6118041" lon="104.5754837"><ele>528.12</ele><time>2025-12-19T23:25:24.000Z</time></trkpt>
        <trkpt lat="28.6117874" lon="104.5753772"><ele>527.73</ele><time>2025-12-19T23:25:36.000Z</time></trkpt>
        <trkpt lat="28.61179" lon="104.5752673"><ele>527.24</ele><time>2025-12-19T23:25:46.000Z</time></trkpt>
        <trkpt lat="28.6118036" lon="104.575157"><ele>526.36</ele><time>2025-12-19T23:26:02.000Z</time></trkpt>
        <trkpt lat="28.6117921" lon="104.5750373"><ele>525.35</ele><time>2025-12-19T23:26:16.000Z</time></trkpt>
        <trkpt lat="28.6117889" lon="104.575006"><ele>524.97</ele><time>2025-12-19T23:26:18.000Z</time></trkpt>
        <trkpt lat="28.6117215" lon="104.5749873"><ele>524.79</ele><time>2025-12-19T23:27:02.000Z</time></trkpt>
        <trkpt lat="28.6116539" lon="104.5749219"><ele>524.19</ele><time>2025-12-19T23:27:14.000Z</time></trkpt>
        <trkpt lat="28.6115561" lon="104.5749188"><ele>524.7</ele><time>2025-12-19T23:27:28.000Z</time></trkpt>
        <trkpt lat="28.6114557" lon="104.574908"><ele>525.89</ele><time>2025-12-19T23:27:40.000Z</time></trkpt>
        <trkpt lat="28.6113714" lon="104.5748626"><ele>528.49</ele><time>2025-12-19T23:27:54.000Z</time></trkpt>
        <trkpt lat="28.6112959" lon="104.5747971"><ele>530.7</ele><time>2025-12-19T23:28:12.000Z</time></trkpt>
        <trkpt lat="28.6112575" lon="104.5746987"><ele>531.77</ele><time>2025-12-19T23:28:22.000Z</time></trkpt>
        <trkpt lat="28.6112356" lon="104.5745895"><ele>531.45</ele><time>2025-12-19T23:28:30.000Z</time></trkpt>
        <trkpt lat="28.611212" lon="104.5744766"><ele>530.64</ele><time>2025-12-19T23:28:40.000Z</time></trkpt>
        <trkpt lat="28.6111705" lon="104.574372"><ele>528.62</ele><time>2025-12-19T23:29:04.000Z</time></trkpt>
        <trkpt lat="28.6111377" lon="104.5742618"><ele>527.79</ele><time>2025-12-19T23:29:12.000Z</time></trkpt>
        <trkpt lat="28.6111155" lon="104.5741404"><ele>527.22</ele><time>2025-12-19T23:29:20.000Z</time></trkpt>
        <trkpt lat="28.6110795" lon="104.574027"><ele>527.26</ele><time>2025-12-19T23:29:30.000Z</time></trkpt>
        <trkpt lat="28.6110651" lon="104.5739086"><ele>528.95</ele><time>2025-12-19T23:29:42.000Z</time></trkpt>
        <trkpt lat="28.6110474" lon="104.5737989"><ele>528.62</ele><time>2025-12-19T23:29:54.000Z</time></trkpt>
        <trkpt lat="28.6110022" lon="104.5737013"><ele>526.82</ele><time>2025-12-19T23:30:04.000Z</time></trkpt>
        <trkpt lat="28.6109728" lon="104.573601"><ele>525.33</ele><time>2025-12-19T23:30:14.000Z</time></trkpt>
        <trkpt lat="28.6109232" lon="104.5735023"><ele>523.66</ele><time>2025-12-19T23:30:26.000Z</time></trkpt>
        <trkpt lat="28.6108584" lon="104.5734246"><ele>521.68</ele><time>2025-12-19T23:30:34.000Z</time></trkpt>
        <trkpt lat="28.6107885" lon="104.5733501"><ele>520.39</ele><time>2025-12-19T23:30:42.000Z</time></trkpt>
        <trkpt lat="28.6107155" lon="104.5732713"><ele>519.63</ele><time>2025-12-19T23:30:50.000Z</time></trkpt>
        <trkpt lat="28.6106563" lon="104.5731882"><ele>517.9</ele><time>2025-12-19T23:31:04.000Z</time></trkpt>
        <trkpt lat="28.6106333" lon="104.5730871"><ele>515.4</ele><time>2025-12-19T23:31:14.000Z</time></trkpt>
        <trkpt lat="28.6106346" lon="104.57297"><ele>513.32</ele><time>2025-12-19T23:31:28.000Z</time></trkpt>
        <trkpt lat="28.6106154" lon="104.5728527"><ele>511.22</ele><time>2025-12-19T23:31:38.000Z</time></trkpt>
        <trkpt lat="28.6105752" lon="104.5727439"><ele>509.08</ele><time>2025-12-19T23:31:48.000Z</time></trkpt>
        <trkpt lat="28.6105058" lon="104.5726493"><ele>507.28</ele><time>2025-12-19T23:31:58.000Z</time></trkpt>
        <trkpt lat="28.6104368" lon="104.5725495"><ele>505.33</ele><time>2025-12-19T23:32:08.000Z</time></trkpt>
        <trkpt lat="28.6103675" lon="104.5724686"><ele>503.69</ele><time>2025-12-19T23:32:22.000Z</time></trkpt>
        <trkpt lat="28.6102926" lon="104.5723948"><ele>502.71</ele><time>2025-12-19T23:33:00.000Z</time></trkpt>
        <trkpt lat="28.6102375" lon="104.5722978"><ele>500.96</ele><time>2025-12-19T23:33:10.000Z</time></trkpt>
        <trkpt lat="28.610201" lon="104.572185"><ele>501.55</ele><time>2025-12-19T23:33:20.000Z</time></trkpt>
        <trkpt lat="28.6102133" lon="104.5720778"><ele>503.25</ele><time>2025-12-19T23:33:30.000Z</time></trkpt>
        <trkpt lat="28.6102469" lon="104.5719763"><ele>505.93</ele><time>2025-12-19T23:33:40.000Z</time></trkpt>
        <trkpt lat="28.610268" lon="104.5718716"><ele>509.18</ele><time>2025-12-19T23:33:56.000Z</time></trkpt>
        <trkpt lat="28.6102287" lon="104.5717826"><ele>512.81</ele><time>2025-12-19T23:34:10.000Z</time></trkpt>
        <trkpt lat="28.6101672" lon="104.5717013"><ele>516.66</ele><time>2025-12-19T23:34:36.000Z</time></trkpt>
        <trkpt lat="28.6101081" lon="104.5716158"><ele>518.92</ele><time>2025-12-19T23:35:02.000Z</time></trkpt>
        <trkpt lat="28.6100466" lon="104.5715288"><ele>521.87</ele><time>2025-12-19T23:35:24.000Z</time></trkpt>
        <trkpt lat="28.6099896" lon="104.5714425"><ele>526.48</ele><time>2025-12-19T23:35:44.000Z</time></trkpt>
        <trkpt lat="28.6099385" lon="104.571352"><ele>531.03</ele><time>2025-12-19T23:36:04.000Z</time></trkpt>
        <trkpt lat="28.6099149" lon="104.5712484"><ele>534.71</ele><time>2025-12-19T23:36:18.000Z</time></trkpt>
        <trkpt lat="28.6099072" lon="104.5711367"><ele>536.66</ele><time>2025-12-19T23:36:34.000Z</time></trkpt>
        <trkpt lat="28.6099018" lon="104.5710298"><ele>538.47</ele><time>2025-12-19T23:36:46.000Z</time></trkpt>
        <trkpt lat="28.6098856" lon="104.5709256"><ele>540.31</ele><time>2025-12-19T23:36:56.000Z</time></trkpt>
        <trkpt lat="28.6098502" lon="104.570817"><ele>542.4</ele><time>2025-12-19T23:37:10.000Z</time></trkpt>
        <trkpt lat="28.6098147" lon="104.5707137"><ele>544.36</ele><time>2025-12-19T23:37:24.000Z</time></trkpt>
        <trkpt lat="28.6097899" lon="104.5706115"><ele>546.22</ele><time>2025-12-19T23:37:38.000Z</time></trkpt>
        <trkpt lat="28.6097623" lon="104.5704984"><ele>548.79</ele><time>2025-12-19T23:37:56.000Z</time></trkpt>
        <trkpt lat="28.6097266" lon="104.5703891"><ele>552.06</ele><time>2025-12-19T23:38:08.000Z</time></trkpt>
        <trkpt lat="28.6096724" lon="104.5702993"><ele>554.74</ele><time>2025-12-19T23:38:22.000Z</time></trkpt>
        <trkpt lat="28.6096214" lon="104.5702009"><ele>558.06</ele><time>2025-12-19T23:38:52.000Z</time></trkpt>
        <trkpt lat="28.6095563" lon="104.5701178"><ele>560.32</ele><time>2025-12-19T23:39:04.000Z</time></trkpt>
        <trkpt lat="28.6094964" lon="104.5700268"><ele>561.53</ele><time>2025-12-19T23:39:16.000Z</time></trkpt>
        <trkpt lat="28.6094304" lon="104.5699325"><ele>562.16</ele><time>2025-12-19T23:39:28.000Z</time></trkpt>
        <trkpt lat="28.6093634" lon="104.5698382"><ele>562.27</ele><time>2025-12-19T23:39:38.000Z</time></trkpt>
        <trkpt lat="28.6093335" lon="104.5697389"><ele>561.65</ele><time>2025-12-19T23:39:48.000Z</time></trkpt>
        <trkpt lat="28.609293" lon="104.5696332"><ele>561.22</ele><time>2025-12-19T23:40:00.000Z</time></trkpt>
        <trkpt lat="28.6092538" lon="104.5695344"><ele>560.69</ele><time>2025-12-19T23:40:08.000Z</time></trkpt>
        <trkpt lat="28.6092217" lon="104.569433"><ele>560.46</ele><time>2025-12-19T23:40:18.000Z</time></trkpt>
        <trkpt lat="28.6091767" lon="104.569331"><ele>560.2</ele><time>2025-12-19T23:40:28.000Z</time></trkpt>
        <trkpt lat="28.609143" lon="104.5692284"><ele>559.83</ele><time>2025-12-19T23:40:42.000Z</time></trkpt>
        <trkpt lat="28.6090853" lon="104.569141"><ele>559.09</ele><time>2025-12-19T23:40:58.000Z</time></trkpt>
        <trkpt lat="28.609008" lon="104.569066"><ele>558.23</ele><time>2025-12-19T23:41:12.000Z</time></trkpt>
        <trkpt lat="28.6089302" lon="104.5690009"><ele>556.04</ele><time>2025-12-19T23:41:22.000Z</time></trkpt>
        <trkpt lat="28.6088658" lon="104.5689207"><ele>553.9</ele><time>2025-12-19T23:41:36.000Z</time></trkpt>
        <trkpt lat="28.6087772" lon="104.5688949"><ele>553.61</ele><time>2025-12-19T23:42:52.000Z</time></trkpt>
        <trkpt lat="28.6086892" lon="104.5688431"><ele>555.29</ele><time>2025-12-19T23:43:02.000Z</time></trkpt>
        <trkpt lat="28.608614" lon="104.568763"><ele>557.77</ele><time>2025-12-19T23:43:14.000Z</time></trkpt>
        <trkpt lat="28.6085431" lon="104.5686846"><ele>558.63</ele><time>2025-12-19T23:43:24.000Z</time></trkpt>
        <trkpt lat="28.6084722" lon="104.5686119"><ele>559.78</ele><time>2025-12-19T23:43:36.000Z</time></trkpt>
        <trkpt lat="28.6083921" lon="104.5685448"><ele>560.79</ele><time>2025-12-19T23:43:48.000Z</time></trkpt>
        <trkpt lat="28.6083053" lon="104.5684951"><ele>561.84</ele><time>2025-12-19T23:44:02.000Z</time></trkpt>
        <trkpt lat="28.6082225" lon="104.5684438"><ele>562.87</ele><time>2025-12-19T23:44:18.000Z</time></trkpt>
        <trkpt lat="28.6081296" lon="104.5683896"><ele>565.53</ele><time>2025-12-19T23:44:32.000Z</time></trkpt>
        <trkpt lat="28.6080637" lon="104.5683067"><ele>567.58</ele><time>2025-12-19T23:44:42.000Z</time></trkpt>
        <trkpt lat="28.6080017" lon="104.5682209"><ele>568.16</ele><time>2025-12-19T23:44:52.000Z</time></trkpt>
        <trkpt lat="28.6079425" lon="104.5681601"><ele>568.36</ele><time>2025-12-19T23:45:04.000Z</time></trkpt>
        <trkpt lat="28.6079425" lon="104.5681601"><ele>568.36</ele><time>2025-12-19T23:45:13.000Z</time></trkpt>
        <trkpt lat="28.6079425" lon="104.5681601"><ele>568.36</ele><time>2025-12-19T23:45:35.000Z</time></trkpt>
        <trkpt lat="28.6079425" lon="104.5681601"><ele>568.36</ele><time>2025-12-19T23:46:15.000Z</time></trkpt>
        <trkpt lat="28.6079425" lon="104.5681601"><ele>568.36</ele><time>2025-12-19T23:46:27.000Z</time></trkpt>
        <trkpt lat="28.6079425" lon="104.5681601"><ele>568.36</ele><time>2025-12-19T23:46:45.000Z</time></trkpt>
        <trkpt lat="28.6079425" lon="104.5681601"><ele>568.36</ele><time>2025-12-19T23:47:07.000Z</time></trkpt>
        <trkpt lat="28.6079425" lon="104.5681601"><ele>568.36</ele><time>2025-12-19T23:47:35.000Z</time></trkpt>
        <trkpt lat="28.6079425" lon="104.5681601"><ele>568.36</ele><time>2025-12-19T23:47:57.000Z</time></trkpt>
        <trkpt lat="28.6079425" lon="104.5681601"><ele>568.36</ele><time>2025-12-19T23:48:53.000Z</time></trkpt>
        <trkpt lat="28.6079425" lon="104.5681601"><ele>568.36</ele><time>2025-12-19T23:51:33.000Z</time></trkpt>
        <trkpt lat="28.6079425" lon="104.5681601"><ele>568.36</ele><time>2025-12-19T23:51:49.000Z</time></trkpt>
        <trkpt lat="28.6079425" lon="104.5681601"><ele>568.36</ele><time>2025-12-19T23:54:11.000Z</time></trkpt>
        <trkpt lat="28.6079425" lon="104.5681601"><ele>568.36</ele><time>2025-12-19T23:54:39.000Z</time></trkpt>
        <trkpt lat="28.6078862" lon="104.5680675"><ele>568.73</ele><time>2025-12-19T23:55:21.000Z</time></trkpt>
        <trkpt lat="28.6078862" lon="104.5680675"><ele>568.73</ele><time>2025-12-19T23:55:44.000Z</time></trkpt>
        <trkpt lat="28.6078493" lon="104.5679645"><ele>567.25</ele><time>2025-12-19T23:55:56.000Z</time></trkpt>
        <trkpt lat="28.6077982" lon="104.5678723"><ele>567.02</ele><time>2025-12-19T23:56:06.000Z</time></trkpt>
        <trkpt lat="28.6077429" lon="104.5677774"><ele>567.7</ele><time>2025-12-19T23:56:18.000Z</time></trkpt>
        <trkpt lat="28.6076685" lon="104.5677157"><ele>568.77</ele><time>2025-12-19T23:56:28.000Z</time></trkpt>
        <trkpt lat="28.6076032" lon="104.567636"><ele>569.93</ele><time>2025-12-19T23:56:36.000Z</time></trkpt>
        <trkpt lat="28.6075526" lon="104.5675372"><ele>571.07</ele><time>2025-12-19T23:56:46.000Z</time></trkpt>
        <trkpt lat="28.6074879" lon="104.56746"><ele>572.98</ele><time>2025-12-19T23:56:56.000Z</time></trkpt>
        <trkpt lat="28.607429" lon="104.5673599"><ele>573.55</ele><time>2025-12-19T23:57:06.000Z</time></trkpt>
        <trkpt lat="28.6073673" lon="104.5672558"><ele>574.7</ele><time>2025-12-19T23:57:16.000Z</time></trkpt>
        <trkpt lat="28.6073025" lon="104.5671642"><ele>575.3</ele><time>2025-12-19T23:57:26.000Z</time></trkpt>
        <trkpt lat="28.6072462" lon="104.5670698"><ele>577.63</ele><time>2025-12-19T23:57:40.000Z</time></trkpt>
        <trkpt lat="28.6072131" lon="104.5669643"><ele>580.6</ele><time>2025-12-19T23:57:56.000Z</time></trkpt>
        <trkpt lat="28.607175" lon="104.5668651"><ele>584.31</ele><time>2025-12-19T23:58:08.000Z</time></trkpt>
        <trkpt lat="28.6071329" lon="104.5667589"><ele>586.98</ele><time>2025-12-19T23:58:22.000Z</time></trkpt>
        <trkpt lat="28.60706" lon="104.5666859"><ele>588.82</ele><time>2025-12-19T23:58:32.000Z</time></trkpt>
        <trkpt lat="28.6069762" lon="104.5666375"><ele>589.68</ele><time>2025-12-19T23:58:42.000Z</time></trkpt>
        <trkpt lat="28.6068942" lon="104.5665812"><ele>589.99</ele><time>2025-12-19T23:58:52.000Z</time></trkpt>
        <trkpt lat="28.6068312" lon="104.5665024"><ele>590.58</ele><time>2025-12-19T23:59:06.000Z</time></trkpt>
        <trkpt lat="28.6067486" lon="104.5664388"><ele>591.63</ele><time>2025-12-19T23:59:18.000Z</time></trkpt>
        <trkpt lat="28.6066561" lon="104.5663852"><ele>591.06</ele><time>2025-12-19T23:59:26.000Z</time></trkpt>
        <trkpt lat="28.6065602" lon="104.566339"><ele>590.45</ele><time>2025-12-19T23:59:38.000Z</time></trkpt>
        <trkpt lat="28.6064913" lon="104.5662692"><ele>588.43</ele><time>2025-12-20T00:00:08.000Z</time></trkpt>
        <trkpt lat="28.6064109" lon="104.5662124"><ele>585.98</ele><time>2025-12-20T00:00:26.000Z</time></trkpt>
        <trkpt lat="28.6063276" lon="104.5661522"><ele>583.8</ele><time>2025-12-20T00:00:36.000Z</time></trkpt>
        <trkpt lat="28.6062398" lon="104.5660905"><ele>582.5</ele><time>2025-12-20T00:00:46.000Z</time></trkpt>
        <trkpt lat="28.606148" lon="104.5660409"><ele>582.07</ele><time>2025-12-20T00:00:56.000Z</time></trkpt>
        <trkpt lat="28.6060505" lon="104.5659958"><ele>582.54</ele><time>2025-12-20T00:01:08.000Z</time></trkpt>
        <trkpt lat="28.6059635" lon="104.5659388"><ele>582.78</ele><time>2025-12-20T00:01:20.000Z</time></trkpt>
        <trkpt lat="28.605871" lon="104.5658845"><ele>582.09</ele><time>2025-12-20T00:01:30.000Z</time></trkpt>
        <trkpt lat="28.6057939" lon="104.5658201"><ele>581.38</ele><time>2025-12-20T00:01:38.000Z</time></trkpt>
        <trkpt lat="28.6057288" lon="104.5657306"><ele>580.6</ele><time>2025-12-20T00:01:48.000Z</time></trkpt>
        <trkpt lat="28.6056603" lon="104.5656406"><ele>580.3</ele><time>2025-12-20T00:01:58.000Z</time></trkpt>
        <trkpt lat="28.6055895" lon="104.5655584"><ele>579.96</ele><time>2025-12-20T00:02:06.000Z</time></trkpt>
        <trkpt lat="28.6055403" lon="104.5654629"><ele>580.55</ele><time>2025-12-20T00:02:14.000Z</time></trkpt>
        <trkpt lat="28.605489" lon="104.5653759"><ele>581.24</ele><time>2025-12-20T00:02:22.000Z</time></trkpt>
        <trkpt lat="28.6054432" lon="104.5652751"><ele>581.5</ele><time>2025-12-20T00:02:32.000Z</time></trkpt>
        <trkpt lat="28.6054198" lon="104.5651626"><ele>581.74</ele><time>2025-12-20T00:02:46.000Z</time></trkpt>
        <trkpt lat="28.6054106" lon="104.5651082"><ele>581.1</ele><time>2025-12-20T00:02:54.000Z</time></trkpt>
        <trkpt lat="28.605352" lon="104.5650498"><ele>580.83</ele><time>2025-12-20T00:03:14.000Z</time></trkpt>
        <trkpt lat="28.6052739" lon="104.564974"><ele>580.99</ele><time>2025-12-20T00:03:22.000Z</time></trkpt>
        <trkpt lat="28.6052067" lon="104.5648907"><ele>581.76</ele><time>2025-12-20T00:03:30.000Z</time></trkpt>
        <trkpt lat="28.6051305" lon="104.5648128"><ele>582.39</ele><time>2025-12-20T00:03:40.000Z</time></trkpt>
        <trkpt lat="28.6050404" lon="104.5647607"><ele>582.26</ele><time>2025-12-20T00:03:52.000Z</time></trkpt>
        <trkpt lat="28.6049481" lon="104.5646996"><ele>581.03</ele><time>2025-12-20T00:04:08.000Z</time></trkpt>
        <trkpt lat="28.6048504" lon="104.5646504"><ele>577.63</ele><time>2025-12-20T00:04:16.000Z</time></trkpt>
        <trkpt lat="28.6047614" lon="104.5645871"><ele>574.85</ele><time>2025-12-20T00:04:24.000Z</time></trkpt>
        <trkpt lat="28.6046736" lon="104.564527"><ele>572.19</ele><time>2025-12-20T00:04:32.000Z</time></trkpt>
        <trkpt lat="28.6045817" lon="104.5645426"><ele>570.01</ele><time>2025-12-20T00:04:42.000Z</time></trkpt>
        <trkpt lat="28.6045733" lon="104.5644715"><ele>567.91</ele><time>2025-12-20T00:04:56.000Z</time></trkpt>
        <trkpt lat="28.6045347" lon="104.564392"><ele>566.5</ele><time>2025-12-20T00:05:04.000Z</time></trkpt>
        <trkpt lat="28.6044476" lon="104.5643539"><ele>565.04</ele><time>2025-12-20T00:05:13.000Z</time></trkpt>
        <trkpt lat="28.6043263" lon="104.5643462"><ele>563.5</ele><time>2025-12-20T00:05:23.000Z</time></trkpt>
        <trkpt lat="28.6042013" lon="104.5643325"><ele>561.93</ele><time>2025-12-20T00:05:33.000Z</time></trkpt>
        <trkpt lat="28.6040724" lon="104.5643058"><ele>562.2</ele><time>2025-12-20T00:05:45.000Z</time></trkpt>
        <trkpt lat="28.6039735" lon="104.5642732"><ele>563</ele><time>2025-12-20T00:05:53.000Z</time></trkpt>
        <trkpt lat="28.6038781" lon="104.5643056"><ele>563.28</ele><time>2025-12-20T00:06:05.000Z</time></trkpt>
        <trkpt lat="28.6037789" lon="104.5643207"><ele>563.19</ele><time>2025-12-20T00:06:16.000Z</time></trkpt>
        <trkpt lat="28.6036797" lon="104.5643811"><ele>563.51</ele><time>2025-12-20T00:06:34.000Z</time></trkpt>
        <trkpt lat="28.6035818" lon="104.5644116"><ele>560.45</ele><time>2025-12-20T00:06:43.000Z</time></trkpt>
        <trkpt lat="28.6034817" lon="104.5643444"><ele>558.76</ele><time>2025-12-20T00:06:55.000Z</time></trkpt>
        <trkpt lat="28.6033888" lon="104.5643259"><ele>558.03</ele><time>2025-12-20T00:07:03.000Z</time></trkpt>
        <trkpt lat="28.6032899" lon="104.564351"><ele>557.31</ele><time>2025-12-20T00:07:12.000Z</time></trkpt>
        <trkpt lat="28.6031967" lon="104.5643715"><ele>555.9</ele><time>2025-12-20T00:07:20.000Z</time></trkpt>
        <trkpt lat="28.6031214" lon="104.564315"><ele>554.63</ele><time>2025-12-20T00:07:29.000Z</time></trkpt>
        <trkpt lat="28.6030961" lon="104.5642161"><ele>554.35</ele><time>2025-12-20T00:07:37.000Z</time></trkpt>
        <trkpt lat="28.6030955" lon="104.5641569"><ele>554.81</ele><time>2025-12-20T00:07:44.000Z</time></trkpt>
        <trkpt lat="28.6031175" lon="104.564049"><ele>555.71</ele><time>2025-12-20T00:08:03.000Z</time></trkpt>
        <trkpt lat="28.6031085" lon="104.5639333"><ele>555.14</ele><time>2025-12-20T00:08:11.000Z</time></trkpt>
        <trkpt lat="28.6030668" lon="104.5638045"><ele>554.81</ele><time>2025-12-20T00:08:23.000Z</time></trkpt>
        <trkpt lat="28.6030211" lon="104.563698"><ele>554.18</ele><time>2025-12-20T00:08:33.000Z</time></trkpt>
        <trkpt lat="28.6029675" lon="104.5635949"><ele>553.21</ele><time>2025-12-20T00:08:45.000Z</time></trkpt>
        <trkpt lat="28.6029581" lon="104.5634851"><ele>551.59</ele><time>2025-12-20T00:08:55.000Z</time></trkpt>
        <trkpt lat="28.602923" lon="104.563368"><ele>549.01</ele><time>2025-12-20T00:09:05.000Z</time></trkpt>
        <trkpt lat="28.602863" lon="104.5632477"><ele>547.62</ele><time>2025-12-20T00:09:15.000Z</time></trkpt>
        <trkpt lat="28.6027681" lon="104.5631424"><ele>546.31</ele><time>2025-12-20T00:09:27.000Z</time></trkpt>
        <trkpt lat="28.6026733" lon="104.5630495"><ele>543.91</ele><time>2025-12-20T00:09:37.000Z</time></trkpt>
        <trkpt lat="28.6025778" lon="104.5629677"><ele>541.78</ele><time>2025-12-20T00:09:47.000Z</time></trkpt>
        <trkpt lat="28.602518" lon="104.5628767"><ele>539.7</ele><time>2025-12-20T00:09:57.000Z</time></trkpt>
        <trkpt lat="28.6024533" lon="104.5627892"><ele>538.04</ele><time>2025-12-20T00:10:05.000Z</time></trkpt>
        <trkpt lat="28.6023811" lon="104.5627055"><ele>537.37</ele><time>2025-12-20T00:10:13.000Z</time></trkpt>
        <trkpt lat="28.6023131" lon="104.5626229"><ele>536.5</ele><time>2025-12-20T00:10:21.000Z</time></trkpt>
        <trkpt lat="28.6022334" lon="104.5625494"><ele>535.29</ele><time>2025-12-20T00:10:29.000Z</time></trkpt>
        <trkpt lat="28.6021556" lon="104.5624724"><ele>534.36</ele><time>2025-12-20T00:10:37.000Z</time></trkpt>
        <trkpt lat="28.6020915" lon="104.5623886"><ele>533.52</ele><time>2025-12-20T00:10:45.000Z</time></trkpt>
        <trkpt lat="28.6020467" lon="104.5622898"><ele>532.01</ele><time>2025-12-20T00:10:53.000Z</time></trkpt>
        <trkpt lat="28.6020401" lon="104.5621856"><ele>530.28</ele><time>2025-12-20T00:11:01.000Z</time></trkpt>
        <trkpt lat="28.6020525" lon="104.5620764"><ele>528.23</ele><time>2025-12-20T00:11:09.000Z</time></trkpt>
        <trkpt lat="28.6020754" lon="104.5619714"><ele>526.56</ele><time>2025-12-20T00:11:17.000Z</time></trkpt>
        <trkpt lat="28.6021359" lon="104.5618751"><ele>525.61</ele><time>2025-12-20T00:11:27.000Z</time></trkpt>
        <trkpt lat="28.6021707" lon="104.5617746"><ele>524.55</ele><time>2025-12-20T00:11:37.000Z</time></trkpt>
        <trkpt lat="28.6021045" lon="104.5617436"><ele>522.67</ele><time>2025-12-20T00:11:53.000Z</time></trkpt>
        <trkpt lat="28.6020073" lon="104.5617384"><ele>517.37</ele><time>2025-12-20T00:12:05.000Z</time></trkpt>
        <trkpt lat="28.6019883" lon="104.5616606"><ele>512.3</ele><time>2025-12-20T00:12:15.000Z</time></trkpt>
        <trkpt lat="28.6020047" lon="104.5615494"><ele>507.83</ele><time>2025-12-20T00:12:23.000Z</time></trkpt>
        <trkpt lat="28.6020294" lon="104.5614287"><ele>505.57</ele><time>2025-12-20T00:12:35.000Z</time></trkpt>
        <trkpt lat="28.6020242" lon="104.5613133"><ele>502.27</ele><time>2025-12-20T00:12:51.000Z</time></trkpt>
        <trkpt lat="28.6020177" lon="104.5611979"><ele>498.77</ele><time>2025-12-20T00:13:01.000Z</time></trkpt>
        <trkpt lat="28.6019884" lon="104.5611082"><ele>495.39</ele><time>2025-12-20T00:13:13.000Z</time></trkpt>
        <trkpt lat="28.6019893" lon="104.5610077"><ele>493.84</ele><time>2025-12-20T00:13:25.000Z</time></trkpt>
        <trkpt lat="28.6019926" lon="104.5609018"><ele>491.51</ele><time>2025-12-20T00:13:35.000Z</time></trkpt>
        <trkpt lat="28.6019489" lon="104.5608107"><ele>488.26</ele><time>2025-12-20T00:13:43.000Z</time></trkpt>
        <trkpt lat="28.6019026" lon="104.5607207"><ele>485.97</ele><time>2025-12-20T00:13:51.000Z</time></trkpt>
        <trkpt lat="28.6018525" lon="104.5606153"><ele>482.93</ele><time>2025-12-20T00:13:59.000Z</time></trkpt>
        <trkpt lat="28.6017922" lon="104.5605149"><ele>480.32</ele><time>2025-12-20T00:14:07.000Z</time></trkpt>
        <trkpt lat="28.6017307" lon="104.5604255"><ele>478.73</ele><time>2025-12-20T00:14:15.000Z</time></trkpt>
        <trkpt lat="28.6016613" lon="104.5603346"><ele>477.08</ele><time>2025-12-20T00:14:25.000Z</time></trkpt>
        <trkpt lat="28.6015823" lon="104.560252"><ele>475.29</ele><time>2025-12-20T00:14:35.000Z</time></trkpt>
        <trkpt lat="28.6014906" lon="104.5602125"><ele>473.27</ele><time>2025-12-20T00:14:47.000Z</time></trkpt>
        <trkpt lat="28.6014094" lon="104.5601619"><ele>472.39</ele><time>2025-12-20T00:14:57.000Z</time></trkpt>
        <trkpt lat="28.6013341" lon="104.5601061"><ele>471.55</ele><time>2025-12-20T00:15:07.000Z</time></trkpt>
        <trkpt lat="28.6012644" lon="104.5600323"><ele>470.57</ele><time>2025-12-20T00:15:19.000Z</time></trkpt>
        <trkpt lat="28.6011781" lon="104.5600162"><ele>468.82</ele><time>2025-12-20T00:15:33.000Z</time></trkpt>
        <trkpt lat="28.6011045" lon="104.5599395"><ele>465.45</ele><time>2025-12-20T00:15:43.000Z</time></trkpt>
        <trkpt lat="28.6010383" lon="104.5598539"><ele>462.37</ele><time>2025-12-20T00:15:51.000Z</time></trkpt>
        <trkpt lat="28.6009517" lon="104.5598277"><ele>461.07</ele><time>2025-12-20T00:15:59.000Z</time></trkpt>
        <trkpt lat="28.6008697" lon="104.559783"><ele>459.1</ele><time>2025-12-20T00:16:07.000Z</time></trkpt>
        <trkpt lat="28.6007858" lon="104.5597411"><ele>456.4</ele><time>2025-12-20T00:16:15.000Z</time></trkpt>
        <trkpt lat="28.6006973" lon="104.5596902"><ele>454.2</ele><time>2025-12-20T00:16:23.000Z</time></trkpt>
        <trkpt lat="28.6006076" lon="104.5596321"><ele>451.73</ele><time>2025-12-20T00:16:31.000Z</time></trkpt>
        <trkpt lat="28.6005169" lon="104.5595701"><ele>449.89</ele><time>2025-12-20T00:16:39.000Z</time></trkpt>
        <trkpt lat="28.6004264" lon="104.5595026"><ele>447.06</ele><time>2025-12-20T00:16:47.000Z</time></trkpt>
        <trkpt lat="28.600343" lon="104.559442"><ele>444.71</ele><time>2025-12-20T00:16:55.000Z</time></trkpt>
        <trkpt lat="28.6002466" lon="104.5594315"><ele>443.25</ele><time>2025-12-20T00:17:05.000Z</time></trkpt>
        <trkpt lat="28.6001445" lon="104.5594073"><ele>440.41</ele><time>2025-12-20T00:17:13.000Z</time></trkpt>
        <trkpt lat="28.6000467" lon="104.5593829"><ele>438.07</ele><time>2025-12-20T00:17:23.000Z</time></trkpt>
        <trkpt lat="28.5999612" lon="104.5593202"><ele>434.54</ele><time>2025-12-20T00:17:31.000Z</time></trkpt>
        <trkpt lat="28.59988" lon="104.5592645"><ele>431.83</ele><time>2025-12-20T00:17:39.000Z</time></trkpt>
        <trkpt lat="28.5997918" lon="104.5592875"><ele>427.02</ele><time>2025-12-20T00:17:47.000Z</time></trkpt>
        <trkpt lat="28.5997159" lon="104.5592546"><ele>423.56</ele><time>2025-12-20T00:18:13.000Z</time></trkpt>
        <trkpt lat="28.5996758" lon="104.5591712"><ele>417.7</ele><time>2025-12-20T00:18:23.000Z</time></trkpt>
        <trkpt lat="28.5995908" lon="104.5591228"><ele>412.54</ele><time>2025-12-20T00:18:33.000Z</time></trkpt>
        <trkpt lat="28.5994947" lon="104.5590984"><ele>408.53</ele><time>2025-12-20T00:18:41.000Z</time></trkpt>
        <trkpt lat="28.5994056" lon="104.5590861"><ele>404.63</ele><time>2025-12-20T00:18:51.000Z</time></trkpt>
        <trkpt lat="28.5993393" lon="104.5590235"><ele>400.98</ele><time>2025-12-20T00:19:07.000Z</time></trkpt>
        <trkpt lat="28.5993133" lon="104.5589176"><ele>397.73</ele><time>2025-12-20T00:19:19.000Z</time></trkpt>
        <trkpt lat="28.59924" lon="104.558881"><ele>394.59</ele><time>2025-12-20T00:19:31.000Z</time></trkpt>
        <trkpt lat="28.5992039" lon="104.5589584"><ele>390.85</ele><time>2025-12-20T00:19:49.000Z</time></trkpt>
        <trkpt lat="28.5991287" lon="104.5589626"><ele>387.96</ele><time>2025-12-20T00:20:03.000Z</time></trkpt>
        <trkpt lat="28.5991188" lon="104.558884"><ele>385.41</ele><time>2025-12-20T00:20:13.000Z</time></trkpt>
        <trkpt lat="28.5991663" lon="104.5587948"><ele>384.24</ele><time>2025-12-20T00:20:21.000Z</time></trkpt>
        <trkpt lat="28.5991663" lon="104.5587948"><ele>384.24</ele><time>2025-12-20T00:27:21.000Z</time></trkpt>
        <trkpt lat="28.5992435" lon="104.5586822"><ele>384.5</ele><time>2025-12-20T00:27:55.000Z</time></trkpt>
        <trkpt lat="28.5992435" lon="104.5586822"><ele>384.5</ele><time>2025-12-20T00:31:17.000Z</time></trkpt>
        <trkpt lat="28.5992993" lon="104.5586005"><ele>382.5</ele><time>2025-12-20T00:31:25.000Z</time></trkpt>
        <trkpt lat="28.5993636" lon="104.5585114"><ele>380.61</ele><time>2025-12-20T00:31:35.000Z</time></trkpt>
        <trkpt lat="28.599425" lon="104.5584232"><ele>379.17</ele><time>2025-12-20T00:31:45.000Z</time></trkpt>
        <trkpt lat="28.5995005" lon="104.5583479"><ele>378.69</ele><time>2025-12-20T00:31:57.000Z</time></trkpt>
        <trkpt lat="28.5995783" lon="104.5582776"><ele>377.85</ele><time>2025-12-20T00:33:33.000Z</time></trkpt>
        <trkpt lat="28.5996698" lon="104.5582409"><ele>374.02</ele><time>2025-12-20T00:33:41.000Z</time></trkpt>
        <trkpt lat="28.5997585" lon="104.5581869"><ele>372.43</ele><time>2025-12-20T00:33:51.000Z</time></trkpt>
        <trkpt lat="28.5998427" lon="104.5581402"><ele>371.97</ele><time>2025-12-20T00:33:59.000Z</time></trkpt>
        <trkpt lat="28.5999388" lon="104.5580935"><ele>371.09</ele><time>2025-12-20T00:34:09.000Z</time></trkpt>
        <trkpt lat="28.6000324" lon="104.5580663"><ele>370.94</ele><time>2025-12-20T00:34:19.000Z</time></trkpt>
        <trkpt lat="28.6001333" lon="104.5580584"><ele>370.55</ele><time>2025-12-20T00:34:29.000Z</time></trkpt>
        <trkpt lat="28.6002378" lon="104.5580496"><ele>368.68</ele><time>2025-12-20T00:34:39.000Z</time></trkpt>
        <trkpt lat="28.6003332" lon="104.5580399"><ele>368.2</ele><time>2025-12-20T00:34:47.000Z</time></trkpt>
        <trkpt lat="28.600438" lon="104.5580426"><ele>367.74</ele><time>2025-12-20T00:34:57.000Z</time></trkpt>
        <trkpt lat="28.6005374" lon="104.5580462"><ele>366.5</ele><time>2025-12-20T00:35:05.000Z</time></trkpt>
        <trkpt lat="28.6006328" lon="104.5580515"><ele>365.89</ele><time>2025-12-20T00:35:13.000Z</time></trkpt>
        <trkpt lat="28.6007388" lon="104.5580567"><ele>365.07</ele><time>2025-12-20T00:35:23.000Z</time></trkpt>
        <trkpt lat="28.6008367" lon="104.558072"><ele>364.22</ele><time>2025-12-20T00:35:31.000Z</time></trkpt>
        <trkpt lat="28.6009415" lon="104.5580869"><ele>363.04</ele><time>2025-12-20T00:35:41.000Z</time></trkpt>
        <trkpt lat="28.6010504" lon="104.5580971"><ele>362.51</ele><time>2025-12-20T00:35:51.000Z</time></trkpt>
        <trkpt lat="28.6011452" lon="104.5581116"><ele>362.63</ele><time>2025-12-20T00:35:59.000Z</time></trkpt>
        <trkpt lat="28.6012345" lon="104.5581286"><ele>362.62</ele><time>2025-12-20T00:36:07.000Z</time></trkpt>
        <trkpt lat="28.6013224" lon="104.5581445"><ele>361.95</ele><time>2025-12-20T00:36:15.000Z</time></trkpt>
        <trkpt lat="28.601423" lon="104.5581644"><ele>360.67</ele><time>2025-12-20T00:36:23.000Z</time></trkpt>
        <trkpt lat="28.6015278" lon="104.5581776"><ele>359.2</ele><time>2025-12-20T00:36:31.000Z</time></trkpt>
        <trkpt lat="28.6016296" lon="104.5581778"><ele>357.51</ele><time>2025-12-20T00:36:39.000Z</time></trkpt>
        <trkpt lat="28.6017394" lon="104.5581922"><ele>356.09</ele><time>2025-12-20T00:36:49.000Z</time></trkpt>
        <trkpt lat="28.6018417" lon="104.5582072"><ele>355.41</ele><time>2025-12-20T00:36:57.000Z</time></trkpt>
        <trkpt lat="28.6019371" lon="104.5582142"><ele>354.92</ele><time>2025-12-20T00:37:05.000Z</time></trkpt>
        <trkpt lat="28.6020392" lon="104.5582285"><ele>354.45</ele><time>2025-12-20T00:37:15.000Z</time></trkpt>
        <trkpt lat="28.6021502" lon="104.5582367"><ele>353.76</ele><time>2025-12-20T00:37:25.000Z</time></trkpt>
        <trkpt lat="28.6022574" lon="104.5582561"><ele>353.6</ele><time>2025-12-20T00:37:33.000Z</time></trkpt>
        <trkpt lat="28.602357" lon="104.5582698"><ele>352.97</ele><time>2025-12-20T00:37:41.000Z</time></trkpt>
        <trkpt lat="28.6024603" lon="104.5582778"><ele>352.91</ele><time>2025-12-20T00:37:51.000Z</time></trkpt>
        <trkpt lat="28.6025508" lon="104.5583186"><ele>352.76</ele><time>2025-12-20T00:37:59.000Z</time></trkpt>
        <trkpt lat="28.6026386" lon="104.5583685"><ele>353.14</ele><time>2025-12-20T00:38:09.000Z</time></trkpt>
        <trkpt lat="28.6027253" lon="104.5584128"><ele>353.13</ele><time>2025-12-20T00:38:19.000Z</time></trkpt>
        <trkpt lat="28.6028049" lon="104.5584679"><ele>353.57</ele><time>2025-12-20T00:38:29.000Z</time></trkpt>
        <trkpt lat="28.6028882" lon="104.5585291"><ele>353.61</ele><time>2025-12-20T00:38:39.000Z</time></trkpt>
        <trkpt lat="28.6029721" lon="104.5585973"><ele>353.32</ele><time>2025-12-20T00:38:49.000Z</time></trkpt>
        <trkpt lat="28.6030527" lon="104.5586662"><ele>352.88</ele><time>2025-12-20T00:38:59.000Z</time></trkpt>
        <trkpt lat="28.6031346" lon="104.5587361"><ele>352.73</ele><time>2025-12-20T00:39:09.000Z</time></trkpt>
        <trkpt lat="28.6032189" lon="104.5587914"><ele>352.88</ele><time>2025-12-20T00:39:19.000Z</time></trkpt>
        <trkpt lat="28.6033047" lon="104.5588558"><ele>352.16</ele><time>2025-12-20T00:39:29.000Z</time></trkpt>
        <trkpt lat="28.6033842" lon="104.5589262"><ele>351.32</ele><time>2025-12-20T00:39:39.000Z</time></trkpt>
        <trkpt lat="28.6034654" lon="104.5589815"><ele>351.48</ele><time>2025-12-20T00:39:47.000Z</time></trkpt>
        <trkpt lat="28.6035537" lon="104.5590395"><ele>348.92</ele><time>2025-12-20T00:39:57.000Z</time></trkpt>
        <trkpt lat="28.6036381" lon="104.5590897"><ele>347.28</ele><time>2025-12-20T00:40:07.000Z</time></trkpt>
        <trkpt lat="28.6037237" lon="104.559125"><ele>346.66</ele><time>2025-12-20T00:40:17.000Z</time></trkpt>
        <trkpt lat="28.6038146" lon="104.5591579"><ele>346.33</ele><time>2025-12-20T00:40:27.000Z</time></trkpt>
        <trkpt lat="28.6039078" lon="104.559205"><ele>346.26</ele><time>2025-12-20T00:40:37.000Z</time></trkpt>
        <trkpt lat="28.6039991" lon="104.5592267"><ele>347.31</ele><time>2025-12-20T00:40:45.000Z</time></trkpt>
        <trkpt lat="28.6040945" lon="104.5592257"><ele>347.91</ele><time>2025-12-20T00:40:55.000Z</time></trkpt>
        <trkpt lat="28.6041892" lon="104.5592114"><ele>347.11</ele><time>2025-12-20T00:41:05.000Z</time></trkpt>
        <trkpt lat="28.6042906" lon="104.5591804"><ele>345.9</ele><time>2025-12-20T00:41:15.000Z</time></trkpt>
        <trkpt lat="28.6043943" lon="104.5591436"><ele>343.33</ele><time>2025-12-20T00:41:25.000Z</time></trkpt>
        <trkpt lat="28.6044952" lon="104.5591174"><ele>341.45</ele><time>2025-12-20T00:41:35.000Z</time></trkpt>
        <trkpt lat="28.6045873" lon="104.5590998"><ele>340.3</ele><time>2025-12-20T00:41:43.000Z</time></trkpt>
        <trkpt lat="28.6046853" lon="104.5590747"><ele>340.22</ele><time>2025-12-20T00:41:53.000Z</time></trkpt>
        <trkpt lat="28.6047925" lon="104.5590542"><ele>341.25</ele><time>2025-12-20T00:42:03.000Z</time></trkpt>
        <trkpt lat="28.6048922" lon="104.559031"><ele>340.87</ele><time>2025-12-20T00:42:13.000Z</time></trkpt>
        <trkpt lat="28.6049954" lon="104.5590077"><ele>340.5</ele><time>2025-12-20T00:42:23.000Z</time></trkpt>
        <trkpt lat="28.6050907" lon="104.5589725"><ele>340.2</ele><time>2025-12-20T00:42:33.000Z</time></trkpt>
        <trkpt lat="28.605194" lon="104.5589398"><ele>340.32</ele><time>2025-12-20T00:42:43.000Z</time></trkpt>
        <trkpt lat="28.6052858" lon="104.5589126"><ele>340.67</ele><time>2025-12-20T00:42:51.000Z</time></trkpt>
        <trkpt lat="28.605385" lon="104.5588872"><ele>340.92</ele><time>2025-12-20T00:43:01.000Z</time></trkpt>
        <trkpt lat="28.6054788" lon="104.5588696"><ele>340.88</ele><time>2025-12-20T00:43:09.000Z</time></trkpt>
        <trkpt lat="28.6055818" lon="104.5588532"><ele>340.31</ele><time>2025-12-20T00:43:19.000Z</time></trkpt>
        <trkpt lat="28.6056848" lon="104.55884"><ele>339.34</ele><time>2025-12-20T00:43:29.000Z</time></trkpt>
        <trkpt lat="28.6057954" lon="104.558826"><ele>337.95</ele><time>2025-12-20T00:43:39.000Z</time></trkpt>
        <trkpt lat="28.6058975" lon="104.5588089"><ele>338.25</ele><time>2025-12-20T00:43:47.000Z</time></trkpt>
        <trkpt lat="28.6059995" lon="104.5588025"><ele>337.33</ele><time>2025-12-20T00:43:55.000Z</time></trkpt>
        <trkpt lat="28.6061021" lon="104.5587889"><ele>336.81</ele><time>2025-12-20T00:44:03.000Z</time></trkpt>
        <trkpt lat="28.6061967" lon="104.55876"><ele>337.05</ele><time>2025-12-20T00:44:11.000Z</time></trkpt>
        <trkpt lat="28.6062883" lon="104.5587269"><ele>337.33</ele><time>2025-12-20T00:44:21.000Z</time></trkpt>
        <trkpt lat="28.6063809" lon="104.5587039"><ele>337.51</ele><time>2025-12-20T00:44:29.000Z</time></trkpt>
        <trkpt lat="28.606481" lon="104.5586982"><ele>337.57</ele><time>2025-12-20T00:44:39.000Z</time></trkpt>
        <trkpt lat="28.606577" lon="104.5586828"><ele>337.14</ele><time>2025-12-20T00:44:49.000Z</time></trkpt>
        <trkpt lat="28.6066744" lon="104.5586729"><ele>336.76</ele><time>2025-12-20T00:44:59.000Z</time></trkpt>
        <trkpt lat="28.6067769" lon="104.5586739"><ele>336.55</ele><time>2025-12-20T00:45:09.000Z</time></trkpt>
        <trkpt lat="28.6068323" lon="104.5586846"><ele>336.25</ele><time>2025-12-20T00:45:15.000Z</time></trkpt>
        <trkpt lat="28.6069125" lon="104.5587203"><ele>335.99</ele><time>2025-12-20T00:45:27.000Z</time></trkpt>
        <trkpt lat="28.6070053" lon="104.5587738"><ele>335.82</ele><time>2025-12-20T00:45:37.000Z</time></trkpt>
        <trkpt lat="28.6070999" lon="104.5588387"><ele>336.29</ele><time>2025-12-20T00:45:47.000Z</time></trkpt>
        <trkpt lat="28.6071939" lon="104.5589101"><ele>336.62</ele><time>2025-12-20T00:45:57.000Z</time></trkpt>
        <trkpt lat="28.6072768" lon="104.5589845"><ele>337.03</ele><time>2025-12-20T00:46:07.000Z</time></trkpt>
        <trkpt lat="28.6073569" lon="104.55905"><ele>337.42</ele><time>2025-12-20T00:46:25.000Z</time></trkpt>
        <trkpt lat="28.6074324" lon="104.5591161"><ele>337.9</ele><time>2025-12-20T00:46:35.000Z</time></trkpt>
        <trkpt lat="28.6075202" lon="104.5591857"><ele>337.86</ele><time>2025-12-20T00:46:45.000Z</time></trkpt>
        <trkpt lat="28.6076072" lon="104.5592426"><ele>337.62</ele><time>2025-12-20T00:46:53.000Z</time></trkpt>
        <trkpt lat="28.607688" lon="104.5593033"><ele>337.5</ele><time>2025-12-20T00:47:01.000Z</time></trkpt>
        <trkpt lat="28.6077787" lon="104.5593727"><ele>337.6</ele><time>2025-12-20T00:47:11.000Z</time></trkpt>
        <trkpt lat="28.6078711" lon="104.5594421"><ele>337.76</ele><time>2025-12-20T00:47:21.000Z</time></trkpt>
        <trkpt lat="28.6079485" lon="104.5595065"><ele>337.91</ele><time>2025-12-20T00:47:29.000Z</time></trkpt>
        <trkpt lat="28.6080223" lon="104.5595705"><ele>338.07</ele><time>2025-12-20T00:47:37.000Z</time></trkpt>
        <trkpt lat="28.6080937" lon="104.5596322"><ele>338.14</ele><time>2025-12-20T00:47:45.000Z</time></trkpt>
        <trkpt lat="28.6081687" lon="104.55969"><ele>338.26</ele><time>2025-12-20T00:47:53.000Z</time></trkpt>
        <trkpt lat="28.6082482" lon="104.5597419"><ele>338.35</ele><time>2025-12-20T00:48:01.000Z</time></trkpt>
        <trkpt lat="28.6083293" lon="104.5597955"><ele>338.36</ele><time>2025-12-20T00:48:09.000Z</time></trkpt>
        <trkpt lat="28.6084114" lon="104.5598525"><ele>338.54</ele><time>2025-12-20T00:48:17.000Z</time></trkpt>
        <trkpt lat="28.6084855" lon="104.559916"><ele>338.45</ele><time>2025-12-20T00:48:25.000Z</time></trkpt>
        <trkpt lat="28.6085636" lon="104.5599768"><ele>338.09</ele><time>2025-12-20T00:48:33.000Z</time></trkpt>
        <trkpt lat="28.608646" lon="104.5600299"><ele>337.58</ele><time>2025-12-20T00:48:41.000Z</time></trkpt>
        <trkpt lat="28.6087451" lon="104.5600849"><ele>337.52</ele><time>2025-12-20T00:48:51.000Z</time></trkpt>
        <trkpt lat="28.6088392" lon="104.5601277"><ele>337.25</ele><time>2025-12-20T00:48:59.000Z</time></trkpt>
        <trkpt lat="28.6089245" lon="104.5601725"><ele>336.7</ele><time>2025-12-20T00:49:07.000Z</time></trkpt>
        <trkpt lat="28.6090143" lon="104.5602142"><ele>337.15</ele><time>2025-12-20T00:49:17.000Z</time></trkpt>
        <trkpt lat="28.6090999" lon="104.5602597"><ele>337.72</ele><time>2025-12-20T00:49:29.000Z</time></trkpt>
        <trkpt lat="28.6091276" lon="104.5602731"><ele>338.16</ele><time>2025-12-20T00:49:33.000Z</time></trkpt>
        <trkpt lat="28.6092047" lon="104.560314"><ele>338.43</ele><time>2025-12-20T00:49:51.000Z</time></trkpt>
        <trkpt lat="28.6092947" lon="104.5603669"><ele>338.64</ele><time>2025-12-20T00:49:59.000Z</time></trkpt>
        <trkpt lat="28.6093963" lon="104.5604082"><ele>338.65</ele><time>2025-12-20T00:50:07.000Z</time></trkpt>
        <trkpt lat="28.6094926" lon="104.5604481"><ele>338.34</ele><time>2025-12-20T00:50:15.000Z</time></trkpt>
        <trkpt lat="28.6095816" lon="104.5604914"><ele>338.19</ele><time>2025-12-20T00:50:23.000Z</time></trkpt>
        <trkpt lat="28.6096667" lon="104.560542"><ele>338.42</ele><time>2025-12-20T00:50:31.000Z</time></trkpt>
        <trkpt lat="28.6097553" lon="104.5605952"><ele>338.15</ele><time>2025-12-20T00:50:39.000Z</time></trkpt>
        <trkpt lat="28.6098491" lon="104.5606448"><ele>337.75</ele><time>2025-12-20T00:50:47.000Z</time></trkpt>
        <trkpt lat="28.6099405" lon="104.5606914"><ele>337.7</ele><time>2025-12-20T00:50:55.000Z</time></trkpt>
        <trkpt lat="28.61003" lon="104.5607372"><ele>337.48</ele><time>2025-12-20T00:51:03.000Z</time></trkpt>
        <trkpt lat="28.6101075" lon="104.5607961"><ele>337.73</ele><time>2025-12-20T00:51:11.000Z</time></trkpt>
        <trkpt lat="28.6101901" lon="104.5608412"><ele>337.65</ele><time>2025-12-20T00:51:19.000Z</time></trkpt>
        <trkpt lat="28.6102774" lon="104.5608828"><ele>337.94</ele><time>2025-12-20T00:51:27.000Z</time></trkpt>
        <trkpt lat="28.6103627" lon="104.5609242"><ele>338.03</ele><time>2025-12-20T00:51:35.000Z</time></trkpt>
        <trkpt lat="28.6104496" lon="104.5609656"><ele>338.1</ele><time>2025-12-20T00:51:43.000Z</time></trkpt>
        <trkpt lat="28.6105352" lon="104.5610112"><ele>338.12</ele><time>2025-12-20T00:51:51.000Z</time></trkpt>
        <trkpt lat="28.6106285" lon="104.561074"><ele>338.25</ele><time>2025-12-20T00:52:01.000Z</time></trkpt>
        <trkpt lat="28.6107123" lon="104.5611344"><ele>338.83</ele><time>2025-12-20T00:52:09.000Z</time></trkpt>
        <trkpt lat="28.6108002" lon="104.5611978"><ele>339.51</ele><time>2025-12-20T00:52:17.000Z</time></trkpt>
        <trkpt lat="28.6108896" lon="104.5612616"><ele>340.15</ele><time>2025-12-20T00:52:25.000Z</time></trkpt>
        <trkpt lat="28.6109757" lon="104.5613117"><ele>340.96</ele><time>2025-12-20T00:52:33.000Z</time></trkpt>
        <trkpt lat="28.6110621" lon="104.5613463"><ele>341.85</ele><time>2025-12-20T00:52:41.000Z</time></trkpt>
        <trkpt lat="28.6111484" lon="104.5613747"><ele>342.2</ele><time>2025-12-20T00:52:49.000Z</time></trkpt>
        <trkpt lat="28.611236" lon="104.5614099"><ele>342.28</ele><time>2025-12-20T00:52:57.000Z</time></trkpt>
        <trkpt lat="28.6113202" lon="104.5614653"><ele>341.46</ele><time>2025-12-20T00:53:05.000Z</time></trkpt>
        <trkpt lat="28.61141" lon="104.5615038"><ele>341.58</ele><time>2025-12-20T00:53:13.000Z</time></trkpt>
        <trkpt lat="28.611495" lon="104.561543"><ele>340.93</ele><time>2025-12-20T00:53:21.000Z</time></trkpt>
        <trkpt lat="28.6115839" lon="104.5615644"><ele>339.94</ele><time>2025-12-20T00:53:29.000Z</time></trkpt>
        <trkpt lat="28.6116782" lon="104.5615926"><ele>339.24</ele><time>2025-12-20T00:53:39.000Z</time></trkpt>
        <trkpt lat="28.6117738" lon="104.5616366"><ele>339.07</ele><time>2025-12-20T00:53:49.000Z</time></trkpt>
        <trkpt lat="28.6118705" lon="104.5616891"><ele>339.21</ele><time>2025-12-20T00:53:59.000Z</time></trkpt>
        <trkpt lat="28.6119651" lon="104.5617425"><ele>339.67</ele><time>2025-12-20T00:54:09.000Z</time></trkpt>
        <trkpt lat="28.6120585" lon="104.5617988"><ele>340.06</ele><time>2025-12-20T00:54:19.000Z</time></trkpt>
        <trkpt lat="28.6121561" lon="104.5618492"><ele>339.81</ele><time>2025-12-20T00:54:29.000Z</time></trkpt>
        <trkpt lat="28.6122542" lon="104.5619047"><ele>339.79</ele><time>2025-12-20T00:54:39.000Z</time></trkpt>
        <trkpt lat="28.6123483" lon="104.5619636"><ele>339.75</ele><time>2025-12-20T00:54:49.000Z</time></trkpt>
        <trkpt lat="28.612437" lon="104.5620022"><ele>339.83</ele><time>2025-12-20T00:54:57.000Z</time></trkpt>
        <trkpt lat="28.6125209" lon="104.5620454"><ele>339.94</ele><time>2025-12-20T00:55:05.000Z</time></trkpt>
        <trkpt lat="28.6126065" lon="104.5620837"><ele>339.71</ele><time>2025-12-20T00:55:13.000Z</time></trkpt>
        <trkpt lat="28.6126963" lon="104.56213"><ele>339.59</ele><time>2025-12-20T00:55:23.000Z</time></trkpt>
        <trkpt lat="28.6127861" lon="104.562178"><ele>339.26</ele><time>2025-12-20T00:55:31.000Z</time></trkpt>
        <trkpt lat="28.6128764" lon="104.5622264"><ele>338.29</ele><time>2025-12-20T00:55:39.000Z</time></trkpt>
        <trkpt lat="28.6129639" lon="104.5622762"><ele>337.64</ele><time>2025-12-20T00:55:47.000Z</time></trkpt>
        <trkpt lat="28.6130611" lon="104.5623228"><ele>337.28</ele><time>2025-12-20T00:55:57.000Z</time></trkpt>
        <trkpt lat="28.6131548" lon="104.5623682"><ele>336.97</ele><time>2025-12-20T00:56:05.000Z</time></trkpt>
        <trkpt lat="28.6132485" lon="104.5624079"><ele>336.79</ele><time>2025-12-20T00:56:13.000Z</time></trkpt>
        <trkpt lat="28.6133407" lon="104.5624386"><ele>336.91</ele><time>2025-12-20T00:56:21.000Z</time></trkpt>
        <trkpt lat="28.6134341" lon="104.5624676"><ele>336.92</ele><time>2025-12-20T00:56:29.000Z</time></trkpt>
        <trkpt lat="28.6135291" lon="104.5624921"><ele>336.9</ele><time>2025-12-20T00:56:37.000Z</time></trkpt>
        <trkpt lat="28.6136266" lon="104.5625133"><ele>336.91</ele><time>2025-12-20T00:56:45.000Z</time></trkpt>
        <trkpt lat="28.6137228" lon="104.5625322"><ele>336.93</ele><time>2025-12-20T00:56:53.000Z</time></trkpt>
        <trkpt lat="28.6138201" lon="104.5625506"><ele>337.23</ele><time>2025-12-20T00:57:01.000Z</time></trkpt>
        <trkpt lat="28.6139174" lon="104.5625663"><ele>337.16</ele><time>2025-12-20T00:57:09.000Z</time></trkpt>
        <trkpt lat="28.6140267" lon="104.5625866"><ele>336.85</ele><time>2025-12-20T00:57:19.000Z</time></trkpt>
        <trkpt lat="28.6141268" lon="104.5626044"><ele>336.49</ele><time>2025-12-20T00:57:27.000Z</time></trkpt>
        <trkpt lat="28.6142282" lon="104.5626197"><ele>336.3</ele><time>2025-12-20T00:57:35.000Z</time></trkpt>
        <trkpt lat="28.614322" lon="104.5626323"><ele>336.16</ele><time>2025-12-20T00:57:43.000Z</time></trkpt>
        <trkpt lat="28.6144114" lon="104.5626477"><ele>336.2</ele><time>2025-12-20T00:57:51.000Z</time></trkpt>
        <trkpt lat="28.6145002" lon="104.5626631"><ele>336.3</ele><time>2025-12-20T00:57:59.000Z</time></trkpt>
        <trkpt lat="28.6145909" lon="104.5626797"><ele>336.37</ele><time>2025-12-20T00:58:07.000Z</time></trkpt>
        <trkpt lat="28.6146823" lon="104.5626961"><ele>336.25</ele><time>2025-12-20T00:58:15.000Z</time></trkpt>
        <trkpt lat="28.6147852" lon="104.5627151"><ele>336.17</ele><time>2025-12-20T00:58:25.000Z</time></trkpt>
        <trkpt lat="28.6148873" lon="104.5627328"><ele>336.37</ele><time>2025-12-20T00:58:35.000Z</time></trkpt>
        <trkpt lat="28.6149921" lon="104.562752"><ele>336.76</ele><time>2025-12-20T00:58:45.000Z</time></trkpt>
        <trkpt lat="28.6150996" lon="104.5627692"><ele>336.92</ele><time>2025-12-20T00:58:55.000Z</time></trkpt>
        <trkpt lat="28.6152012" lon="104.5627984"><ele>336.68</ele><time>2025-12-20T00:59:05.000Z</time></trkpt>
        <trkpt lat="28.6152943" lon="104.5628176"><ele>336.21</ele><time>2025-12-20T00:59:13.000Z</time></trkpt>
        <trkpt lat="28.6153916" lon="104.5628295"><ele>336.37</ele><time>2025-12-20T00:59:23.000Z</time></trkpt>
        <trkpt lat="28.615493" lon="104.5628525"><ele>336.61</ele><time>2025-12-20T00:59:33.000Z</time></trkpt>
        <trkpt lat="28.6155902" lon="104.5628831"><ele>337.1</ele><time>2025-12-20T00:59:43.000Z</time></trkpt>
        <trkpt lat="28.615686" lon="104.5629157"><ele>336.83</ele><time>2025-12-20T00:59:53.000Z</time></trkpt>
        <trkpt lat="28.6157806" lon="104.5629617"><ele>336.52</ele><time>2025-12-20T01:00:03.000Z</time></trkpt>
        <trkpt lat="28.6158764" lon="104.5630254"><ele>336.34</ele><time>2025-12-20T01:00:13.000Z</time></trkpt>
        <trkpt lat="28.6159658" lon="104.5630973"><ele>335.83</ele><time>2025-12-20T01:00:23.000Z</time></trkpt>
        <trkpt lat="28.616051" lon="104.5631454"><ele>335.68</ele><time>2025-12-20T01:00:31.000Z</time></trkpt>
        <trkpt lat="28.6161358" lon="104.5631928"><ele>335.41</ele><time>2025-12-20T01:00:39.000Z</time></trkpt>
        <trkpt lat="28.6162193" lon="104.5632406"><ele>335.32</ele><time>2025-12-20T01:00:47.000Z</time></trkpt>
        <trkpt lat="28.616302" lon="104.5632868"><ele>335.28</ele><time>2025-12-20T01:00:55.000Z</time></trkpt>
        <trkpt lat="28.6163902" lon="104.5633297"><ele>335.23</ele><time>2025-12-20T01:01:03.000Z</time></trkpt>
        <trkpt lat="28.6164748" lon="104.5633813"><ele>334.91</ele><time>2025-12-20T01:01:11.000Z</time></trkpt>
        <trkpt lat="28.6165637" lon="104.5634261"><ele>334.87</ele><time>2025-12-20T01:01:19.000Z</time></trkpt>
        <trkpt lat="28.6166545" lon="104.5634635"><ele>334.84</ele><time>2025-12-20T01:01:27.000Z</time></trkpt>
        <trkpt lat="28.6167436" lon="104.5635002"><ele>334.58</ele><time>2025-12-20T01:01:35.000Z</time></trkpt>
        <trkpt lat="28.6168297" lon="104.5635401"><ele>334.31</ele><time>2025-12-20T01:01:43.000Z</time></trkpt>
        <trkpt lat="28.6169136" lon="104.5635824"><ele>334.03</ele><time>2025-12-20T01:01:51.000Z</time></trkpt>
        <trkpt lat="28.6170083" lon="104.563637"><ele>334.26</ele><time>2025-12-20T01:02:01.000Z</time></trkpt>
        <trkpt lat="28.617095" lon="104.563686"><ele>334.68</ele><time>2025-12-20T01:02:09.000Z</time></trkpt>
        <trkpt lat="28.6171745" lon="104.5637409"><ele>334.6</ele><time>2025-12-20T01:02:17.000Z</time></trkpt>
        <trkpt lat="28.6172582" lon="104.5637908"><ele>334.07</ele><time>2025-12-20T01:02:25.000Z</time></trkpt>
        <trkpt lat="28.6173454" lon="104.5638368"><ele>333.71</ele><time>2025-12-20T01:02:33.000Z</time></trkpt>
        <trkpt lat="28.6174361" lon="104.5638815"><ele>333.71</ele><time>2025-12-20T01:02:41.000Z</time></trkpt>
        <trkpt lat="28.6175305" lon="104.5639213"><ele>334.07</ele><time>2025-12-20T01:02:49.000Z</time></trkpt>
        <trkpt lat="28.6176231" lon="104.5639639"><ele>334.4</ele><time>2025-12-20T01:02:57.000Z</time></trkpt>
        <trkpt lat="28.6177112" lon="104.5640131"><ele>334.64</ele><time>2025-12-20T01:03:05.000Z</time></trkpt>
        <trkpt lat="28.6178023" lon="104.564064"><ele>334.49</ele><time>2025-12-20T01:03:13.000Z</time></trkpt>
        <trkpt lat="28.6178921" lon="104.5641102"><ele>334.4</ele><time>2025-12-20T01:03:21.000Z</time></trkpt>
        <trkpt lat="28.6179784" lon="104.564156"><ele>334.17</ele><time>2025-12-20T01:03:29.000Z</time></trkpt>
        <trkpt lat="28.6180631" lon="104.5641998"><ele>334</ele><time>2025-12-20T01:03:37.000Z</time></trkpt>
        <trkpt lat="28.6181573" lon="104.56425"><ele>333.99</ele><time>2025-12-20T01:03:47.000Z</time></trkpt>
        <trkpt lat="28.6182454" lon="104.5642992"><ele>334.22</ele><time>2025-12-20T01:03:55.000Z</time></trkpt>
        <trkpt lat="28.6183317" lon="104.5643491"><ele>334.03</ele><time>2025-12-20T01:04:03.000Z</time></trkpt>
        <trkpt lat="28.6184202" lon="104.5643975"><ele>334.1</ele><time>2025-12-20T01:04:11.000Z</time></trkpt>
        <trkpt lat="28.6185086" lon="104.5644439"><ele>334.46</ele><time>2025-12-20T01:04:19.000Z</time></trkpt>
        <trkpt lat="28.6185969" lon="104.5644854"><ele>334.64</ele><time>2025-12-20T01:04:27.000Z</time></trkpt>
        <trkpt lat="28.6186838" lon="104.5645243"><ele>334.47</ele><time>2025-12-20T01:04:35.000Z</time></trkpt>
        <trkpt lat="28.6187825" lon="104.5645666"><ele>334.27</ele><time>2025-12-20T01:04:45.000Z</time></trkpt>
        <trkpt lat="28.6188752" lon="104.5646029"><ele>333.79</ele><time>2025-12-20T01:04:53.000Z</time></trkpt>
        <trkpt lat="28.6189681" lon="104.5646347"><ele>334.02</ele><time>2025-12-20T01:05:01.000Z</time></trkpt>
        <trkpt lat="28.6190652" lon="104.564654"><ele>334.15</ele><time>2025-12-20T01:05:09.000Z</time></trkpt>
        <trkpt lat="28.6191626" lon="104.5646587"><ele>334.19</ele><time>2025-12-20T01:05:17.000Z</time></trkpt>
        <trkpt lat="28.6192604" lon="104.5646371"><ele>333.85</ele><time>2025-12-20T01:05:25.000Z</time></trkpt>
        <trkpt lat="28.6193596" lon="104.5646136"><ele>333.41</ele><time>2025-12-20T01:05:33.000Z</time></trkpt>
        <trkpt lat="28.6194566" lon="104.5645811"><ele>333.13</ele><time>2025-12-20T01:05:41.000Z</time></trkpt>
        <trkpt lat="28.6195538" lon="104.5645425"><ele>333.41</ele><time>2025-12-20T01:05:49.000Z</time></trkpt>
        <trkpt lat="28.6196414" lon="104.5644954"><ele>333.59</ele><time>2025-12-20T01:05:57.000Z</time></trkpt>
        <trkpt lat="28.619726" lon="104.564448"><ele>333.39</ele><time>2025-12-20T01:06:05.000Z</time></trkpt>
        <trkpt lat="28.6198184" lon="104.5644065"><ele>332.77</ele><time>2025-12-20T01:06:13.000Z</time></trkpt>
        <trkpt lat="28.6199161" lon="104.5643613"><ele>332.67</ele><time>2025-12-20T01:06:21.000Z</time></trkpt>
        <trkpt lat="28.620011" lon="104.5643142"><ele>333.06</ele><time>2025-12-20T01:06:29.000Z</time></trkpt>
        <trkpt lat="28.6201034" lon="104.5642761"><ele>333.04</ele><time>2025-12-20T01:06:37.000Z</time></trkpt>
        <trkpt lat="28.620196" lon="104.5642319"><ele>333.05</ele><time>2025-12-20T01:06:45.000Z</time></trkpt>
        <trkpt lat="28.6202876" lon="104.5641733"><ele>332.76</ele><time>2025-12-20T01:06:54.000Z</time></trkpt>
        <trkpt lat="28.6203702" lon="104.5641131"><ele>332.37</ele><time>2025-12-20T01:07:00.000Z</time></trkpt>
        <trkpt lat="28.6204605" lon="104.564071"><ele>332.8</ele><time>2025-12-20T01:07:08.000Z</time></trkpt>
        <trkpt lat="28.6205519" lon="104.5640297"><ele>333.3</ele><time>2025-12-20T01:07:16.000Z</time></trkpt>
        <trkpt lat="28.6206432" lon="104.5639957"><ele>333.86</ele><time>2025-12-20T01:07:24.000Z</time></trkpt>
        <trkpt lat="28.6207336" lon="104.5639577"><ele>333.97</ele><time>2025-12-20T01:07:32.000Z</time></trkpt>
        <trkpt lat="28.6208208" lon="104.5639231"><ele>333.91</ele><time>2025-12-20T01:07:40.000Z</time></trkpt>
        <trkpt lat="28.6209144" lon="104.5638771"><ele>333.79</ele><time>2025-12-20T01:07:50.000Z</time></trkpt>
        <trkpt lat="28.6210142" lon="104.5638212"><ele>333.47</ele><time>2025-12-20T01:08:00.000Z</time></trkpt>
        <trkpt lat="28.6211057" lon="104.5637744"><ele>333.22</ele><time>2025-12-20T01:08:08.000Z</time></trkpt>
        <trkpt lat="28.6212047" lon="104.5637272"><ele>332.94</ele><time>2025-12-20T01:08:18.000Z</time></trkpt>
        <trkpt lat="28.6212999" lon="104.5636993"><ele>332.34</ele><time>2025-12-20T01:08:26.000Z</time></trkpt>
        <trkpt lat="28.6213884" lon="104.5636441"><ele>331.34</ele><time>2025-12-20T01:08:38.000Z</time></trkpt>
        <trkpt lat="28.6214447" lon="104.5635443"><ele>330.78</ele><time>2025-12-20T01:08:48.000Z</time></trkpt>
        <trkpt lat="28.6215106" lon="104.5634646"><ele>330.45</ele><time>2025-12-20T01:08:56.000Z</time></trkpt>
        <trkpt lat="28.6215859" lon="104.5634076"><ele>330.51</ele><time>2025-12-20T01:09:04.000Z</time></trkpt>
        <trkpt lat="28.6216795" lon="104.5633621"><ele>329.69</ele><time>2025-12-20T01:09:13.000Z</time></trkpt>
        <trkpt lat="28.6217786" lon="104.5633133"><ele>329.97</ele><time>2025-12-20T01:09:23.000Z</time></trkpt>
        <trkpt lat="28.6218683" lon="104.5632695"><ele>330.49</ele><time>2025-12-20T01:09:31.000Z</time></trkpt>
        <trkpt lat="28.6219646" lon="104.5632269"><ele>330.82</ele><time>2025-12-20T01:09:41.000Z</time></trkpt>
        <trkpt lat="28.6220669" lon="104.5631886"><ele>330.76</ele><time>2025-12-20T01:09:51.000Z</time></trkpt>
        <trkpt lat="28.6221631" lon="104.5631357"><ele>330.82</ele><time>2025-12-20T01:10:01.000Z</time></trkpt>
        <trkpt lat="28.6222555" lon="104.5630957"><ele>330.95</ele><time>2025-12-20T01:10:09.000Z</time></trkpt>
        <trkpt lat="28.6223516" lon="104.5630425"><ele>330.64</ele><time>2025-12-20T01:10:19.000Z</time></trkpt>
        <trkpt lat="28.6224495" lon="104.5629961"><ele>330.62</ele><time>2025-12-20T01:10:29.000Z</time></trkpt>
        <trkpt lat="28.6225514" lon="104.5629544"><ele>330.04</ele><time>2025-12-20T01:10:39.000Z</time></trkpt>
        <trkpt lat="28.6226411" lon="104.5628987"><ele>329.68</ele><time>2025-12-20T01:10:49.000Z</time></trkpt>
        <trkpt lat="28.6227278" lon="104.5628387"><ele>329.7</ele><time>2025-12-20T01:10:59.000Z</time></trkpt>
        <trkpt lat="28.6228089" lon="104.5627802"><ele>329.69</ele><time>2025-12-20T01:11:09.000Z</time></trkpt>
        <trkpt lat="28.6228934" lon="104.5627415"><ele>329.58</ele><time>2025-12-20T01:11:18.000Z</time></trkpt>
        <trkpt lat="28.6229946" lon="104.5627049"><ele>329.89</ele><time>2025-12-20T01:11:28.000Z</time></trkpt>
        <trkpt lat="28.6230906" lon="104.5626812"><ele>329.9</ele><time>2025-12-20T01:11:36.000Z</time></trkpt>
        <trkpt lat="28.6231888" lon="104.5626386"><ele>329.61</ele><time>2025-12-20T01:11:46.000Z</time></trkpt>
        <trkpt lat="28.6232816" lon="104.5626426"><ele>328.98</ele><time>2025-12-20T01:11:54.000Z</time></trkpt>
        <trkpt lat="28.6233743" lon="104.5626575"><ele>328.35</ele><time>2025-12-20T01:12:02.000Z</time></trkpt>
        <trkpt lat="28.623479" lon="104.5626814"><ele>327.8</ele><time>2025-12-20T01:12:12.000Z</time></trkpt>
        <trkpt lat="28.623582" lon="104.5627127"><ele>327.49</ele><time>2025-12-20T01:12:22.000Z</time></trkpt>
        <trkpt lat="28.6236843" lon="104.5627316"><ele>327.39</ele><time>2025-12-20T01:12:32.000Z</time></trkpt>
        <trkpt lat="28.6237829" lon="104.5627678"><ele>328.21</ele><time>2025-12-20T01:12:44.000Z</time></trkpt>
        <trkpt lat="28.6238838" lon="104.5627958"><ele>329.13</ele><time>2025-12-20T01:12:56.000Z</time></trkpt>
        <trkpt lat="28.6239794" lon="104.5628149"><ele>329.6</ele><time>2025-12-20T01:13:06.000Z</time></trkpt>
        <trkpt lat="28.6240705" lon="104.562822"><ele>330.1</ele><time>2025-12-20T01:13:16.000Z</time></trkpt>
        <trkpt lat="28.6241583" lon="104.5628467"><ele>330.83</ele><time>2025-12-20T01:13:26.000Z</time></trkpt>
        <trkpt lat="28.6241583" lon="104.5628467"><ele>330.83</ele><time>2025-12-20T01:13:58.000Z</time></trkpt>
      </trkseg>
  </trk>
</gpx>